<?xml version="1.0" encoding="UTF-8" standalone="no" ?>
<gpx xmlns="http://www.topografix.com/GPX/1/1" xmlns:xsi="http://www.w3.org/2001/XMLSchema-instance" xsi:schemaLocation="http://www.topografix.com/GPX/1/1 http://www.topografix.com/GPX/1/1/gpx.xsd" version="1.1" creator="VisuGPX - https://www.visugpx.com">
  <metadata>
    <name>Sortie_cyclo_07_05_2013 (Lannion  - Louargat - Plounévez)</name>
    <desc><![CDATA[Circuit de 66 kms.]]></desc>
  </metadata>
  <trk>
    <name><![CDATA[07-MAI-13 18:51:39]]></name>
    <trkseg>
      <trkpt lat="48.74737" lon="-3.45506">
        <ele>61.66</ele>
        <time>2013-05-07T14:07:14Z</time>
      </trkpt>
      <trkpt lat="48.74754" lon="-3.45529">
        <ele>61.66</ele>
        <time>2013-05-07T14:07:27Z</time>
      </trkpt>
      <trkpt lat="48.74765" lon="-3.45539">
        <ele>62.14</ele>
        <time>2013-05-07T14:07:56Z</time>
      </trkpt>
      <trkpt lat="48.74764" lon="-3.4554">
        <ele>62.14</ele>
        <time>2013-05-07T14:07:57Z</time>
      </trkpt>
      <trkpt lat="48.74765" lon="-3.45554">
        <ele>62.14</ele>
        <time>2013-05-07T14:08:14Z</time>
      </trkpt>
      <trkpt lat="48.74763" lon="-3.45551">
        <ele>62.14</ele>
        <time>2013-05-07T14:08:27Z</time>
      </trkpt>
      <trkpt lat="48.7476" lon="-3.45559">
        <ele>62.14</ele>
        <time>2013-05-07T14:08:32Z</time>
      </trkpt>
      <trkpt lat="48.74755" lon="-3.45566">
        <ele>62.14</ele>
        <time>2013-05-07T14:08:34Z</time>
      </trkpt>
      <trkpt lat="48.74731" lon="-3.45552">
        <ele>61.66</ele>
        <time>2013-05-07T14:08:39Z</time>
      </trkpt>
      <trkpt lat="48.74727" lon="-3.45546">
        <ele>61.66</ele>
        <time>2013-05-07T14:08:40Z</time>
      </trkpt>
      <trkpt lat="48.74722" lon="-3.45539">
        <ele>61.66</ele>
        <time>2013-05-07T14:08:41Z</time>
      </trkpt>
      <trkpt lat="48.74684" lon="-3.45503">
        <ele>59.74</ele>
        <time>2013-05-07T14:08:48Z</time>
      </trkpt>
      <trkpt lat="48.74678" lon="-3.455">
        <ele>58.78</ele>
        <time>2013-05-07T14:08:49Z</time>
      </trkpt>
      <trkpt lat="48.74671" lon="-3.45501">
        <ele>57.82</ele>
        <time>2013-05-07T14:08:50Z</time>
      </trkpt>
      <trkpt lat="48.74664" lon="-3.45507">
        <ele>57.34</ele>
        <time>2013-05-07T14:08:51Z</time>
      </trkpt>
      <trkpt lat="48.74659" lon="-3.45514">
        <ele>55.41</ele>
        <time>2013-05-07T14:08:52Z</time>
      </trkpt>
      <trkpt lat="48.74654" lon="-3.4552">
        <ele>54.93</ele>
        <time>2013-05-07T14:08:53Z</time>
      </trkpt>
      <trkpt lat="48.7465" lon="-3.45526">
        <ele>54.93</ele>
        <time>2013-05-07T14:08:54Z</time>
      </trkpt>
      <trkpt lat="48.74636" lon="-3.45528">
        <ele>53.49</ele>
        <time>2013-05-07T14:09:01Z</time>
      </trkpt>
      <trkpt lat="48.74635" lon="-3.45528">
        <ele>53.01</ele>
        <time>2013-05-07T14:09:03Z</time>
      </trkpt>
      <trkpt lat="48.74634" lon="-3.45529">
        <ele>53.01</ele>
        <time>2013-05-07T14:09:04Z</time>
      </trkpt>
      <trkpt lat="48.74631" lon="-3.4553">
        <ele>53.49</ele>
        <time>2013-05-07T14:09:05Z</time>
      </trkpt>
      <trkpt lat="48.74628" lon="-3.45529">
        <ele>53.49</ele>
        <time>2013-05-07T14:09:06Z</time>
      </trkpt>
      <trkpt lat="48.74625" lon="-3.45527">
        <ele>53.49</ele>
        <time>2013-05-07T14:09:07Z</time>
      </trkpt>
      <trkpt lat="48.74621" lon="-3.45524">
        <ele>53.49</ele>
        <time>2013-05-07T14:09:08Z</time>
      </trkpt>
      <trkpt lat="48.74618" lon="-3.45521">
        <ele>53.01</ele>
        <time>2013-05-07T14:09:09Z</time>
      </trkpt>
      <trkpt lat="48.74614" lon="-3.45517">
        <ele>53.49</ele>
        <time>2013-05-07T14:09:10Z</time>
      </trkpt>
      <trkpt lat="48.74578" lon="-3.45458">
        <ele>50.13</ele>
        <time>2013-05-07T14:09:18Z</time>
      </trkpt>
      <trkpt lat="48.74562" lon="-3.45432">
        <ele>48.68</ele>
        <time>2013-05-07T14:09:21Z</time>
      </trkpt>
      <trkpt lat="48.74521" lon="-3.4538">
        <ele>50.61</ele>
        <time>2013-05-07T14:09:31Z</time>
      </trkpt>
      <trkpt lat="48.74512" lon="-3.45369">
        <ele>52.05</ele>
        <time>2013-05-07T14:09:34Z</time>
      </trkpt>
      <trkpt lat="48.74506" lon="-3.45363">
        <ele>53.49</ele>
        <time>2013-05-07T14:09:36Z</time>
      </trkpt>
      <trkpt lat="48.74475" lon="-3.45326">
        <ele>56.86</ele>
        <time>2013-05-07T14:09:46Z</time>
      </trkpt>
      <trkpt lat="48.7444" lon="-3.45286">
        <ele>58.3</ele>
        <time>2013-05-07T14:09:59Z</time>
      </trkpt>
      <trkpt lat="48.74432" lon="-3.45282">
        <ele>58.3</ele>
        <time>2013-05-07T14:10:11Z</time>
      </trkpt>
      <trkpt lat="48.74432" lon="-3.45282">
        <ele>58.3</ele>
        <time>2013-05-07T14:10:13Z</time>
      </trkpt>
      <trkpt lat="48.7443" lon="-3.4528">
        <ele>58.78</ele>
        <time>2013-05-07T14:10:14Z</time>
      </trkpt>
      <trkpt lat="48.74424" lon="-3.45275">
        <ele>59.26</ele>
        <time>2013-05-07T14:10:16Z</time>
      </trkpt>
      <trkpt lat="48.74421" lon="-3.45272">
        <ele>59.74</ele>
        <time>2013-05-07T14:10:17Z</time>
      </trkpt>
      <trkpt lat="48.74404" lon="-3.45254">
        <ele>60.22</ele>
        <time>2013-05-07T14:10:22Z</time>
      </trkpt>
      <trkpt lat="48.744" lon="-3.45252">
        <ele>59.74</ele>
        <time>2013-05-07T14:10:23Z</time>
      </trkpt>
      <trkpt lat="48.74391" lon="-3.45248">
        <ele>60.22</ele>
        <time>2013-05-07T14:10:25Z</time>
      </trkpt>
      <trkpt lat="48.74357" lon="-3.45233">
        <ele>59.74</ele>
        <time>2013-05-07T14:10:32Z</time>
      </trkpt>
      <trkpt lat="48.74352" lon="-3.45228">
        <ele>59.26</ele>
        <time>2013-05-07T14:10:33Z</time>
      </trkpt>
      <trkpt lat="48.74312" lon="-3.45185">
        <ele>57.82</ele>
        <time>2013-05-07T14:10:40Z</time>
      </trkpt>
      <trkpt lat="48.74307" lon="-3.45177">
        <ele>57.34</ele>
        <time>2013-05-07T14:10:41Z</time>
      </trkpt>
      <trkpt lat="48.7429" lon="-3.45136">
        <ele>56.37</ele>
        <time>2013-05-07T14:10:45Z</time>
      </trkpt>
      <trkpt lat="48.74286" lon="-3.45124">
        <ele>55.89</ele>
        <time>2013-05-07T14:10:46Z</time>
      </trkpt>
      <trkpt lat="48.74279" lon="-3.45016">
        <ele>52.05</ele>
        <time>2013-05-07T14:10:54Z</time>
      </trkpt>
      <trkpt lat="48.74278" lon="-3.44926">
        <ele>50.13</ele>
        <time>2013-05-07T14:11:00Z</time>
      </trkpt>
      <trkpt lat="48.74279" lon="-3.44816">
        <ele>46.76</ele>
        <time>2013-05-07T14:11:07Z</time>
      </trkpt>
      <trkpt lat="48.74278" lon="-3.44768">
        <ele>44.84</ele>
        <time>2013-05-07T14:11:10Z</time>
      </trkpt>
      <trkpt lat="48.74271" lon="-3.44677">
        <ele>41.47</ele>
        <time>2013-05-07T14:11:16Z</time>
      </trkpt>
      <trkpt lat="48.74268" lon="-3.44665">
        <ele>40.99</ele>
        <time>2013-05-07T14:11:17Z</time>
      </trkpt>
      <trkpt lat="48.74265" lon="-3.44653">
        <ele>40.99</ele>
        <time>2013-05-07T14:11:18Z</time>
      </trkpt>
      <trkpt lat="48.7426" lon="-3.44643">
        <ele>40.03</ele>
        <time>2013-05-07T14:11:19Z</time>
      </trkpt>
      <trkpt lat="48.74255" lon="-3.44633">
        <ele>39.55</ele>
        <time>2013-05-07T14:11:20Z</time>
      </trkpt>
      <trkpt lat="48.74232" lon="-3.44601">
        <ele>38.59</ele>
        <time>2013-05-07T14:11:24Z</time>
      </trkpt>
      <trkpt lat="48.74226" lon="-3.44595">
        <ele>39.07</ele>
        <time>2013-05-07T14:11:25Z</time>
      </trkpt>
      <trkpt lat="48.74219" lon="-3.4459">
        <ele>38.11</ele>
        <time>2013-05-07T14:11:26Z</time>
      </trkpt>
      <trkpt lat="48.7413" lon="-3.44554">
        <ele>35.71</ele>
        <time>2013-05-07T14:11:38Z</time>
      </trkpt>
      <trkpt lat="48.74039" lon="-3.44513">
        <ele>33.3</ele>
        <time>2013-05-07T14:11:51Z</time>
      </trkpt>
      <trkpt lat="48.74032" lon="-3.4451">
        <ele>32.82</ele>
        <time>2013-05-07T14:11:52Z</time>
      </trkpt>
      <trkpt lat="48.73997" lon="-3.44498">
        <ele>32.34</ele>
        <time>2013-05-07T14:11:57Z</time>
      </trkpt>
      <trkpt lat="48.73991" lon="-3.44499">
        <ele>31.38</ele>
        <time>2013-05-07T14:11:58Z</time>
      </trkpt>
      <trkpt lat="48.73985" lon="-3.44504">
        <ele>30.9</ele>
        <time>2013-05-07T14:11:59Z</time>
      </trkpt>
      <trkpt lat="48.73978" lon="-3.44508">
        <ele>30.9</ele>
        <time>2013-05-07T14:12:00Z</time>
      </trkpt>
      <trkpt lat="48.73972" lon="-3.44509">
        <ele>30.9</ele>
        <time>2013-05-07T14:12:01Z</time>
      </trkpt>
      <trkpt lat="48.73965" lon="-3.44508">
        <ele>31.38</ele>
        <time>2013-05-07T14:12:02Z</time>
      </trkpt>
      <trkpt lat="48.73959" lon="-3.44504">
        <ele>31.38</ele>
        <time>2013-05-07T14:12:03Z</time>
      </trkpt>
      <trkpt lat="48.73954" lon="-3.44499">
        <ele>31.38</ele>
        <time>2013-05-07T14:12:04Z</time>
      </trkpt>
      <trkpt lat="48.73949" lon="-3.44492">
        <ele>31.38</ele>
        <time>2013-05-07T14:12:05Z</time>
      </trkpt>
      <trkpt lat="48.73944" lon="-3.44486">
        <ele>31.38</ele>
        <time>2013-05-07T14:12:06Z</time>
      </trkpt>
      <trkpt lat="48.73939" lon="-3.44481">
        <ele>31.38</ele>
        <time>2013-05-07T14:12:07Z</time>
      </trkpt>
      <trkpt lat="48.73933" lon="-3.44478">
        <ele>30.9</ele>
        <time>2013-05-07T14:12:08Z</time>
      </trkpt>
      <trkpt lat="48.73926" lon="-3.44475">
        <ele>30.42</ele>
        <time>2013-05-07T14:12:09Z</time>
      </trkpt>
      <trkpt lat="48.73847" lon="-3.44451">
        <ele>27.53</ele>
        <time>2013-05-07T14:12:20Z</time>
      </trkpt>
      <trkpt lat="48.73839" lon="-3.44451">
        <ele>26.57</ele>
        <time>2013-05-07T14:12:21Z</time>
      </trkpt>
      <trkpt lat="48.7383" lon="-3.44452">
        <ele>26.09</ele>
        <time>2013-05-07T14:12:22Z</time>
      </trkpt>
      <trkpt lat="48.73822" lon="-3.44455">
        <ele>25.61</ele>
        <time>2013-05-07T14:12:23Z</time>
      </trkpt>
      <trkpt lat="48.73813" lon="-3.44459">
        <ele>25.61</ele>
        <time>2013-05-07T14:12:24Z</time>
      </trkpt>
      <trkpt lat="48.73786" lon="-3.44473">
        <ele>22.73</ele>
        <time>2013-05-07T14:12:27Z</time>
      </trkpt>
      <trkpt lat="48.73768" lon="-3.44484">
        <ele>21.77</ele>
        <time>2013-05-07T14:12:29Z</time>
      </trkpt>
      <trkpt lat="48.73751" lon="-3.44493">
        <ele>21.77</ele>
        <time>2013-05-07T14:12:31Z</time>
      </trkpt>
      <trkpt lat="48.73743" lon="-3.44494">
        <ele>21.29</ele>
        <time>2013-05-07T14:12:32Z</time>
      </trkpt>
      <trkpt lat="48.73735" lon="-3.44494">
        <ele>20.81</ele>
        <time>2013-05-07T14:12:33Z</time>
      </trkpt>
      <trkpt lat="48.73727" lon="-3.44491">
        <ele>20.32</ele>
        <time>2013-05-07T14:12:34Z</time>
      </trkpt>
      <trkpt lat="48.73719" lon="-3.44487">
        <ele>19.84</ele>
        <time>2013-05-07T14:12:35Z</time>
      </trkpt>
      <trkpt lat="48.73712" lon="-3.44484">
        <ele>19.36</ele>
        <time>2013-05-07T14:12:36Z</time>
      </trkpt>
      <trkpt lat="48.73705" lon="-3.44478">
        <ele>18.88</ele>
        <time>2013-05-07T14:12:37Z</time>
      </trkpt>
      <trkpt lat="48.73699" lon="-3.44473">
        <ele>19.36</ele>
        <time>2013-05-07T14:12:38Z</time>
      </trkpt>
      <trkpt lat="48.73638" lon="-3.44427">
        <ele>19.84</ele>
        <time>2013-05-07T14:12:49Z</time>
      </trkpt>
      <trkpt lat="48.73634" lon="-3.44425">
        <ele>19.84</ele>
        <time>2013-05-07T14:12:50Z</time>
      </trkpt>
      <trkpt lat="48.73625" lon="-3.44421">
        <ele>20.81</ele>
        <time>2013-05-07T14:12:52Z</time>
      </trkpt>
      <trkpt lat="48.73621" lon="-3.4442">
        <ele>21.29</ele>
        <time>2013-05-07T14:12:53Z</time>
      </trkpt>
      <trkpt lat="48.73617" lon="-3.44418">
        <ele>21.77</ele>
        <time>2013-05-07T14:12:54Z</time>
      </trkpt>
      <trkpt lat="48.73584" lon="-3.4441">
        <ele>25.13</ele>
        <time>2013-05-07T14:13:03Z</time>
      </trkpt>
      <trkpt lat="48.73554" lon="-3.4441">
        <ele>26.57</ele>
        <time>2013-05-07T14:13:10Z</time>
      </trkpt>
      <trkpt lat="48.73546" lon="-3.44411">
        <ele>26.57</ele>
        <time>2013-05-07T14:13:12Z</time>
      </trkpt>
      <trkpt lat="48.73529" lon="-3.44414">
        <ele>28.02</ele>
        <time>2013-05-07T14:13:16Z</time>
      </trkpt>
      <trkpt lat="48.73474" lon="-3.4444">
        <ele>30.42</ele>
        <time>2013-05-07T14:13:31Z</time>
      </trkpt>
      <trkpt lat="48.73449" lon="-3.44488">
        <ele>31.86</ele>
        <time>2013-05-07T14:13:42Z</time>
      </trkpt>
      <trkpt lat="48.73438" lon="-3.4449">
        <ele>31.86</ele>
        <time>2013-05-07T14:13:45Z</time>
      </trkpt>
      <trkpt lat="48.73433" lon="-3.44489">
        <ele>31.86</ele>
        <time>2013-05-07T14:13:46Z</time>
      </trkpt>
      <trkpt lat="48.73429" lon="-3.44488">
        <ele>32.82</ele>
        <time>2013-05-07T14:13:47Z</time>
      </trkpt>
      <trkpt lat="48.73425" lon="-3.44485">
        <ele>32.34</ele>
        <time>2013-05-07T14:13:48Z</time>
      </trkpt>
      <trkpt lat="48.73421" lon="-3.44482">
        <ele>32.34</ele>
        <time>2013-05-07T14:13:49Z</time>
      </trkpt>
      <trkpt lat="48.73418" lon="-3.44477">
        <ele>32.34</ele>
        <time>2013-05-07T14:13:50Z</time>
      </trkpt>
      <trkpt lat="48.73415" lon="-3.44472">
        <ele>32.82</ele>
        <time>2013-05-07T14:13:51Z</time>
      </trkpt>
      <trkpt lat="48.73412" lon="-3.44467">
        <ele>32.34</ele>
        <time>2013-05-07T14:13:52Z</time>
      </trkpt>
      <trkpt lat="48.73411" lon="-3.4446">
        <ele>32.82</ele>
        <time>2013-05-07T14:13:53Z</time>
      </trkpt>
      <trkpt lat="48.7341" lon="-3.44454">
        <ele>32.34</ele>
        <time>2013-05-07T14:13:54Z</time>
      </trkpt>
      <trkpt lat="48.73395" lon="-3.44348">
        <ele>32.34</ele>
        <time>2013-05-07T14:14:08Z</time>
      </trkpt>
      <trkpt lat="48.7339" lon="-3.443">
        <ele>32.34</ele>
        <time>2013-05-07T14:14:14Z</time>
      </trkpt>
      <trkpt lat="48.73389" lon="-3.44291">
        <ele>32.34</ele>
        <time>2013-05-07T14:14:15Z</time>
      </trkpt>
      <trkpt lat="48.73387" lon="-3.44275">
        <ele>32.34</ele>
        <time>2013-05-07T14:14:17Z</time>
      </trkpt>
      <trkpt lat="48.73385" lon="-3.44189">
        <ele>32.82</ele>
        <time>2013-05-07T14:14:28Z</time>
      </trkpt>
      <trkpt lat="48.73389" lon="-3.44165">
        <ele>35.23</ele>
        <time>2013-05-07T14:14:31Z</time>
      </trkpt>
      <trkpt lat="48.73393" lon="-3.44143">
        <ele>32.82</ele>
        <time>2013-05-07T14:14:34Z</time>
      </trkpt>
      <trkpt lat="48.73406" lon="-3.44058">
        <ele>34.74</ele>
        <time>2013-05-07T14:14:46Z</time>
      </trkpt>
      <trkpt lat="48.73406" lon="-3.44051">
        <ele>35.23</ele>
        <time>2013-05-07T14:14:47Z</time>
      </trkpt>
      <trkpt lat="48.73405" lon="-3.44037">
        <ele>35.71</ele>
        <time>2013-05-07T14:14:49Z</time>
      </trkpt>
      <trkpt lat="48.73407" lon="-3.44032">
        <ele>36.19</ele>
        <time>2013-05-07T14:14:50Z</time>
      </trkpt>
      <trkpt lat="48.73408" lon="-3.44027">
        <ele>36.67</ele>
        <time>2013-05-07T14:14:51Z</time>
      </trkpt>
      <trkpt lat="48.73411" lon="-3.44021">
        <ele>36.67</ele>
        <time>2013-05-07T14:14:52Z</time>
      </trkpt>
      <trkpt lat="48.73414" lon="-3.44015">
        <ele>36.19</ele>
        <time>2013-05-07T14:14:53Z</time>
      </trkpt>
      <trkpt lat="48.73417" lon="-3.44009">
        <ele>36.67</ele>
        <time>2013-05-07T14:14:54Z</time>
      </trkpt>
      <trkpt lat="48.73418" lon="-3.44003">
        <ele>36.67</ele>
        <time>2013-05-07T14:14:55Z</time>
      </trkpt>
      <trkpt lat="48.7342" lon="-3.43996">
        <ele>37.15</ele>
        <time>2013-05-07T14:14:56Z</time>
      </trkpt>
      <trkpt lat="48.73424" lon="-3.4397">
        <ele>39.07</ele>
        <time>2013-05-07T14:15:00Z</time>
      </trkpt>
      <trkpt lat="48.73432" lon="-3.43885">
        <ele>39.55</ele>
        <time>2013-05-07T14:15:14Z</time>
      </trkpt>
      <trkpt lat="48.73444" lon="-3.43855">
        <ele>40.51</ele>
        <time>2013-05-07T14:15:21Z</time>
      </trkpt>
      <trkpt lat="48.73448" lon="-3.4385">
        <ele>40.99</ele>
        <time>2013-05-07T14:15:24Z</time>
      </trkpt>
      <trkpt lat="48.73449" lon="-3.43847">
        <ele>40.99</ele>
        <time>2013-05-07T14:15:25Z</time>
      </trkpt>
      <trkpt lat="48.73451" lon="-3.43843">
        <ele>40.99</ele>
        <time>2013-05-07T14:15:26Z</time>
      </trkpt>
      <trkpt lat="48.73453" lon="-3.43839">
        <ele>41.47</ele>
        <time>2013-05-07T14:15:27Z</time>
      </trkpt>
      <trkpt lat="48.73455" lon="-3.43834">
        <ele>41.47</ele>
        <time>2013-05-07T14:15:28Z</time>
      </trkpt>
      <trkpt lat="48.73485" lon="-3.43766">
        <ele>43.4</ele>
        <time>2013-05-07T14:15:42Z</time>
      </trkpt>
      <trkpt lat="48.73495" lon="-3.43744">
        <ele>43.4</ele>
        <time>2013-05-07T14:15:53Z</time>
      </trkpt>
      <trkpt lat="48.73496" lon="-3.43742">
        <ele>43.4</ele>
        <time>2013-05-07T14:15:56Z</time>
      </trkpt>
      <trkpt lat="48.73496" lon="-3.43738">
        <ele>44.36</ele>
        <time>2013-05-07T14:15:57Z</time>
      </trkpt>
      <trkpt lat="48.73496" lon="-3.43732">
        <ele>44.84</ele>
        <time>2013-05-07T14:15:58Z</time>
      </trkpt>
      <trkpt lat="48.73496" lon="-3.43724">
        <ele>44.84</ele>
        <time>2013-05-07T14:15:59Z</time>
      </trkpt>
      <trkpt lat="48.73495" lon="-3.43717">
        <ele>45.32</ele>
        <time>2013-05-07T14:16:00Z</time>
      </trkpt>
      <trkpt lat="48.73493" lon="-3.43709">
        <ele>45.8</ele>
        <time>2013-05-07T14:16:01Z</time>
      </trkpt>
      <trkpt lat="48.73492" lon="-3.43695">
        <ele>45.32</ele>
        <time>2013-05-07T14:16:03Z</time>
      </trkpt>
      <trkpt lat="48.73492" lon="-3.43687">
        <ele>45.32</ele>
        <time>2013-05-07T14:16:04Z</time>
      </trkpt>
      <trkpt lat="48.73493" lon="-3.43681">
        <ele>45.32</ele>
        <time>2013-05-07T14:16:05Z</time>
      </trkpt>
      <trkpt lat="48.73495" lon="-3.43674">
        <ele>45.32</ele>
        <time>2013-05-07T14:16:06Z</time>
      </trkpt>
      <trkpt lat="48.73498" lon="-3.43668">
        <ele>44.84</ele>
        <time>2013-05-07T14:16:07Z</time>
      </trkpt>
      <trkpt lat="48.73502" lon="-3.43654">
        <ele>44.84</ele>
        <time>2013-05-07T14:16:09Z</time>
      </trkpt>
      <trkpt lat="48.73503" lon="-3.43646">
        <ele>44.84</ele>
        <time>2013-05-07T14:16:10Z</time>
      </trkpt>
      <trkpt lat="48.73502" lon="-3.43638">
        <ele>45.32</ele>
        <time>2013-05-07T14:16:11Z</time>
      </trkpt>
      <trkpt lat="48.73499" lon="-3.43633">
        <ele>46.28</ele>
        <time>2013-05-07T14:16:12Z</time>
      </trkpt>
      <trkpt lat="48.73495" lon="-3.4363">
        <ele>46.28</ele>
        <time>2013-05-07T14:16:13Z</time>
      </trkpt>
      <trkpt lat="48.7349" lon="-3.43628">
        <ele>46.76</ele>
        <time>2013-05-07T14:16:14Z</time>
      </trkpt>
      <trkpt lat="48.73486" lon="-3.43627">
        <ele>46.28</ele>
        <time>2013-05-07T14:16:15Z</time>
      </trkpt>
      <trkpt lat="48.73481" lon="-3.43627">
        <ele>46.28</ele>
        <time>2013-05-07T14:16:16Z</time>
      </trkpt>
      <trkpt lat="48.73472" lon="-3.43625">
        <ele>46.76</ele>
        <time>2013-05-07T14:16:18Z</time>
      </trkpt>
      <trkpt lat="48.73468" lon="-3.43622">
        <ele>46.76</ele>
        <time>2013-05-07T14:16:19Z</time>
      </trkpt>
      <trkpt lat="48.73464" lon="-3.43619">
        <ele>47.24</ele>
        <time>2013-05-07T14:16:20Z</time>
      </trkpt>
      <trkpt lat="48.7346" lon="-3.43616">
        <ele>47.24</ele>
        <time>2013-05-07T14:16:21Z</time>
      </trkpt>
      <trkpt lat="48.73456" lon="-3.43612">
        <ele>47.24</ele>
        <time>2013-05-07T14:16:22Z</time>
      </trkpt>
      <trkpt lat="48.73453" lon="-3.43608">
        <ele>47.24</ele>
        <time>2013-05-07T14:16:23Z</time>
      </trkpt>
      <trkpt lat="48.73421" lon="-3.4355">
        <ele>48.68</ele>
        <time>2013-05-07T14:16:35Z</time>
      </trkpt>
      <trkpt lat="48.73416" lon="-3.43525">
        <ele>48.68</ele>
        <time>2013-05-07T14:16:39Z</time>
      </trkpt>
      <trkpt lat="48.73403" lon="-3.43397">
        <ele>50.61</ele>
        <time>2013-05-07T14:16:57Z</time>
      </trkpt>
      <trkpt lat="48.73396" lon="-3.43337">
        <ele>52.53</ele>
        <time>2013-05-07T14:17:06Z</time>
      </trkpt>
      <trkpt lat="48.73395" lon="-3.43331">
        <ele>52.53</ele>
        <time>2013-05-07T14:17:07Z</time>
      </trkpt>
      <trkpt lat="48.73393" lon="-3.43326">
        <ele>53.01</ele>
        <time>2013-05-07T14:17:08Z</time>
      </trkpt>
      <trkpt lat="48.73391" lon="-3.4332">
        <ele>53.49</ele>
        <time>2013-05-07T14:17:09Z</time>
      </trkpt>
      <trkpt lat="48.7339" lon="-3.43314">
        <ele>53.49</ele>
        <time>2013-05-07T14:17:10Z</time>
      </trkpt>
      <trkpt lat="48.73389" lon="-3.43308">
        <ele>53.49</ele>
        <time>2013-05-07T14:17:11Z</time>
      </trkpt>
      <trkpt lat="48.73389" lon="-3.43302">
        <ele>53.49</ele>
        <time>2013-05-07T14:17:12Z</time>
      </trkpt>
      <trkpt lat="48.7339" lon="-3.43296">
        <ele>53.97</ele>
        <time>2013-05-07T14:17:13Z</time>
      </trkpt>
      <trkpt lat="48.7339" lon="-3.4329">
        <ele>53.97</ele>
        <time>2013-05-07T14:17:14Z</time>
      </trkpt>
      <trkpt lat="48.7339" lon="-3.43284">
        <ele>54.45</ele>
        <time>2013-05-07T14:17:15Z</time>
      </trkpt>
      <trkpt lat="48.73389" lon="-3.43278">
        <ele>54.45</ele>
        <time>2013-05-07T14:17:16Z</time>
      </trkpt>
      <trkpt lat="48.73383" lon="-3.43194">
        <ele>57.34</ele>
        <time>2013-05-07T14:17:30Z</time>
      </trkpt>
      <trkpt lat="48.73382" lon="-3.43175">
        <ele>57.82</ele>
        <time>2013-05-07T14:17:33Z</time>
      </trkpt>
      <trkpt lat="48.73381" lon="-3.43101">
        <ele>59.74</ele>
        <time>2013-05-07T14:17:45Z</time>
      </trkpt>
      <trkpt lat="48.73383" lon="-3.43016">
        <ele>60.7</ele>
        <time>2013-05-07T14:17:57Z</time>
      </trkpt>
      <trkpt lat="48.73375" lon="-3.42965">
        <ele>61.18</ele>
        <time>2013-05-07T14:18:05Z</time>
      </trkpt>
      <trkpt lat="48.73353" lon="-3.42859">
        <ele>60.7</ele>
        <time>2013-05-07T14:18:19Z</time>
      </trkpt>
      <trkpt lat="48.73348" lon="-3.42808">
        <ele>60.22</ele>
        <time>2013-05-07T14:18:24Z</time>
      </trkpt>
      <trkpt lat="48.73331" lon="-3.42667">
        <ele>58.78</ele>
        <time>2013-05-07T14:18:38Z</time>
      </trkpt>
      <trkpt lat="48.73317" lon="-3.42534">
        <ele>60.22</ele>
        <time>2013-05-07T14:18:52Z</time>
      </trkpt>
      <trkpt lat="48.73317" lon="-3.42388">
        <ele>61.18</ele>
        <time>2013-05-07T14:19:07Z</time>
      </trkpt>
      <trkpt lat="48.73321" lon="-3.42276">
        <ele>60.7</ele>
        <time>2013-05-07T14:19:17Z</time>
      </trkpt>
      <trkpt lat="48.73325" lon="-3.42197">
        <ele>59.74</ele>
        <time>2013-05-07T14:19:24Z</time>
      </trkpt>
      <trkpt lat="48.73326" lon="-3.42186">
        <ele>59.26</ele>
        <time>2013-05-07T14:19:25Z</time>
      </trkpt>
      <trkpt lat="48.73328" lon="-3.42175">
        <ele>59.26</ele>
        <time>2013-05-07T14:19:26Z</time>
      </trkpt>
      <trkpt lat="48.73338" lon="-3.42131">
        <ele>58.3</ele>
        <time>2013-05-07T14:19:30Z</time>
      </trkpt>
      <trkpt lat="48.73348" lon="-3.42084">
        <ele>56.86</ele>
        <time>2013-05-07T14:19:34Z</time>
      </trkpt>
      <trkpt lat="48.7335" lon="-3.42071">
        <ele>56.86</ele>
        <time>2013-05-07T14:19:35Z</time>
      </trkpt>
      <trkpt lat="48.73351" lon="-3.42033">
        <ele>56.37</ele>
        <time>2013-05-07T14:19:38Z</time>
      </trkpt>
      <trkpt lat="48.7335" lon="-3.42021">
        <ele>55.89</ele>
        <time>2013-05-07T14:19:39Z</time>
      </trkpt>
      <trkpt lat="48.73347" lon="-3.4201">
        <ele>55.89</ele>
        <time>2013-05-07T14:19:40Z</time>
      </trkpt>
      <trkpt lat="48.73344" lon="-3.41999">
        <ele>55.89</ele>
        <time>2013-05-07T14:19:41Z</time>
      </trkpt>
      <trkpt lat="48.7334" lon="-3.4199">
        <ele>55.41</ele>
        <time>2013-05-07T14:19:42Z</time>
      </trkpt>
      <trkpt lat="48.73335" lon="-3.41983">
        <ele>55.89</ele>
        <time>2013-05-07T14:19:43Z</time>
      </trkpt>
      <trkpt lat="48.7333" lon="-3.41975">
        <ele>55.89</ele>
        <time>2013-05-07T14:19:44Z</time>
      </trkpt>
      <trkpt lat="48.73325" lon="-3.41969">
        <ele>56.37</ele>
        <time>2013-05-07T14:19:45Z</time>
      </trkpt>
      <trkpt lat="48.73296" lon="-3.41941">
        <ele>57.82</ele>
        <time>2013-05-07T14:19:52Z</time>
      </trkpt>
      <trkpt lat="48.73283" lon="-3.41927">
        <ele>58.78</ele>
        <time>2013-05-07T14:19:56Z</time>
      </trkpt>
      <trkpt lat="48.73267" lon="-3.41895">
        <ele>60.7</ele>
        <time>2013-05-07T14:20:02Z</time>
      </trkpt>
      <trkpt lat="48.73265" lon="-3.4189">
        <ele>61.18</ele>
        <time>2013-05-07T14:20:03Z</time>
      </trkpt>
      <trkpt lat="48.73241" lon="-3.41832">
        <ele>63.1</ele>
        <time>2013-05-07T14:20:13Z</time>
      </trkpt>
      <trkpt lat="48.73222" lon="-3.41719">
        <ele>64.07</ele>
        <time>2013-05-07T14:20:28Z</time>
      </trkpt>
      <trkpt lat="48.73206" lon="-3.41637">
        <ele>65.51</ele>
        <time>2013-05-07T14:20:40Z</time>
      </trkpt>
      <trkpt lat="48.73207" lon="-3.41538">
        <ele>68.39</ele>
        <time>2013-05-07T14:20:53Z</time>
      </trkpt>
      <trkpt lat="48.7321" lon="-3.41467">
        <ele>69.35</ele>
        <time>2013-05-07T14:21:04Z</time>
      </trkpt>
      <trkpt lat="48.73212" lon="-3.41323">
        <ele>68.87</ele>
        <time>2013-05-07T14:21:22Z</time>
      </trkpt>
      <trkpt lat="48.732" lon="-3.41167">
        <ele>71.27</ele>
        <time>2013-05-07T14:21:41Z</time>
      </trkpt>
      <trkpt lat="48.7318" lon="-3.41029">
        <ele>73.68</ele>
        <time>2013-05-07T14:21:59Z</time>
      </trkpt>
      <trkpt lat="48.73156" lon="-3.40919">
        <ele>71.76</ele>
        <time>2013-05-07T14:22:14Z</time>
      </trkpt>
      <trkpt lat="48.7314" lon="-3.40853">
        <ele>71.76</ele>
        <time>2013-05-07T14:22:22Z</time>
      </trkpt>
      <trkpt lat="48.73124" lon="-3.40773">
        <ele>71.27</ele>
        <time>2013-05-07T14:22:32Z</time>
      </trkpt>
      <trkpt lat="48.73085" lon="-3.40657">
        <ele>73.68</ele>
        <time>2013-05-07T14:22:49Z</time>
      </trkpt>
      <trkpt lat="48.73052" lon="-3.40547">
        <ele>75.12</ele>
        <time>2013-05-07T14:23:05Z</time>
      </trkpt>
      <trkpt lat="48.73044" lon="-3.40437">
        <ele>76.08</ele>
        <time>2013-05-07T14:23:19Z</time>
      </trkpt>
      <trkpt lat="48.73015" lon="-3.40336">
        <ele>75.12</ele>
        <time>2013-05-07T14:23:32Z</time>
      </trkpt>
      <trkpt lat="48.73002" lon="-3.40213">
        <ele>74.64</ele>
        <time>2013-05-07T14:23:45Z</time>
      </trkpt>
      <trkpt lat="48.72986" lon="-3.40154">
        <ele>76.08</ele>
        <time>2013-05-07T14:23:53Z</time>
      </trkpt>
      <trkpt lat="48.72984" lon="-3.40147">
        <ele>76.08</ele>
        <time>2013-05-07T14:23:54Z</time>
      </trkpt>
      <trkpt lat="48.72971" lon="-3.40036">
        <ele>77.04</ele>
        <time>2013-05-07T14:24:08Z</time>
      </trkpt>
      <trkpt lat="48.72932" lon="-3.39904">
        <ele>78.97</ele>
        <time>2013-05-07T14:24:26Z</time>
      </trkpt>
      <trkpt lat="48.7288" lon="-3.39786">
        <ele>78.97</ele>
        <time>2013-05-07T14:24:44Z</time>
      </trkpt>
      <trkpt lat="48.72838" lon="-3.3968">
        <ele>79.93</ele>
        <time>2013-05-07T14:25:00Z</time>
      </trkpt>
      <trkpt lat="48.72826" lon="-3.39553">
        <ele>79.93</ele>
        <time>2013-05-07T14:25:16Z</time>
      </trkpt>
      <trkpt lat="48.72837" lon="-3.39387">
        <ele>78</ele>
        <time>2013-05-07T14:25:34Z</time>
      </trkpt>
      <trkpt lat="48.72836" lon="-3.39254">
        <ele>77.52</ele>
        <time>2013-05-07T14:25:49Z</time>
      </trkpt>
      <trkpt lat="48.72842" lon="-3.39133">
        <ele>77.52</ele>
        <time>2013-05-07T14:26:03Z</time>
      </trkpt>
      <trkpt lat="48.72861" lon="-3.38972">
        <ele>76.08</ele>
        <time>2013-05-07T14:26:19Z</time>
      </trkpt>
      <trkpt lat="48.72888" lon="-3.38802">
        <ele>74.16</ele>
        <time>2013-05-07T14:26:35Z</time>
      </trkpt>
      <trkpt lat="48.72919" lon="-3.38711">
        <ele>73.68</ele>
        <time>2013-05-07T14:26:45Z</time>
      </trkpt>
      <trkpt lat="48.72921" lon="-3.38701">
        <ele>73.2</ele>
        <time>2013-05-07T14:26:46Z</time>
      </trkpt>
      <trkpt lat="48.72922" lon="-3.38691">
        <ele>73.2</ele>
        <time>2013-05-07T14:26:47Z</time>
      </trkpt>
      <trkpt lat="48.72922" lon="-3.38681">
        <ele>73.2</ele>
        <time>2013-05-07T14:26:48Z</time>
      </trkpt>
      <trkpt lat="48.72921" lon="-3.38671">
        <ele>73.2</ele>
        <time>2013-05-07T14:26:49Z</time>
      </trkpt>
      <trkpt lat="48.72917" lon="-3.38595">
        <ele>75.12</ele>
        <time>2013-05-07T14:26:58Z</time>
      </trkpt>
      <trkpt lat="48.72913" lon="-3.38572">
        <ele>76.08</ele>
        <time>2013-05-07T14:27:01Z</time>
      </trkpt>
      <trkpt lat="48.7291" lon="-3.38566">
        <ele>75.6</ele>
        <time>2013-05-07T14:27:02Z</time>
      </trkpt>
      <trkpt lat="48.729" lon="-3.3855">
        <ele>76.56</ele>
        <time>2013-05-07T14:27:05Z</time>
      </trkpt>
      <trkpt lat="48.72896" lon="-3.38547">
        <ele>76.56</ele>
        <time>2013-05-07T14:27:06Z</time>
      </trkpt>
      <trkpt lat="48.72889" lon="-3.38551">
        <ele>75.6</ele>
        <time>2013-05-07T14:27:07Z</time>
      </trkpt>
      <trkpt lat="48.72807" lon="-3.38591">
        <ele>76.08</ele>
        <time>2013-05-07T14:27:22Z</time>
      </trkpt>
      <trkpt lat="48.72802" lon="-3.38595">
        <ele>75.6</ele>
        <time>2013-05-07T14:27:23Z</time>
      </trkpt>
      <trkpt lat="48.72798" lon="-3.38599">
        <ele>75.6</ele>
        <time>2013-05-07T14:27:24Z</time>
      </trkpt>
      <trkpt lat="48.72793" lon="-3.38604">
        <ele>76.08</ele>
        <time>2013-05-07T14:27:25Z</time>
      </trkpt>
      <trkpt lat="48.72789" lon="-3.3861">
        <ele>76.08</ele>
        <time>2013-05-07T14:27:26Z</time>
      </trkpt>
      <trkpt lat="48.72723" lon="-3.38711">
        <ele>78.48</ele>
        <time>2013-05-07T14:27:44Z</time>
      </trkpt>
      <trkpt lat="48.72678" lon="-3.38828">
        <ele>78.97</ele>
        <time>2013-05-07T14:28:01Z</time>
      </trkpt>
      <trkpt lat="48.72664" lon="-3.38872">
        <ele>79.45</ele>
        <time>2013-05-07T14:28:07Z</time>
      </trkpt>
      <trkpt lat="48.72609" lon="-3.39006">
        <ele>79.93</ele>
        <time>2013-05-07T14:28:26Z</time>
      </trkpt>
      <trkpt lat="48.72542" lon="-3.39131">
        <ele>79.93</ele>
        <time>2013-05-07T14:28:45Z</time>
      </trkpt>
      <trkpt lat="48.72517" lon="-3.39176">
        <ele>80.41</ele>
        <time>2013-05-07T14:28:52Z</time>
      </trkpt>
      <trkpt lat="48.72443" lon="-3.39344">
        <ele>80.89</ele>
        <time>2013-05-07T14:29:15Z</time>
      </trkpt>
      <trkpt lat="48.7237" lon="-3.39452">
        <ele>78.97</ele>
        <time>2013-05-07T14:29:32Z</time>
      </trkpt>
      <trkpt lat="48.72309" lon="-3.3955">
        <ele>75.6</ele>
        <time>2013-05-07T14:29:47Z</time>
      </trkpt>
      <trkpt lat="48.72285" lon="-3.39598">
        <ele>75.6</ele>
        <time>2013-05-07T14:29:53Z</time>
      </trkpt>
      <trkpt lat="48.7228" lon="-3.39604">
        <ele>75.6</ele>
        <time>2013-05-07T14:29:54Z</time>
      </trkpt>
      <trkpt lat="48.72274" lon="-3.3961">
        <ele>75.6</ele>
        <time>2013-05-07T14:29:55Z</time>
      </trkpt>
      <trkpt lat="48.72199" lon="-3.39668">
        <ele>73.68</ele>
        <time>2013-05-07T14:30:07Z</time>
      </trkpt>
      <trkpt lat="48.72108" lon="-3.39723">
        <ele>73.2</ele>
        <time>2013-05-07T14:30:21Z</time>
      </trkpt>
      <trkpt lat="48.71996" lon="-3.39789">
        <ele>72.24</ele>
        <time>2013-05-07T14:30:40Z</time>
      </trkpt>
      <trkpt lat="48.71916" lon="-3.398">
        <ele>71.27</ele>
        <time>2013-05-07T14:30:53Z</time>
      </trkpt>
      <trkpt lat="48.71835" lon="-3.39789">
        <ele>67.91</ele>
        <time>2013-05-07T14:31:03Z</time>
      </trkpt>
      <trkpt lat="48.71759" lon="-3.39752">
        <ele>66.47</ele>
        <time>2013-05-07T14:31:13Z</time>
      </trkpt>
      <trkpt lat="48.71745" lon="-3.39746">
        <ele>66.47</ele>
        <time>2013-05-07T14:31:15Z</time>
      </trkpt>
      <trkpt lat="48.71738" lon="-3.39744">
        <ele>66.47</ele>
        <time>2013-05-07T14:31:16Z</time>
      </trkpt>
      <trkpt lat="48.71702" lon="-3.39746">
        <ele>64.55</ele>
        <time>2013-05-07T14:31:21Z</time>
      </trkpt>
      <trkpt lat="48.71688" lon="-3.39753">
        <ele>64.55</ele>
        <time>2013-05-07T14:31:23Z</time>
      </trkpt>
      <trkpt lat="48.71681" lon="-3.39757">
        <ele>64.07</ele>
        <time>2013-05-07T14:31:24Z</time>
      </trkpt>
      <trkpt lat="48.7161" lon="-3.39799">
        <ele>66.47</ele>
        <time>2013-05-07T14:31:37Z</time>
      </trkpt>
      <trkpt lat="48.71576" lon="-3.39806">
        <ele>68.39</ele>
        <time>2013-05-07T14:31:44Z</time>
      </trkpt>
      <trkpt lat="48.71571" lon="-3.39806">
        <ele>68.39</ele>
        <time>2013-05-07T14:31:45Z</time>
      </trkpt>
      <trkpt lat="48.71566" lon="-3.39806">
        <ele>68.39</ele>
        <time>2013-05-07T14:31:46Z</time>
      </trkpt>
      <trkpt lat="48.71561" lon="-3.39807">
        <ele>68.87</ele>
        <time>2013-05-07T14:31:47Z</time>
      </trkpt>
      <trkpt lat="48.71556" lon="-3.3981">
        <ele>69.35</ele>
        <time>2013-05-07T14:31:48Z</time>
      </trkpt>
      <trkpt lat="48.71551" lon="-3.39813">
        <ele>68.87</ele>
        <time>2013-05-07T14:31:49Z</time>
      </trkpt>
      <trkpt lat="48.71547" lon="-3.39817">
        <ele>68.87</ele>
        <time>2013-05-07T14:31:50Z</time>
      </trkpt>
      <trkpt lat="48.71511" lon="-3.39852">
        <ele>67.91</ele>
        <time>2013-05-07T14:31:58Z</time>
      </trkpt>
      <trkpt lat="48.71503" lon="-3.39864">
        <ele>68.39</ele>
        <time>2013-05-07T14:32:00Z</time>
      </trkpt>
      <trkpt lat="48.71498" lon="-3.39868">
        <ele>68.39</ele>
        <time>2013-05-07T14:32:01Z</time>
      </trkpt>
      <trkpt lat="48.71493" lon="-3.39869">
        <ele>68.87</ele>
        <time>2013-05-07T14:32:02Z</time>
      </trkpt>
      <trkpt lat="48.71487" lon="-3.39869">
        <ele>67.91</ele>
        <time>2013-05-07T14:32:03Z</time>
      </trkpt>
      <trkpt lat="48.71482" lon="-3.39868">
        <ele>67.91</ele>
        <time>2013-05-07T14:32:04Z</time>
      </trkpt>
      <trkpt lat="48.71476" lon="-3.39866">
        <ele>68.87</ele>
        <time>2013-05-07T14:32:05Z</time>
      </trkpt>
      <trkpt lat="48.7147" lon="-3.39866">
        <ele>68.39</ele>
        <time>2013-05-07T14:32:06Z</time>
      </trkpt>
      <trkpt lat="48.71464" lon="-3.39866">
        <ele>67.91</ele>
        <time>2013-05-07T14:32:07Z</time>
      </trkpt>
      <trkpt lat="48.71458" lon="-3.39867">
        <ele>67.43</ele>
        <time>2013-05-07T14:32:08Z</time>
      </trkpt>
      <trkpt lat="48.71351" lon="-3.39884">
        <ele>64.55</ele>
        <time>2013-05-07T14:32:24Z</time>
      </trkpt>
      <trkpt lat="48.71272" lon="-3.39892">
        <ele>65.51</ele>
        <time>2013-05-07T14:32:38Z</time>
      </trkpt>
      <trkpt lat="48.71251" lon="-3.39901">
        <ele>65.51</ele>
        <time>2013-05-07T14:32:42Z</time>
      </trkpt>
      <trkpt lat="48.71183" lon="-3.39973">
        <ele>66.95</ele>
        <time>2013-05-07T14:32:57Z</time>
      </trkpt>
      <trkpt lat="48.71146" lon="-3.40081">
        <ele>70.79</ele>
        <time>2013-05-07T14:33:11Z</time>
      </trkpt>
      <trkpt lat="48.71145" lon="-3.40089">
        <ele>70.79</ele>
        <time>2013-05-07T14:33:12Z</time>
      </trkpt>
      <trkpt lat="48.71141" lon="-3.40105">
        <ele>69.35</ele>
        <time>2013-05-07T14:33:14Z</time>
      </trkpt>
      <trkpt lat="48.71096" lon="-3.40205">
        <ele>71.27</ele>
        <time>2013-05-07T14:33:29Z</time>
      </trkpt>
      <trkpt lat="48.71025" lon="-3.40259">
        <ele>72.72</ele>
        <time>2013-05-07T14:33:44Z</time>
      </trkpt>
      <trkpt lat="48.70983" lon="-3.40267">
        <ele>76.08</ele>
        <time>2013-05-07T14:33:53Z</time>
      </trkpt>
      <trkpt lat="48.70911" lon="-3.40263">
        <ele>78</ele>
        <time>2013-05-07T14:34:08Z</time>
      </trkpt>
      <trkpt lat="48.70814" lon="-3.40246">
        <ele>80.41</ele>
        <time>2013-05-07T14:34:27Z</time>
      </trkpt>
      <trkpt lat="48.70724" lon="-3.4023">
        <ele>80.89</ele>
        <time>2013-05-07T14:34:45Z</time>
      </trkpt>
      <trkpt lat="48.70671" lon="-3.40212">
        <ele>81.37</ele>
        <time>2013-05-07T14:34:55Z</time>
      </trkpt>
      <trkpt lat="48.70598" lon="-3.40219">
        <ele>80.41</ele>
        <time>2013-05-07T14:35:08Z</time>
      </trkpt>
      <trkpt lat="48.70523" lon="-3.40243">
        <ele>79.45</ele>
        <time>2013-05-07T14:35:20Z</time>
      </trkpt>
      <trkpt lat="48.70427" lon="-3.40284">
        <ele>78.97</ele>
        <time>2013-05-07T14:35:36Z</time>
      </trkpt>
      <trkpt lat="48.70321" lon="-3.40286">
        <ele>78</ele>
        <time>2013-05-07T14:35:53Z</time>
      </trkpt>
      <trkpt lat="48.70233" lon="-3.40297">
        <ele>79.93</ele>
        <time>2013-05-07T14:36:08Z</time>
      </trkpt>
      <trkpt lat="48.70161" lon="-3.40318">
        <ele>83.77</ele>
        <time>2013-05-07T14:36:23Z</time>
      </trkpt>
      <trkpt lat="48.70086" lon="-3.40326">
        <ele>84.73</ele>
        <time>2013-05-07T14:36:38Z</time>
      </trkpt>
      <trkpt lat="48.69995" lon="-3.40336">
        <ele>86.66</ele>
        <time>2013-05-07T14:36:56Z</time>
      </trkpt>
      <trkpt lat="48.69917" lon="-3.40342">
        <ele>87.62</ele>
        <time>2013-05-07T14:37:11Z</time>
      </trkpt>
      <trkpt lat="48.69912" lon="-3.40343">
        <ele>87.62</ele>
        <time>2013-05-07T14:37:12Z</time>
      </trkpt>
      <trkpt lat="48.69832" lon="-3.40366">
        <ele>88.58</ele>
        <time>2013-05-07T14:37:28Z</time>
      </trkpt>
      <trkpt lat="48.69741" lon="-3.40405">
        <ele>87.14</ele>
        <time>2013-05-07T14:37:46Z</time>
      </trkpt>
      <trkpt lat="48.69697" lon="-3.40407">
        <ele>85.21</ele>
        <time>2013-05-07T14:37:53Z</time>
      </trkpt>
      <trkpt lat="48.69592" lon="-3.40413">
        <ele>82.81</ele>
        <time>2013-05-07T14:38:09Z</time>
      </trkpt>
      <trkpt lat="48.69519" lon="-3.40393">
        <ele>81.85</ele>
        <time>2013-05-07T14:38:21Z</time>
      </trkpt>
      <trkpt lat="48.69425" lon="-3.40381">
        <ele>80.89</ele>
        <time>2013-05-07T14:38:36Z</time>
      </trkpt>
      <trkpt lat="48.69353" lon="-3.40359">
        <ele>79.45</ele>
        <time>2013-05-07T14:38:48Z</time>
      </trkpt>
      <trkpt lat="48.69271" lon="-3.403">
        <ele>78</ele>
        <time>2013-05-07T14:39:01Z</time>
      </trkpt>
      <trkpt lat="48.69147" lon="-3.40187">
        <ele>75.6</ele>
        <time>2013-05-07T14:39:21Z</time>
      </trkpt>
      <trkpt lat="48.69053" lon="-3.40104">
        <ele>73.2</ele>
        <time>2013-05-07T14:39:37Z</time>
      </trkpt>
      <trkpt lat="48.68963" lon="-3.40048">
        <ele>72.24</ele>
        <time>2013-05-07T14:39:52Z</time>
      </trkpt>
      <trkpt lat="48.68863" lon="-3.40025">
        <ele>71.27</ele>
        <time>2013-05-07T14:40:09Z</time>
      </trkpt>
      <trkpt lat="48.68778" lon="-3.40005">
        <ele>72.24</ele>
        <time>2013-05-07T14:40:24Z</time>
      </trkpt>
      <trkpt lat="48.68664" lon="-3.39969">
        <ele>72.72</ele>
        <time>2013-05-07T14:40:43Z</time>
      </trkpt>
      <trkpt lat="48.6857" lon="-3.39955">
        <ele>72.24</ele>
        <time>2013-05-07T14:40:59Z</time>
      </trkpt>
      <trkpt lat="48.68465" lon="-3.3997">
        <ele>72.72</ele>
        <time>2013-05-07T14:41:17Z</time>
      </trkpt>
      <trkpt lat="48.68459" lon="-3.39968">
        <ele>72.72</ele>
        <time>2013-05-07T14:41:18Z</time>
      </trkpt>
      <trkpt lat="48.68454" lon="-3.39965">
        <ele>73.2</ele>
        <time>2013-05-07T14:41:19Z</time>
      </trkpt>
      <trkpt lat="48.68383" lon="-3.39912">
        <ele>74.64</ele>
        <time>2013-05-07T14:41:33Z</time>
      </trkpt>
      <trkpt lat="48.68293" lon="-3.39876">
        <ele>72.72</ele>
        <time>2013-05-07T14:41:49Z</time>
      </trkpt>
      <trkpt lat="48.68205" lon="-3.3982">
        <ele>71.76</ele>
        <time>2013-05-07T14:42:06Z</time>
      </trkpt>
      <trkpt lat="48.68129" lon="-3.39735">
        <ele>71.27</ele>
        <time>2013-05-07T14:42:23Z</time>
      </trkpt>
      <trkpt lat="48.68033" lon="-3.39653">
        <ele>73.2</ele>
        <time>2013-05-07T14:42:43Z</time>
      </trkpt>
      <trkpt lat="48.6796" lon="-3.39598">
        <ele>76.56</ele>
        <time>2013-05-07T14:42:59Z</time>
      </trkpt>
      <trkpt lat="48.67937" lon="-3.39592">
        <ele>77.52</ele>
        <time>2013-05-07T14:43:04Z</time>
      </trkpt>
      <trkpt lat="48.67862" lon="-3.39582">
        <ele>78.48</ele>
        <time>2013-05-07T14:43:18Z</time>
      </trkpt>
      <trkpt lat="48.67776" lon="-3.39573">
        <ele>78.48</ele>
        <time>2013-05-07T14:43:34Z</time>
      </trkpt>
      <trkpt lat="48.67676" lon="-3.39536">
        <ele>80.41</ele>
        <time>2013-05-07T14:43:53Z</time>
      </trkpt>
      <trkpt lat="48.67595" lon="-3.39487">
        <ele>80.89</ele>
        <time>2013-05-07T14:44:09Z</time>
      </trkpt>
      <trkpt lat="48.67517" lon="-3.39458">
        <ele>80.89</ele>
        <time>2013-05-07T14:44:23Z</time>
      </trkpt>
      <trkpt lat="48.67434" lon="-3.39423">
        <ele>82.33</ele>
        <time>2013-05-07T14:44:39Z</time>
      </trkpt>
      <trkpt lat="48.67333" lon="-3.39388">
        <ele>83.29</ele>
        <time>2013-05-07T14:44:58Z</time>
      </trkpt>
      <trkpt lat="48.67301" lon="-3.39394">
        <ele>83.29</ele>
        <time>2013-05-07T14:45:04Z</time>
      </trkpt>
      <trkpt lat="48.67249" lon="-3.39418">
        <ele>85.21</ele>
        <time>2013-05-07T14:45:14Z</time>
      </trkpt>
      <trkpt lat="48.67151" lon="-3.39436">
        <ele>87.14</ele>
        <time>2013-05-07T14:45:33Z</time>
      </trkpt>
      <trkpt lat="48.67135" lon="-3.39439">
        <ele>87.62</ele>
        <time>2013-05-07T14:45:36Z</time>
      </trkpt>
      <trkpt lat="48.67067" lon="-3.39455">
        <ele>87.62</ele>
        <time>2013-05-07T14:45:49Z</time>
      </trkpt>
      <trkpt lat="48.67061" lon="-3.39458">
        <ele>87.62</ele>
        <time>2013-05-07T14:45:50Z</time>
      </trkpt>
      <trkpt lat="48.67032" lon="-3.39483">
        <ele>87.14</ele>
        <time>2013-05-07T14:45:56Z</time>
      </trkpt>
      <trkpt lat="48.67021" lon="-3.39502">
        <ele>87.62</ele>
        <time>2013-05-07T14:45:59Z</time>
      </trkpt>
      <trkpt lat="48.66994" lon="-3.39586">
        <ele>89.06</ele>
        <time>2013-05-07T14:46:11Z</time>
      </trkpt>
      <trkpt lat="48.66988" lon="-3.39585">
        <ele>89.06</ele>
        <time>2013-05-07T14:46:12Z</time>
      </trkpt>
      <trkpt lat="48.66978" lon="-3.39581">
        <ele>89.06</ele>
        <time>2013-05-07T14:46:13Z</time>
      </trkpt>
      <trkpt lat="48.669" lon="-3.39612">
        <ele>90.02</ele>
        <time>2013-05-07T14:46:27Z</time>
      </trkpt>
      <trkpt lat="48.66884" lon="-3.39623">
        <ele>90.5</ele>
        <time>2013-05-07T14:46:30Z</time>
      </trkpt>
      <trkpt lat="48.66879" lon="-3.39629">
        <ele>90.5</ele>
        <time>2013-05-07T14:46:31Z</time>
      </trkpt>
      <trkpt lat="48.66876" lon="-3.39636">
        <ele>90.02</ele>
        <time>2013-05-07T14:46:32Z</time>
      </trkpt>
      <trkpt lat="48.66853" lon="-3.39691">
        <ele>90.98</ele>
        <time>2013-05-07T14:46:40Z</time>
      </trkpt>
      <trkpt lat="48.66841" lon="-3.39702">
        <ele>90.98</ele>
        <time>2013-05-07T14:46:43Z</time>
      </trkpt>
      <trkpt lat="48.66797" lon="-3.39718">
        <ele>92.42</ele>
        <time>2013-05-07T14:46:52Z</time>
      </trkpt>
      <trkpt lat="48.66782" lon="-3.3972">
        <ele>92.42</ele>
        <time>2013-05-07T14:46:55Z</time>
      </trkpt>
      <trkpt lat="48.66778" lon="-3.39721">
        <ele>92.9</ele>
        <time>2013-05-07T14:46:56Z</time>
      </trkpt>
      <trkpt lat="48.66773" lon="-3.39723">
        <ele>93.39</ele>
        <time>2013-05-07T14:46:57Z</time>
      </trkpt>
      <trkpt lat="48.66715" lon="-3.3974">
        <ele>94.83</ele>
        <time>2013-05-07T14:47:09Z</time>
      </trkpt>
      <trkpt lat="48.66664" lon="-3.39735">
        <ele>96.75</ele>
        <time>2013-05-07T14:47:19Z</time>
      </trkpt>
      <trkpt lat="48.66659" lon="-3.39734">
        <ele>97.23</ele>
        <time>2013-05-07T14:47:20Z</time>
      </trkpt>
      <trkpt lat="48.66625" lon="-3.39722">
        <ele>97.71</ele>
        <time>2013-05-07T14:47:27Z</time>
      </trkpt>
      <trkpt lat="48.6662" lon="-3.3972">
        <ele>98.19</ele>
        <time>2013-05-07T14:47:28Z</time>
      </trkpt>
      <trkpt lat="48.6655" lon="-3.39707">
        <ele>99.63</ele>
        <time>2013-05-07T14:47:41Z</time>
      </trkpt>
      <trkpt lat="48.66477" lon="-3.39703">
        <ele>100.6</ele>
        <time>2013-05-07T14:47:55Z</time>
      </trkpt>
      <trkpt lat="48.6643" lon="-3.39715">
        <ele>101.56</ele>
        <time>2013-05-07T14:48:04Z</time>
      </trkpt>
      <trkpt lat="48.66338" lon="-3.39692">
        <ele>102.04</ele>
        <time>2013-05-07T14:48:20Z</time>
      </trkpt>
      <trkpt lat="48.6624" lon="-3.39655">
        <ele>101.08</ele>
        <time>2013-05-07T14:48:36Z</time>
      </trkpt>
      <trkpt lat="48.6614" lon="-3.39613">
        <ele>101.08</ele>
        <time>2013-05-07T14:48:49Z</time>
      </trkpt>
      <trkpt lat="48.6602" lon="-3.39571">
        <ele>101.08</ele>
        <time>2013-05-07T14:49:02Z</time>
      </trkpt>
      <trkpt lat="48.65917" lon="-3.39523">
        <ele>100.6</ele>
        <time>2013-05-07T14:49:15Z</time>
      </trkpt>
      <trkpt lat="48.65826" lon="-3.39491">
        <ele>100.6</ele>
        <time>2013-05-07T14:49:29Z</time>
      </trkpt>
      <trkpt lat="48.65738" lon="-3.39478">
        <ele>101.08</ele>
        <time>2013-05-07T14:49:43Z</time>
      </trkpt>
      <trkpt lat="48.65637" lon="-3.39482">
        <ele>100.6</ele>
        <time>2013-05-07T14:49:59Z</time>
      </trkpt>
      <trkpt lat="48.65553" lon="-3.3947">
        <ele>100.11</ele>
        <time>2013-05-07T14:50:13Z</time>
      </trkpt>
      <trkpt lat="48.65482" lon="-3.395">
        <ele>100.6</ele>
        <time>2013-05-07T14:50:25Z</time>
      </trkpt>
      <trkpt lat="48.65476" lon="-3.395">
        <ele>101.08</ele>
        <time>2013-05-07T14:50:26Z</time>
      </trkpt>
      <trkpt lat="48.65392" lon="-3.39493">
        <ele>101.56</ele>
        <time>2013-05-07T14:50:40Z</time>
      </trkpt>
      <trkpt lat="48.65281" lon="-3.39469">
        <ele>101.56</ele>
        <time>2013-05-07T14:50:59Z</time>
      </trkpt>
      <trkpt lat="48.65156" lon="-3.39438">
        <ele>101.56</ele>
        <time>2013-05-07T14:51:20Z</time>
      </trkpt>
      <trkpt lat="48.65068" lon="-3.39416">
        <ele>103</ele>
        <time>2013-05-07T14:51:36Z</time>
      </trkpt>
      <trkpt lat="48.6501" lon="-3.3941">
        <ele>103</ele>
        <time>2013-05-07T14:51:48Z</time>
      </trkpt>
      <trkpt lat="48.65005" lon="-3.39408">
        <ele>103</ele>
        <time>2013-05-07T14:51:49Z</time>
      </trkpt>
      <trkpt lat="48.65001" lon="-3.39406">
        <ele>103</ele>
        <time>2013-05-07T14:51:50Z</time>
      </trkpt>
      <trkpt lat="48.64999" lon="-3.39403">
        <ele>102.52</ele>
        <time>2013-05-07T14:51:51Z</time>
      </trkpt>
      <trkpt lat="48.64998" lon="-3.39401">
        <ele>102.52</ele>
        <time>2013-05-07T14:51:52Z</time>
      </trkpt>
      <trkpt lat="48.64997" lon="-3.39398">
        <ele>102.52</ele>
        <time>2013-05-07T14:51:56Z</time>
      </trkpt>
      <trkpt lat="48.64996" lon="-3.39397">
        <ele>102.52</ele>
        <time>2013-05-07T14:51:57Z</time>
      </trkpt>
      <trkpt lat="48.64994" lon="-3.39392">
        <ele>103</ele>
        <time>2013-05-07T14:51:59Z</time>
      </trkpt>
      <trkpt lat="48.64994" lon="-3.39376">
        <ele>103</ele>
        <time>2013-05-07T14:52:02Z</time>
      </trkpt>
      <trkpt lat="48.64996" lon="-3.3937">
        <ele>103</ele>
        <time>2013-05-07T14:52:03Z</time>
      </trkpt>
      <trkpt lat="48.64997" lon="-3.39363">
        <ele>103</ele>
        <time>2013-05-07T14:52:04Z</time>
      </trkpt>
      <trkpt lat="48.64998" lon="-3.39355">
        <ele>103.48</ele>
        <time>2013-05-07T14:52:05Z</time>
      </trkpt>
      <trkpt lat="48.64999" lon="-3.39348">
        <ele>103.48</ele>
        <time>2013-05-07T14:52:06Z</time>
      </trkpt>
      <trkpt lat="48.65007" lon="-3.39271">
        <ele>103.48</ele>
        <time>2013-05-07T14:52:15Z</time>
      </trkpt>
      <trkpt lat="48.65027" lon="-3.39118">
        <ele>103.48</ele>
        <time>2013-05-07T14:52:32Z</time>
      </trkpt>
      <trkpt lat="48.65025" lon="-3.38976">
        <ele>103.48</ele>
        <time>2013-05-07T14:52:47Z</time>
      </trkpt>
      <trkpt lat="48.65016" lon="-3.38941">
        <ele>103.96</ele>
        <time>2013-05-07T14:52:51Z</time>
      </trkpt>
      <trkpt lat="48.65012" lon="-3.38934">
        <ele>104.44</ele>
        <time>2013-05-07T14:52:52Z</time>
      </trkpt>
      <trkpt lat="48.65008" lon="-3.38927">
        <ele>104.44</ele>
        <time>2013-05-07T14:52:53Z</time>
      </trkpt>
      <trkpt lat="48.65004" lon="-3.3892">
        <ele>104.44</ele>
        <time>2013-05-07T14:52:54Z</time>
      </trkpt>
      <trkpt lat="48.64999" lon="-3.38914">
        <ele>104.92</ele>
        <time>2013-05-07T14:52:55Z</time>
      </trkpt>
      <trkpt lat="48.64994" lon="-3.38909">
        <ele>104.92</ele>
        <time>2013-05-07T14:52:56Z</time>
      </trkpt>
      <trkpt lat="48.64988" lon="-3.38905">
        <ele>104.44</ele>
        <time>2013-05-07T14:52:57Z</time>
      </trkpt>
      <trkpt lat="48.64876" lon="-3.38823">
        <ele>105.4</ele>
        <time>2013-05-07T14:53:18Z</time>
      </trkpt>
      <trkpt lat="48.64851" lon="-3.38804">
        <ele>104.44</ele>
        <time>2013-05-07T14:53:23Z</time>
      </trkpt>
      <trkpt lat="48.64842" lon="-3.38794">
        <ele>104.44</ele>
        <time>2013-05-07T14:53:25Z</time>
      </trkpt>
      <trkpt lat="48.64775" lon="-3.38683">
        <ele>103.96</ele>
        <time>2013-05-07T14:53:41Z</time>
      </trkpt>
      <trkpt lat="48.64716" lon="-3.38548">
        <ele>102.52</ele>
        <time>2013-05-07T14:53:58Z</time>
      </trkpt>
      <trkpt lat="48.64648" lon="-3.38405">
        <ele>100.11</ele>
        <time>2013-05-07T14:54:15Z</time>
      </trkpt>
      <trkpt lat="48.64599" lon="-3.38357">
        <ele>100.11</ele>
        <time>2013-05-07T14:54:23Z</time>
      </trkpt>
      <trkpt lat="48.64594" lon="-3.3835">
        <ele>99.63</ele>
        <time>2013-05-07T14:54:24Z</time>
      </trkpt>
      <trkpt lat="48.64586" lon="-3.38333">
        <ele>99.63</ele>
        <time>2013-05-07T14:54:26Z</time>
      </trkpt>
      <trkpt lat="48.64582" lon="-3.38324">
        <ele>99.15</ele>
        <time>2013-05-07T14:54:27Z</time>
      </trkpt>
      <trkpt lat="48.64572" lon="-3.38299">
        <ele>99.63</ele>
        <time>2013-05-07T14:54:30Z</time>
      </trkpt>
      <trkpt lat="48.64569" lon="-3.3829">
        <ele>99.63</ele>
        <time>2013-05-07T14:54:31Z</time>
      </trkpt>
      <trkpt lat="48.64551" lon="-3.38173">
        <ele>97.71</ele>
        <time>2013-05-07T14:54:42Z</time>
      </trkpt>
      <trkpt lat="48.64517" lon="-3.38029">
        <ele>95.31</ele>
        <time>2013-05-07T14:54:55Z</time>
      </trkpt>
      <trkpt lat="48.64474" lon="-3.37922">
        <ele>98.19</ele>
        <time>2013-05-07T14:55:10Z</time>
      </trkpt>
      <trkpt lat="48.6447" lon="-3.37916">
        <ele>98.19</ele>
        <time>2013-05-07T14:55:11Z</time>
      </trkpt>
      <trkpt lat="48.64392" lon="-3.37823">
        <ele>99.63</ele>
        <time>2013-05-07T14:55:28Z</time>
      </trkpt>
      <trkpt lat="48.6436" lon="-3.37786">
        <ele>99.63</ele>
        <time>2013-05-07T14:55:35Z</time>
      </trkpt>
      <trkpt lat="48.64349" lon="-3.37766">
        <ele>99.63</ele>
        <time>2013-05-07T14:55:38Z</time>
      </trkpt>
      <trkpt lat="48.64346" lon="-3.37757">
        <ele>99.15</ele>
        <time>2013-05-07T14:55:39Z</time>
      </trkpt>
      <trkpt lat="48.64321" lon="-3.37675">
        <ele>96.75</ele>
        <time>2013-05-07T14:55:47Z</time>
      </trkpt>
      <trkpt lat="48.64299" lon="-3.37561">
        <ele>93.87</ele>
        <time>2013-05-07T14:55:56Z</time>
      </trkpt>
      <trkpt lat="48.64285" lon="-3.37459">
        <ele>95.31</ele>
        <time>2013-05-07T14:56:06Z</time>
      </trkpt>
      <trkpt lat="48.64285" lon="-3.37445">
        <ele>94.83</ele>
        <time>2013-05-07T14:56:08Z</time>
      </trkpt>
      <trkpt lat="48.64288" lon="-3.37425">
        <ele>96.27</ele>
        <time>2013-05-07T14:56:11Z</time>
      </trkpt>
      <trkpt lat="48.64292" lon="-3.37392">
        <ele>97.23</ele>
        <time>2013-05-07T14:56:16Z</time>
      </trkpt>
      <trkpt lat="48.64293" lon="-3.37386">
        <ele>97.23</ele>
        <time>2013-05-07T14:56:17Z</time>
      </trkpt>
      <trkpt lat="48.64296" lon="-3.37367">
        <ele>97.71</ele>
        <time>2013-05-07T14:56:20Z</time>
      </trkpt>
      <trkpt lat="48.64299" lon="-3.3734">
        <ele>98.67</ele>
        <time>2013-05-07T14:56:24Z</time>
      </trkpt>
      <trkpt lat="48.64298" lon="-3.37327">
        <ele>99.15</ele>
        <time>2013-05-07T14:56:26Z</time>
      </trkpt>
      <trkpt lat="48.64298" lon="-3.37321">
        <ele>100.11</ele>
        <time>2013-05-07T14:56:27Z</time>
      </trkpt>
      <trkpt lat="48.64296" lon="-3.37315">
        <ele>100.11</ele>
        <time>2013-05-07T14:56:28Z</time>
      </trkpt>
      <trkpt lat="48.64295" lon="-3.3731">
        <ele>100.11</ele>
        <time>2013-05-07T14:56:29Z</time>
      </trkpt>
      <trkpt lat="48.64293" lon="-3.37305">
        <ele>100.6</ele>
        <time>2013-05-07T14:56:30Z</time>
      </trkpt>
      <trkpt lat="48.6429" lon="-3.37301">
        <ele>101.08</ele>
        <time>2013-05-07T14:56:31Z</time>
      </trkpt>
      <trkpt lat="48.64287" lon="-3.37297">
        <ele>101.56</ele>
        <time>2013-05-07T14:56:32Z</time>
      </trkpt>
      <trkpt lat="48.64284" lon="-3.37293">
        <ele>101.56</ele>
        <time>2013-05-07T14:56:33Z</time>
      </trkpt>
      <trkpt lat="48.64245" lon="-3.37282">
        <ele>104.92</ele>
        <time>2013-05-07T14:56:43Z</time>
      </trkpt>
      <trkpt lat="48.64241" lon="-3.37284">
        <ele>104.92</ele>
        <time>2013-05-07T14:56:44Z</time>
      </trkpt>
      <trkpt lat="48.64199" lon="-3.37301">
        <ele>106.84</ele>
        <time>2013-05-07T14:56:54Z</time>
      </trkpt>
      <trkpt lat="48.64183" lon="-3.37301">
        <ele>108.29</ele>
        <time>2013-05-07T14:56:58Z</time>
      </trkpt>
      <trkpt lat="48.64171" lon="-3.37297">
        <ele>108.77</ele>
        <time>2013-05-07T14:57:01Z</time>
      </trkpt>
      <trkpt lat="48.64167" lon="-3.37294">
        <ele>108.77</ele>
        <time>2013-05-07T14:57:02Z</time>
      </trkpt>
      <trkpt lat="48.64163" lon="-3.37291">
        <ele>109.25</ele>
        <time>2013-05-07T14:57:03Z</time>
      </trkpt>
      <trkpt lat="48.64156" lon="-3.37284">
        <ele>109.73</ele>
        <time>2013-05-07T14:57:05Z</time>
      </trkpt>
      <trkpt lat="48.64153" lon="-3.37279">
        <ele>110.21</ele>
        <time>2013-05-07T14:57:06Z</time>
      </trkpt>
      <trkpt lat="48.64108" lon="-3.37226">
        <ele>113.57</ele>
        <time>2013-05-07T14:57:20Z</time>
      </trkpt>
      <trkpt lat="48.64104" lon="-3.37223">
        <ele>114.05</ele>
        <time>2013-05-07T14:57:21Z</time>
      </trkpt>
      <trkpt lat="48.64064" lon="-3.37177">
        <ele>114.53</ele>
        <time>2013-05-07T14:57:33Z</time>
      </trkpt>
      <trkpt lat="48.64041" lon="-3.37155">
        <ele>115.5</ele>
        <time>2013-05-07T14:57:40Z</time>
      </trkpt>
      <trkpt lat="48.64017" lon="-3.37128">
        <ele>115.01</ele>
        <time>2013-05-07T14:57:46Z</time>
      </trkpt>
      <trkpt lat="48.64013" lon="-3.37122">
        <ele>115.01</ele>
        <time>2013-05-07T14:57:47Z</time>
      </trkpt>
      <trkpt lat="48.63999" lon="-3.37102">
        <ele>113.09</ele>
        <time>2013-05-07T14:57:50Z</time>
      </trkpt>
      <trkpt lat="48.63942" lon="-3.37015">
        <ele>110.21</ele>
        <time>2013-05-07T14:58:01Z</time>
      </trkpt>
      <trkpt lat="48.63866" lon="-3.36915">
        <ele>108.77</ele>
        <time>2013-05-07T14:58:16Z</time>
      </trkpt>
      <trkpt lat="48.63802" lon="-3.36816">
        <ele>108.77</ele>
        <time>2013-05-07T14:58:31Z</time>
      </trkpt>
      <trkpt lat="48.63771" lon="-3.36758">
        <ele>108.29</ele>
        <time>2013-05-07T14:58:39Z</time>
      </trkpt>
      <trkpt lat="48.63769" lon="-3.3675">
        <ele>108.29</ele>
        <time>2013-05-07T14:58:40Z</time>
      </trkpt>
      <trkpt lat="48.6377" lon="-3.36742">
        <ele>107.81</ele>
        <time>2013-05-07T14:58:41Z</time>
      </trkpt>
      <trkpt lat="48.63773" lon="-3.36734">
        <ele>107.32</ele>
        <time>2013-05-07T14:58:42Z</time>
      </trkpt>
      <trkpt lat="48.63776" lon="-3.36727">
        <ele>106.84</ele>
        <time>2013-05-07T14:58:43Z</time>
      </trkpt>
      <trkpt lat="48.63778" lon="-3.36718">
        <ele>106.84</ele>
        <time>2013-05-07T14:58:44Z</time>
      </trkpt>
      <trkpt lat="48.63778" lon="-3.36709">
        <ele>106.84</ele>
        <time>2013-05-07T14:58:45Z</time>
      </trkpt>
      <trkpt lat="48.63778" lon="-3.36699">
        <ele>106.84</ele>
        <time>2013-05-07T14:58:46Z</time>
      </trkpt>
      <trkpt lat="48.63777" lon="-3.3669">
        <ele>106.84</ele>
        <time>2013-05-07T14:58:47Z</time>
      </trkpt>
      <trkpt lat="48.63776" lon="-3.3668">
        <ele>106.84</ele>
        <time>2013-05-07T14:58:48Z</time>
      </trkpt>
      <trkpt lat="48.63768" lon="-3.36605">
        <ele>104.92</ele>
        <time>2013-05-07T14:58:55Z</time>
      </trkpt>
      <trkpt lat="48.63742" lon="-3.36448">
        <ele>102.04</ele>
        <time>2013-05-07T14:59:08Z</time>
      </trkpt>
      <trkpt lat="48.63709" lon="-3.36338">
        <ele>103</ele>
        <time>2013-05-07T14:59:20Z</time>
      </trkpt>
      <trkpt lat="48.63686" lon="-3.36275">
        <ele>103</ele>
        <time>2013-05-07T14:59:27Z</time>
      </trkpt>
      <trkpt lat="48.63634" lon="-3.36172">
        <ele>103</ele>
        <time>2013-05-07T14:59:40Z</time>
      </trkpt>
      <trkpt lat="48.63583" lon="-3.36062">
        <ele>103.48</ele>
        <time>2013-05-07T14:59:54Z</time>
      </trkpt>
      <trkpt lat="48.63556" lon="-3.35936">
        <ele>101.56</ele>
        <time>2013-05-07T15:00:06Z</time>
      </trkpt>
      <trkpt lat="48.63519" lon="-3.35795">
        <ele>98.19</ele>
        <time>2013-05-07T15:00:18Z</time>
      </trkpt>
      <trkpt lat="48.63514" lon="-3.35783">
        <ele>98.19</ele>
        <time>2013-05-07T15:00:19Z</time>
      </trkpt>
      <trkpt lat="48.63482" lon="-3.35698">
        <ele>95.79</ele>
        <time>2013-05-07T15:00:26Z</time>
      </trkpt>
      <trkpt lat="48.63469" lon="-3.35645">
        <ele>93.87</ele>
        <time>2013-05-07T15:00:30Z</time>
      </trkpt>
      <trkpt lat="48.63434" lon="-3.35498">
        <ele>91.46</ele>
        <time>2013-05-07T15:00:42Z</time>
      </trkpt>
      <trkpt lat="48.63424" lon="-3.35414">
        <ele>93.39</ele>
        <time>2013-05-07T15:00:50Z</time>
      </trkpt>
      <trkpt lat="48.63425" lon="-3.35387">
        <ele>93.87</ele>
        <time>2013-05-07T15:00:53Z</time>
      </trkpt>
      <trkpt lat="48.63425" lon="-3.35378">
        <ele>94.35</ele>
        <time>2013-05-07T15:00:54Z</time>
      </trkpt>
      <trkpt lat="48.63425" lon="-3.35369">
        <ele>94.83</ele>
        <time>2013-05-07T15:00:55Z</time>
      </trkpt>
      <trkpt lat="48.63427" lon="-3.35325">
        <ele>95.79</ele>
        <time>2013-05-07T15:01:00Z</time>
      </trkpt>
      <trkpt lat="48.63428" lon="-3.35318">
        <ele>95.79</ele>
        <time>2013-05-07T15:01:01Z</time>
      </trkpt>
      <trkpt lat="48.63432" lon="-3.35235">
        <ele>99.15</ele>
        <time>2013-05-07T15:01:11Z</time>
      </trkpt>
      <trkpt lat="48.63438" lon="-3.35147">
        <ele>102.04</ele>
        <time>2013-05-07T15:01:22Z</time>
      </trkpt>
      <trkpt lat="48.63438" lon="-3.3514">
        <ele>102.52</ele>
        <time>2013-05-07T15:01:23Z</time>
      </trkpt>
      <trkpt lat="48.63446" lon="-3.34991">
        <ele>103.48</ele>
        <time>2013-05-07T15:01:40Z</time>
      </trkpt>
      <trkpt lat="48.6345" lon="-3.34873">
        <ele>103.48</ele>
        <time>2013-05-07T15:01:53Z</time>
      </trkpt>
      <trkpt lat="48.63431" lon="-3.3476">
        <ele>104.92</ele>
        <time>2013-05-07T15:02:06Z</time>
      </trkpt>
      <trkpt lat="48.63422" lon="-3.34726">
        <ele>105.4</ele>
        <time>2013-05-07T15:02:10Z</time>
      </trkpt>
      <trkpt lat="48.63392" lon="-3.34621">
        <ele>105.4</ele>
        <time>2013-05-07T15:02:22Z</time>
      </trkpt>
      <trkpt lat="48.63356" lon="-3.34483">
        <ele>105.88</ele>
        <time>2013-05-07T15:02:37Z</time>
      </trkpt>
      <trkpt lat="48.63325" lon="-3.34345">
        <ele>105.88</ele>
        <time>2013-05-07T15:02:52Z</time>
      </trkpt>
      <trkpt lat="48.63289" lon="-3.34187">
        <ele>107.32</ele>
        <time>2013-05-07T15:03:10Z</time>
      </trkpt>
      <trkpt lat="48.63281" lon="-3.34153">
        <ele>108.77</ele>
        <time>2013-05-07T15:03:14Z</time>
      </trkpt>
      <trkpt lat="48.6325" lon="-3.34017">
        <ele>107.32</ele>
        <time>2013-05-07T15:03:30Z</time>
      </trkpt>
      <trkpt lat="48.63219" lon="-3.33885">
        <ele>107.81</ele>
        <time>2013-05-07T15:03:44Z</time>
      </trkpt>
      <trkpt lat="48.63183" lon="-3.33731">
        <ele>107.81</ele>
        <time>2013-05-07T15:04:01Z</time>
      </trkpt>
      <trkpt lat="48.63157" lon="-3.33608">
        <ele>109.73</ele>
        <time>2013-05-07T15:04:15Z</time>
      </trkpt>
      <trkpt lat="48.63124" lon="-3.33454">
        <ele>110.21</ele>
        <time>2013-05-07T15:04:33Z</time>
      </trkpt>
      <trkpt lat="48.63095" lon="-3.33317">
        <ele>111.65</ele>
        <time>2013-05-07T15:04:49Z</time>
      </trkpt>
      <trkpt lat="48.63093" lon="-3.33292">
        <ele>112.13</ele>
        <time>2013-05-07T15:04:52Z</time>
      </trkpt>
      <trkpt lat="48.63091" lon="-3.33284">
        <ele>112.13</ele>
        <time>2013-05-07T15:04:53Z</time>
      </trkpt>
      <trkpt lat="48.63088" lon="-3.33279">
        <ele>112.13</ele>
        <time>2013-05-07T15:04:54Z</time>
      </trkpt>
      <trkpt lat="48.63084" lon="-3.33274">
        <ele>112.61</ele>
        <time>2013-05-07T15:04:55Z</time>
      </trkpt>
      <trkpt lat="48.63079" lon="-3.33271">
        <ele>112.61</ele>
        <time>2013-05-07T15:04:56Z</time>
      </trkpt>
      <trkpt lat="48.63075" lon="-3.33268">
        <ele>112.61</ele>
        <time>2013-05-07T15:04:57Z</time>
      </trkpt>
      <trkpt lat="48.6307" lon="-3.33264">
        <ele>112.61</ele>
        <time>2013-05-07T15:04:58Z</time>
      </trkpt>
      <trkpt lat="48.63065" lon="-3.3326">
        <ele>112.61</ele>
        <time>2013-05-07T15:04:59Z</time>
      </trkpt>
      <trkpt lat="48.63061" lon="-3.33256">
        <ele>112.61</ele>
        <time>2013-05-07T15:05:00Z</time>
      </trkpt>
      <trkpt lat="48.63033" lon="-3.33234">
        <ele>112.13</ele>
        <time>2013-05-07T15:05:06Z</time>
      </trkpt>
      <trkpt lat="48.63029" lon="-3.33233">
        <ele>112.13</ele>
        <time>2013-05-07T15:05:07Z</time>
      </trkpt>
      <trkpt lat="48.63024" lon="-3.33232">
        <ele>112.13</ele>
        <time>2013-05-07T15:05:08Z</time>
      </trkpt>
      <trkpt lat="48.62958" lon="-3.3321">
        <ele>112.61</ele>
        <time>2013-05-07T15:05:21Z</time>
      </trkpt>
      <trkpt lat="48.62887" lon="-3.33191">
        <ele>113.57</ele>
        <time>2013-05-07T15:05:34Z</time>
      </trkpt>
      <trkpt lat="48.6281" lon="-3.33155">
        <ele>115.01</ele>
        <time>2013-05-07T15:05:48Z</time>
      </trkpt>
      <trkpt lat="48.62726" lon="-3.33115">
        <ele>116.46</ele>
        <time>2013-05-07T15:06:05Z</time>
      </trkpt>
      <trkpt lat="48.62653" lon="-3.33092">
        <ele>117.9</ele>
        <time>2013-05-07T15:06:20Z</time>
      </trkpt>
      <trkpt lat="48.62574" lon="-3.33067">
        <ele>119.82</ele>
        <time>2013-05-07T15:06:36Z</time>
      </trkpt>
      <trkpt lat="48.62534" lon="-3.33054">
        <ele>121.26</ele>
        <time>2013-05-07T15:06:44Z</time>
      </trkpt>
      <trkpt lat="48.62499" lon="-3.3304">
        <ele>122.22</ele>
        <time>2013-05-07T15:06:51Z</time>
      </trkpt>
      <trkpt lat="48.62495" lon="-3.33037">
        <ele>122.22</ele>
        <time>2013-05-07T15:06:52Z</time>
      </trkpt>
      <trkpt lat="48.62465" lon="-3.33022">
        <ele>122.71</ele>
        <time>2013-05-07T15:06:58Z</time>
      </trkpt>
      <trkpt lat="48.62409" lon="-3.32977">
        <ele>125.11</ele>
        <time>2013-05-07T15:07:12Z</time>
      </trkpt>
      <trkpt lat="48.6236" lon="-3.32926">
        <ele>126.55</ele>
        <time>2013-05-07T15:07:26Z</time>
      </trkpt>
      <trkpt lat="48.62314" lon="-3.32898">
        <ele>127.99</ele>
        <time>2013-05-07T15:07:37Z</time>
      </trkpt>
      <trkpt lat="48.62288" lon="-3.32898">
        <ele>128.95</ele>
        <time>2013-05-07T15:07:43Z</time>
      </trkpt>
      <trkpt lat="48.62267" lon="-3.32894">
        <ele>129.43</ele>
        <time>2013-05-07T15:07:48Z</time>
      </trkpt>
      <trkpt lat="48.62239" lon="-3.32881">
        <ele>129.43</ele>
        <time>2013-05-07T15:07:55Z</time>
      </trkpt>
      <trkpt lat="48.6222" lon="-3.32866">
        <ele>129.92</ele>
        <time>2013-05-07T15:08:00Z</time>
      </trkpt>
      <trkpt lat="48.62208" lon="-3.32855">
        <ele>129.92</ele>
        <time>2013-05-07T15:08:03Z</time>
      </trkpt>
      <trkpt lat="48.62205" lon="-3.3285">
        <ele>130.4</ele>
        <time>2013-05-07T15:08:04Z</time>
      </trkpt>
      <trkpt lat="48.62201" lon="-3.32845">
        <ele>130.88</ele>
        <time>2013-05-07T15:08:05Z</time>
      </trkpt>
      <trkpt lat="48.62144" lon="-3.32782">
        <ele>131.36</ele>
        <time>2013-05-07T15:08:19Z</time>
      </trkpt>
      <trkpt lat="48.62122" lon="-3.32765">
        <ele>129.92</ele>
        <time>2013-05-07T15:08:29Z</time>
      </trkpt>
      <trkpt lat="48.62115" lon="-3.32756">
        <ele>129.92</ele>
        <time>2013-05-07T15:08:32Z</time>
      </trkpt>
      <trkpt lat="48.6205" lon="-3.32708">
        <ele>129.92</ele>
        <time>2013-05-07T15:08:46Z</time>
      </trkpt>
      <trkpt lat="48.61968" lon="-3.32657">
        <ele>130.4</ele>
        <time>2013-05-07T15:09:02Z</time>
      </trkpt>
      <trkpt lat="48.61962" lon="-3.32656">
        <ele>129.92</ele>
        <time>2013-05-07T15:09:03Z</time>
      </trkpt>
      <trkpt lat="48.61901" lon="-3.32643">
        <ele>131.84</ele>
        <time>2013-05-07T15:09:14Z</time>
      </trkpt>
      <trkpt lat="48.61852" lon="-3.3264">
        <ele>131.84</ele>
        <time>2013-05-07T15:09:23Z</time>
      </trkpt>
      <trkpt lat="48.61841" lon="-3.32637">
        <ele>131.84</ele>
        <time>2013-05-07T15:09:25Z</time>
      </trkpt>
      <trkpt lat="48.61758" lon="-3.32578">
        <ele>132.8</ele>
        <time>2013-05-07T15:09:41Z</time>
      </trkpt>
      <trkpt lat="48.61686" lon="-3.32536">
        <ele>134.72</ele>
        <time>2013-05-07T15:09:56Z</time>
      </trkpt>
      <trkpt lat="48.61615" lon="-3.32525">
        <ele>136.16</ele>
        <time>2013-05-07T15:10:10Z</time>
      </trkpt>
      <trkpt lat="48.61545" lon="-3.32522">
        <ele>136.64</ele>
        <time>2013-05-07T15:10:23Z</time>
      </trkpt>
      <trkpt lat="48.61459" lon="-3.32521">
        <ele>136.64</ele>
        <time>2013-05-07T15:10:38Z</time>
      </trkpt>
      <trkpt lat="48.61366" lon="-3.32502">
        <ele>134.72</ele>
        <time>2013-05-07T15:10:52Z</time>
      </trkpt>
      <trkpt lat="48.61353" lon="-3.32496">
        <ele>133.76</ele>
        <time>2013-05-07T15:10:54Z</time>
      </trkpt>
      <trkpt lat="48.6124" lon="-3.32449">
        <ele>131.36</ele>
        <time>2013-05-07T15:11:11Z</time>
      </trkpt>
      <trkpt lat="48.6117" lon="-3.32416">
        <ele>130.88</ele>
        <time>2013-05-07T15:11:22Z</time>
      </trkpt>
      <trkpt lat="48.61165" lon="-3.3241">
        <ele>130.88</ele>
        <time>2013-05-07T15:11:23Z</time>
      </trkpt>
      <trkpt lat="48.6116" lon="-3.32404">
        <ele>130.88</ele>
        <time>2013-05-07T15:11:24Z</time>
      </trkpt>
      <trkpt lat="48.61155" lon="-3.32397">
        <ele>131.36</ele>
        <time>2013-05-07T15:11:25Z</time>
      </trkpt>
      <trkpt lat="48.61151" lon="-3.3239">
        <ele>131.36</ele>
        <time>2013-05-07T15:11:26Z</time>
      </trkpt>
      <trkpt lat="48.61148" lon="-3.32382">
        <ele>131.36</ele>
        <time>2013-05-07T15:11:27Z</time>
      </trkpt>
      <trkpt lat="48.61145" lon="-3.32374">
        <ele>131.36</ele>
        <time>2013-05-07T15:11:28Z</time>
      </trkpt>
      <trkpt lat="48.61143" lon="-3.32365">
        <ele>131.36</ele>
        <time>2013-05-07T15:11:29Z</time>
      </trkpt>
      <trkpt lat="48.61132" lon="-3.32315">
        <ele>131.36</ele>
        <time>2013-05-07T15:11:35Z</time>
      </trkpt>
      <trkpt lat="48.61128" lon="-3.32307">
        <ele>131.36</ele>
        <time>2013-05-07T15:11:36Z</time>
      </trkpt>
      <trkpt lat="48.61124" lon="-3.323">
        <ele>131.84</ele>
        <time>2013-05-07T15:11:37Z</time>
      </trkpt>
      <trkpt lat="48.61119" lon="-3.32295">
        <ele>131.84</ele>
        <time>2013-05-07T15:11:38Z</time>
      </trkpt>
      <trkpt lat="48.61113" lon="-3.32292">
        <ele>131.84</ele>
        <time>2013-05-07T15:11:39Z</time>
      </trkpt>
      <trkpt lat="48.61108" lon="-3.3229">
        <ele>131.36</ele>
        <time>2013-05-07T15:11:40Z</time>
      </trkpt>
      <trkpt lat="48.61022" lon="-3.32274">
        <ele>133.28</ele>
        <time>2013-05-07T15:11:56Z</time>
      </trkpt>
      <trkpt lat="48.60969" lon="-3.32275">
        <ele>134.24</ele>
        <time>2013-05-07T15:12:06Z</time>
      </trkpt>
      <trkpt lat="48.60964" lon="-3.32277">
        <ele>134.24</ele>
        <time>2013-05-07T15:12:07Z</time>
      </trkpt>
      <trkpt lat="48.60946" lon="-3.3229">
        <ele>134.72</ele>
        <time>2013-05-07T15:12:11Z</time>
      </trkpt>
      <trkpt lat="48.60889" lon="-3.32307">
        <ele>136.16</ele>
        <time>2013-05-07T15:12:23Z</time>
      </trkpt>
      <trkpt lat="48.60851" lon="-3.323">
        <ele>137.13</ele>
        <time>2013-05-07T15:12:31Z</time>
      </trkpt>
      <trkpt lat="48.60775" lon="-3.32285">
        <ele>140.01</ele>
        <time>2013-05-07T15:12:47Z</time>
      </trkpt>
      <trkpt lat="48.6071" lon="-3.32285">
        <ele>141.93</ele>
        <time>2013-05-07T15:13:01Z</time>
      </trkpt>
      <trkpt lat="48.60646" lon="-3.32287">
        <ele>145.3</ele>
        <time>2013-05-07T15:13:17Z</time>
      </trkpt>
      <trkpt lat="48.60622" lon="-3.32295">
        <ele>147.22</ele>
        <time>2013-05-07T15:13:23Z</time>
      </trkpt>
      <trkpt lat="48.60569" lon="-3.3236">
        <ele>150.58</ele>
        <time>2013-05-07T15:13:40Z</time>
      </trkpt>
      <trkpt lat="48.6053" lon="-3.32421">
        <ele>153.95</ele>
        <time>2013-05-07T15:13:54Z</time>
      </trkpt>
      <trkpt lat="48.60504" lon="-3.32449">
        <ele>155.87</ele>
        <time>2013-05-07T15:14:02Z</time>
      </trkpt>
      <trkpt lat="48.60501" lon="-3.32451">
        <ele>156.35</ele>
        <time>2013-05-07T15:14:03Z</time>
      </trkpt>
      <trkpt lat="48.6048" lon="-3.32456">
        <ele>157.31</ele>
        <time>2013-05-07T15:14:08Z</time>
      </trkpt>
      <trkpt lat="48.60428" lon="-3.32444">
        <ele>160.2</ele>
        <time>2013-05-07T15:14:21Z</time>
      </trkpt>
      <trkpt lat="48.60393" lon="-3.32433">
        <ele>161.64</ele>
        <time>2013-05-07T15:14:31Z</time>
      </trkpt>
      <trkpt lat="48.60332" lon="-3.3241">
        <ele>161.64</ele>
        <time>2013-05-07T15:14:45Z</time>
      </trkpt>
      <trkpt lat="48.60287" lon="-3.32391">
        <ele>162.12</ele>
        <time>2013-05-07T15:14:55Z</time>
      </trkpt>
      <trkpt lat="48.60283" lon="-3.32388">
        <ele>162.6</ele>
        <time>2013-05-07T15:14:56Z</time>
      </trkpt>
      <trkpt lat="48.60279" lon="-3.32385">
        <ele>162.6</ele>
        <time>2013-05-07T15:14:57Z</time>
      </trkpt>
      <trkpt lat="48.60275" lon="-3.32384">
        <ele>162.6</ele>
        <time>2013-05-07T15:14:58Z</time>
      </trkpt>
      <trkpt lat="48.6027" lon="-3.32382">
        <ele>163.08</ele>
        <time>2013-05-07T15:14:59Z</time>
      </trkpt>
      <trkpt lat="48.60235" lon="-3.3237">
        <ele>164.04</ele>
        <time>2013-05-07T15:15:07Z</time>
      </trkpt>
      <trkpt lat="48.60205" lon="-3.32358">
        <ele>164.04</ele>
        <time>2013-05-07T15:15:14Z</time>
      </trkpt>
      <trkpt lat="48.60133" lon="-3.3233">
        <ele>166.93</ele>
        <time>2013-05-07T15:15:30Z</time>
      </trkpt>
      <trkpt lat="48.6011" lon="-3.32323">
        <ele>167.41</ele>
        <time>2013-05-07T15:15:35Z</time>
      </trkpt>
      <trkpt lat="48.60106" lon="-3.3232">
        <ele>167.41</ele>
        <time>2013-05-07T15:15:36Z</time>
      </trkpt>
      <trkpt lat="48.60077" lon="-3.32311">
        <ele>168.37</ele>
        <time>2013-05-07T15:15:43Z</time>
      </trkpt>
      <trkpt lat="48.6002" lon="-3.3229">
        <ele>167.41</ele>
        <time>2013-05-07T15:15:55Z</time>
      </trkpt>
      <trkpt lat="48.59939" lon="-3.32234">
        <ele>164.52</ele>
        <time>2013-05-07T15:16:09Z</time>
      </trkpt>
      <trkpt lat="48.59934" lon="-3.32224">
        <ele>164.52</ele>
        <time>2013-05-07T15:16:10Z</time>
      </trkpt>
      <trkpt lat="48.59882" lon="-3.32118">
        <ele>162.12</ele>
        <time>2013-05-07T15:16:22Z</time>
      </trkpt>
      <trkpt lat="48.5986" lon="-3.32095">
        <ele>161.64</ele>
        <time>2013-05-07T15:16:26Z</time>
      </trkpt>
      <trkpt lat="48.59824" lon="-3.32078">
        <ele>162.12</ele>
        <time>2013-05-07T15:16:32Z</time>
      </trkpt>
      <trkpt lat="48.59819" lon="-3.32075">
        <ele>161.64</ele>
        <time>2013-05-07T15:16:33Z</time>
      </trkpt>
      <trkpt lat="48.59781" lon="-3.32048">
        <ele>160.2</ele>
        <time>2013-05-07T15:16:42Z</time>
      </trkpt>
      <trkpt lat="48.59777" lon="-3.32049">
        <ele>160.2</ele>
        <time>2013-05-07T15:16:43Z</time>
      </trkpt>
      <trkpt lat="48.59773" lon="-3.32052">
        <ele>159.72</ele>
        <time>2013-05-07T15:16:44Z</time>
      </trkpt>
      <trkpt lat="48.59769" lon="-3.32056">
        <ele>159.24</ele>
        <time>2013-05-07T15:16:45Z</time>
      </trkpt>
      <trkpt lat="48.59765" lon="-3.32062">
        <ele>158.75</ele>
        <time>2013-05-07T15:16:46Z</time>
      </trkpt>
      <trkpt lat="48.5976" lon="-3.32068">
        <ele>159.24</ele>
        <time>2013-05-07T15:16:47Z</time>
      </trkpt>
      <trkpt lat="48.59712" lon="-3.32136">
        <ele>158.27</ele>
        <time>2013-05-07T15:16:56Z</time>
      </trkpt>
      <trkpt lat="48.59706" lon="-3.32142">
        <ele>158.27</ele>
        <time>2013-05-07T15:16:57Z</time>
      </trkpt>
      <trkpt lat="48.59699" lon="-3.32147">
        <ele>158.27</ele>
        <time>2013-05-07T15:16:58Z</time>
      </trkpt>
      <trkpt lat="48.59691" lon="-3.32151">
        <ele>157.31</ele>
        <time>2013-05-07T15:16:59Z</time>
      </trkpt>
      <trkpt lat="48.59684" lon="-3.32153">
        <ele>156.83</ele>
        <time>2013-05-07T15:17:00Z</time>
      </trkpt>
      <trkpt lat="48.59676" lon="-3.32155">
        <ele>156.83</ele>
        <time>2013-05-07T15:17:01Z</time>
      </trkpt>
      <trkpt lat="48.59591" lon="-3.32167">
        <ele>153.47</ele>
        <time>2013-05-07T15:17:12Z</time>
      </trkpt>
      <trkpt lat="48.59536" lon="-3.32181">
        <ele>153.95</ele>
        <time>2013-05-07T15:17:20Z</time>
      </trkpt>
      <trkpt lat="48.5953" lon="-3.32179">
        <ele>154.43</ele>
        <time>2013-05-07T15:17:21Z</time>
      </trkpt>
      <trkpt lat="48.59524" lon="-3.32175">
        <ele>154.43</ele>
        <time>2013-05-07T15:17:22Z</time>
      </trkpt>
      <trkpt lat="48.59519" lon="-3.3217">
        <ele>153.95</ele>
        <time>2013-05-07T15:17:23Z</time>
      </trkpt>
      <trkpt lat="48.59514" lon="-3.32163">
        <ele>153.47</ele>
        <time>2013-05-07T15:17:24Z</time>
      </trkpt>
      <trkpt lat="48.59509" lon="-3.32156">
        <ele>153.47</ele>
        <time>2013-05-07T15:17:25Z</time>
      </trkpt>
      <trkpt lat="48.59505" lon="-3.32148">
        <ele>153.47</ele>
        <time>2013-05-07T15:17:26Z</time>
      </trkpt>
      <trkpt lat="48.59502" lon="-3.32139">
        <ele>152.99</ele>
        <time>2013-05-07T15:17:27Z</time>
      </trkpt>
      <trkpt lat="48.59492" lon="-3.32113">
        <ele>152.99</ele>
        <time>2013-05-07T15:17:30Z</time>
      </trkpt>
      <trkpt lat="48.59486" lon="-3.32107">
        <ele>153.47</ele>
        <time>2013-05-07T15:17:31Z</time>
      </trkpt>
      <trkpt lat="48.5948" lon="-3.32103">
        <ele>152.99</ele>
        <time>2013-05-07T15:17:32Z</time>
      </trkpt>
      <trkpt lat="48.59473" lon="-3.32101">
        <ele>153.95</ele>
        <time>2013-05-07T15:17:33Z</time>
      </trkpt>
      <trkpt lat="48.59466" lon="-3.32102">
        <ele>153.47</ele>
        <time>2013-05-07T15:17:34Z</time>
      </trkpt>
      <trkpt lat="48.59459" lon="-3.32102">
        <ele>153.47</ele>
        <time>2013-05-07T15:17:35Z</time>
      </trkpt>
      <trkpt lat="48.5937" lon="-3.32112">
        <ele>152.03</ele>
        <time>2013-05-07T15:17:48Z</time>
      </trkpt>
      <trkpt lat="48.59333" lon="-3.32119">
        <ele>150.58</ele>
        <time>2013-05-07T15:17:54Z</time>
      </trkpt>
      <trkpt lat="48.59328" lon="-3.32123">
        <ele>150.1</ele>
        <time>2013-05-07T15:17:55Z</time>
      </trkpt>
      <trkpt lat="48.59322" lon="-3.32129">
        <ele>150.1</ele>
        <time>2013-05-07T15:17:56Z</time>
      </trkpt>
      <trkpt lat="48.59318" lon="-3.32135">
        <ele>150.1</ele>
        <time>2013-05-07T15:17:57Z</time>
      </trkpt>
      <trkpt lat="48.59314" lon="-3.32142">
        <ele>150.58</ele>
        <time>2013-05-07T15:17:58Z</time>
      </trkpt>
      <trkpt lat="48.59311" lon="-3.32151">
        <ele>150.58</ele>
        <time>2013-05-07T15:17:59Z</time>
      </trkpt>
      <trkpt lat="48.59308" lon="-3.3216">
        <ele>150.1</ele>
        <time>2013-05-07T15:18:00Z</time>
      </trkpt>
      <trkpt lat="48.59306" lon="-3.32169">
        <ele>150.58</ele>
        <time>2013-05-07T15:18:01Z</time>
      </trkpt>
      <trkpt lat="48.59306" lon="-3.32178">
        <ele>151.06</ele>
        <time>2013-05-07T15:18:02Z</time>
      </trkpt>
      <trkpt lat="48.59305" lon="-3.32188">
        <ele>151.06</ele>
        <time>2013-05-07T15:18:03Z</time>
      </trkpt>
      <trkpt lat="48.59306" lon="-3.32198">
        <ele>152.03</ele>
        <time>2013-05-07T15:18:04Z</time>
      </trkpt>
      <trkpt lat="48.5931" lon="-3.32257">
        <ele>150.58</ele>
        <time>2013-05-07T15:18:10Z</time>
      </trkpt>
      <trkpt lat="48.59309" lon="-3.32267">
        <ele>150.58</ele>
        <time>2013-05-07T15:18:11Z</time>
      </trkpt>
      <trkpt lat="48.59307" lon="-3.32276">
        <ele>151.54</ele>
        <time>2013-05-07T15:18:12Z</time>
      </trkpt>
      <trkpt lat="48.59304" lon="-3.32285">
        <ele>152.03</ele>
        <time>2013-05-07T15:18:13Z</time>
      </trkpt>
      <trkpt lat="48.593" lon="-3.32292">
        <ele>152.03</ele>
        <time>2013-05-07T15:18:14Z</time>
      </trkpt>
      <trkpt lat="48.59296" lon="-3.32299">
        <ele>152.51</ele>
        <time>2013-05-07T15:18:15Z</time>
      </trkpt>
      <trkpt lat="48.59292" lon="-3.32305">
        <ele>152.51</ele>
        <time>2013-05-07T15:18:16Z</time>
      </trkpt>
      <trkpt lat="48.59227" lon="-3.32376">
        <ele>153.47</ele>
        <time>2013-05-07T15:18:31Z</time>
      </trkpt>
      <trkpt lat="48.59158" lon="-3.32444">
        <ele>155.87</ele>
        <time>2013-05-07T15:18:47Z</time>
      </trkpt>
      <trkpt lat="48.59083" lon="-3.32482">
        <ele>156.35</ele>
        <time>2013-05-07T15:19:01Z</time>
      </trkpt>
      <trkpt lat="48.59056" lon="-3.32498">
        <ele>156.35</ele>
        <time>2013-05-07T15:19:06Z</time>
      </trkpt>
      <trkpt lat="48.59024" lon="-3.32526">
        <ele>155.87</ele>
        <time>2013-05-07T15:19:13Z</time>
      </trkpt>
      <trkpt lat="48.58962" lon="-3.32575">
        <ele>155.87</ele>
        <time>2013-05-07T15:19:25Z</time>
      </trkpt>
      <trkpt lat="48.58928" lon="-3.3261">
        <ele>155.87</ele>
        <time>2013-05-07T15:19:32Z</time>
      </trkpt>
      <trkpt lat="48.58915" lon="-3.32625">
        <ele>155.87</ele>
        <time>2013-05-07T15:19:35Z</time>
      </trkpt>
      <trkpt lat="48.58883" lon="-3.32647">
        <ele>156.35</ele>
        <time>2013-05-07T15:19:40Z</time>
      </trkpt>
      <trkpt lat="48.58801" lon="-3.32686">
        <ele>156.83</ele>
        <time>2013-05-07T15:19:53Z</time>
      </trkpt>
      <trkpt lat="48.58733" lon="-3.32719">
        <ele>156.35</ele>
        <time>2013-05-07T15:20:04Z</time>
      </trkpt>
      <trkpt lat="48.5866" lon="-3.32777">
        <ele>157.79</ele>
        <time>2013-05-07T15:20:18Z</time>
      </trkpt>
      <trkpt lat="48.58655" lon="-3.32782">
        <ele>158.27</ele>
        <time>2013-05-07T15:20:19Z</time>
      </trkpt>
      <trkpt lat="48.58609" lon="-3.32817">
        <ele>159.24</ele>
        <time>2013-05-07T15:20:28Z</time>
      </trkpt>
      <trkpt lat="48.58594" lon="-3.32824">
        <ele>159.72</ele>
        <time>2013-05-07T15:20:31Z</time>
      </trkpt>
      <trkpt lat="48.58578" lon="-3.32828">
        <ele>160.2</ele>
        <time>2013-05-07T15:20:34Z</time>
      </trkpt>
      <trkpt lat="48.58499" lon="-3.32839">
        <ele>161.16</ele>
        <time>2013-05-07T15:20:48Z</time>
      </trkpt>
      <trkpt lat="48.58477" lon="-3.32844">
        <ele>161.64</ele>
        <time>2013-05-07T15:20:52Z</time>
      </trkpt>
      <trkpt lat="48.58472" lon="-3.32847">
        <ele>161.64</ele>
        <time>2013-05-07T15:20:53Z</time>
      </trkpt>
      <trkpt lat="48.5842" lon="-3.32883">
        <ele>163.56</ele>
        <time>2013-05-07T15:21:04Z</time>
      </trkpt>
      <trkpt lat="48.58351" lon="-3.32962">
        <ele>165</ele>
        <time>2013-05-07T15:21:21Z</time>
      </trkpt>
      <trkpt lat="48.58346" lon="-3.32965">
        <ele>165.48</ele>
        <time>2013-05-07T15:21:22Z</time>
      </trkpt>
      <trkpt lat="48.58327" lon="-3.32977">
        <ele>166.45</ele>
        <time>2013-05-07T15:21:26Z</time>
      </trkpt>
      <trkpt lat="48.58323" lon="-3.32979">
        <ele>166.45</ele>
        <time>2013-05-07T15:21:27Z</time>
      </trkpt>
      <trkpt lat="48.58255" lon="-3.32993">
        <ele>167.41</ele>
        <time>2013-05-07T15:21:42Z</time>
      </trkpt>
      <trkpt lat="48.58187" lon="-3.3297">
        <ele>168.85</ele>
        <time>2013-05-07T15:21:57Z</time>
      </trkpt>
      <trkpt lat="48.58131" lon="-3.32947">
        <ele>170.77</ele>
        <time>2013-05-07T15:22:10Z</time>
      </trkpt>
      <trkpt lat="48.58104" lon="-3.32932">
        <ele>172.21</ele>
        <time>2013-05-07T15:22:17Z</time>
      </trkpt>
      <trkpt lat="48.58043" lon="-3.32873">
        <ele>172.21</ele>
        <time>2013-05-07T15:22:31Z</time>
      </trkpt>
      <trkpt lat="48.5795" lon="-3.32842">
        <ele>170.77</ele>
        <time>2013-05-07T15:22:47Z</time>
      </trkpt>
      <trkpt lat="48.57945" lon="-3.32842">
        <ele>171.25</ele>
        <time>2013-05-07T15:22:48Z</time>
      </trkpt>
      <trkpt lat="48.57905" lon="-3.32855">
        <ele>175.1</ele>
        <time>2013-05-07T15:22:57Z</time>
      </trkpt>
      <trkpt lat="48.57891" lon="-3.32866">
        <ele>175.58</ele>
        <time>2013-05-07T15:23:01Z</time>
      </trkpt>
      <trkpt lat="48.57888" lon="-3.32869">
        <ele>175.58</ele>
        <time>2013-05-07T15:23:02Z</time>
      </trkpt>
      <trkpt lat="48.57859" lon="-3.32905">
        <ele>176.54</ele>
        <time>2013-05-07T15:23:10Z</time>
      </trkpt>
      <trkpt lat="48.57821" lon="-3.32949">
        <ele>177.98</ele>
        <time>2013-05-07T15:23:20Z</time>
      </trkpt>
      <trkpt lat="48.57797" lon="-3.32962">
        <ele>177.98</ele>
        <time>2013-05-07T15:23:25Z</time>
      </trkpt>
      <trkpt lat="48.57787" lon="-3.32964">
        <ele>177.98</ele>
        <time>2013-05-07T15:23:27Z</time>
      </trkpt>
      <trkpt lat="48.57748" lon="-3.3297">
        <ele>178.94</ele>
        <time>2013-05-07T15:23:34Z</time>
      </trkpt>
      <trkpt lat="48.57743" lon="-3.32973">
        <ele>178.46</ele>
        <time>2013-05-07T15:23:35Z</time>
      </trkpt>
      <trkpt lat="48.57738" lon="-3.32976">
        <ele>179.42</ele>
        <time>2013-05-07T15:23:36Z</time>
      </trkpt>
      <trkpt lat="48.57733" lon="-3.32981">
        <ele>178.94</ele>
        <time>2013-05-07T15:23:37Z</time>
      </trkpt>
      <trkpt lat="48.57729" lon="-3.32985">
        <ele>179.42</ele>
        <time>2013-05-07T15:23:38Z</time>
      </trkpt>
      <trkpt lat="48.57725" lon="-3.32991">
        <ele>178.94</ele>
        <time>2013-05-07T15:23:39Z</time>
      </trkpt>
      <trkpt lat="48.5772" lon="-3.32996">
        <ele>179.42</ele>
        <time>2013-05-07T15:23:40Z</time>
      </trkpt>
      <trkpt lat="48.57716" lon="-3.33001">
        <ele>179.42</ele>
        <time>2013-05-07T15:23:41Z</time>
      </trkpt>
      <trkpt lat="48.57713" lon="-3.33007">
        <ele>178.94</ele>
        <time>2013-05-07T15:23:42Z</time>
      </trkpt>
      <trkpt lat="48.57709" lon="-3.33012">
        <ele>178.94</ele>
        <time>2013-05-07T15:23:43Z</time>
      </trkpt>
      <trkpt lat="48.57705" lon="-3.33018">
        <ele>179.9</ele>
        <time>2013-05-07T15:23:44Z</time>
      </trkpt>
      <trkpt lat="48.57669" lon="-3.33065">
        <ele>178.94</ele>
        <time>2013-05-07T15:23:53Z</time>
      </trkpt>
      <trkpt lat="48.57589" lon="-3.33099">
        <ele>179.9</ele>
        <time>2013-05-07T15:24:08Z</time>
      </trkpt>
      <trkpt lat="48.57509" lon="-3.33124">
        <ele>180.87</ele>
        <time>2013-05-07T15:24:24Z</time>
      </trkpt>
      <trkpt lat="48.57426" lon="-3.33177">
        <ele>182.31</ele>
        <time>2013-05-07T15:24:42Z</time>
      </trkpt>
      <trkpt lat="48.5738" lon="-3.33211">
        <ele>182.31</ele>
        <time>2013-05-07T15:24:52Z</time>
      </trkpt>
      <trkpt lat="48.57375" lon="-3.33214">
        <ele>182.79</ele>
        <time>2013-05-07T15:24:53Z</time>
      </trkpt>
      <trkpt lat="48.57333" lon="-3.33244">
        <ele>183.27</ele>
        <time>2013-05-07T15:25:02Z</time>
      </trkpt>
      <trkpt lat="48.57247" lon="-3.33305">
        <ele>185.19</ele>
        <time>2013-05-07T15:25:20Z</time>
      </trkpt>
      <trkpt lat="48.57172" lon="-3.33361">
        <ele>187.11</ele>
        <time>2013-05-07T15:25:38Z</time>
      </trkpt>
      <trkpt lat="48.57088" lon="-3.33421">
        <ele>189.52</ele>
        <time>2013-05-07T15:25:58Z</time>
      </trkpt>
      <trkpt lat="48.57004" lon="-3.33492">
        <ele>191.92</ele>
        <time>2013-05-07T15:26:19Z</time>
      </trkpt>
      <trkpt lat="48.56993" lon="-3.33504">
        <ele>192.88</ele>
        <time>2013-05-07T15:26:22Z</time>
      </trkpt>
      <trkpt lat="48.56959" lon="-3.33537">
        <ele>193.84</ele>
        <time>2013-05-07T15:26:31Z</time>
      </trkpt>
      <trkpt lat="48.56956" lon="-3.33542">
        <ele>193.84</ele>
        <time>2013-05-07T15:26:32Z</time>
      </trkpt>
      <trkpt lat="48.56953" lon="-3.33547">
        <ele>193.84</ele>
        <time>2013-05-07T15:26:33Z</time>
      </trkpt>
      <trkpt lat="48.5695" lon="-3.33552">
        <ele>193.84</ele>
        <time>2013-05-07T15:26:34Z</time>
      </trkpt>
      <trkpt lat="48.56948" lon="-3.33558">
        <ele>193.36</ele>
        <time>2013-05-07T15:26:35Z</time>
      </trkpt>
      <trkpt lat="48.56946" lon="-3.33564">
        <ele>193.36</ele>
        <time>2013-05-07T15:26:36Z</time>
      </trkpt>
      <trkpt lat="48.56943" lon="-3.3357">
        <ele>193.36</ele>
        <time>2013-05-07T15:26:37Z</time>
      </trkpt>
      <trkpt lat="48.5694" lon="-3.33575">
        <ele>193.36</ele>
        <time>2013-05-07T15:26:38Z</time>
      </trkpt>
      <trkpt lat="48.56936" lon="-3.33578">
        <ele>193.84</ele>
        <time>2013-05-07T15:26:39Z</time>
      </trkpt>
      <trkpt lat="48.56932" lon="-3.3358">
        <ele>193.84</ele>
        <time>2013-05-07T15:26:40Z</time>
      </trkpt>
      <trkpt lat="48.56927" lon="-3.33581">
        <ele>193.84</ele>
        <time>2013-05-07T15:26:41Z</time>
      </trkpt>
      <trkpt lat="48.56923" lon="-3.33581">
        <ele>194.32</ele>
        <time>2013-05-07T15:26:42Z</time>
      </trkpt>
      <trkpt lat="48.56918" lon="-3.33582">
        <ele>194.32</ele>
        <time>2013-05-07T15:26:43Z</time>
      </trkpt>
      <trkpt lat="48.56914" lon="-3.33584">
        <ele>194.8</ele>
        <time>2013-05-07T15:26:44Z</time>
      </trkpt>
      <trkpt lat="48.5691" lon="-3.33587">
        <ele>194.8</ele>
        <time>2013-05-07T15:26:45Z</time>
      </trkpt>
      <trkpt lat="48.56906" lon="-3.3359">
        <ele>194.8</ele>
        <time>2013-05-07T15:26:46Z</time>
      </trkpt>
      <trkpt lat="48.56902" lon="-3.33593">
        <ele>194.32</ele>
        <time>2013-05-07T15:26:47Z</time>
      </trkpt>
      <trkpt lat="48.56861" lon="-3.3362">
        <ele>194.8</ele>
        <time>2013-05-07T15:26:57Z</time>
      </trkpt>
      <trkpt lat="48.56803" lon="-3.3364">
        <ele>194.8</ele>
        <time>2013-05-07T15:27:09Z</time>
      </trkpt>
      <trkpt lat="48.56749" lon="-3.33648">
        <ele>193.84</ele>
        <time>2013-05-07T15:27:19Z</time>
      </trkpt>
      <trkpt lat="48.56744" lon="-3.33648">
        <ele>193.84</ele>
        <time>2013-05-07T15:27:20Z</time>
      </trkpt>
      <trkpt lat="48.56674" lon="-3.33658">
        <ele>192.88</ele>
        <time>2013-05-07T15:27:33Z</time>
      </trkpt>
      <trkpt lat="48.56668" lon="-3.33659">
        <ele>192.4</ele>
        <time>2013-05-07T15:27:34Z</time>
      </trkpt>
      <trkpt lat="48.56637" lon="-3.33661">
        <ele>191.44</ele>
        <time>2013-05-07T15:27:40Z</time>
      </trkpt>
      <trkpt lat="48.56633" lon="-3.33664">
        <ele>191.44</ele>
        <time>2013-05-07T15:27:41Z</time>
      </trkpt>
      <trkpt lat="48.5663" lon="-3.33669">
        <ele>190.96</ele>
        <time>2013-05-07T15:27:42Z</time>
      </trkpt>
      <trkpt lat="48.56628" lon="-3.33675">
        <ele>190.96</ele>
        <time>2013-05-07T15:27:43Z</time>
      </trkpt>
      <trkpt lat="48.56627" lon="-3.33679">
        <ele>190.48</ele>
        <time>2013-05-07T15:27:44Z</time>
      </trkpt>
      <trkpt lat="48.56628" lon="-3.33682">
        <ele>190.48</ele>
        <time>2013-05-07T15:27:50Z</time>
      </trkpt>
      <trkpt lat="48.56628" lon="-3.33685">
        <ele>190</ele>
        <time>2013-05-07T15:27:51Z</time>
      </trkpt>
      <trkpt lat="48.56628" lon="-3.33688">
        <ele>190</ele>
        <time>2013-05-07T15:27:52Z</time>
      </trkpt>
      <trkpt lat="48.56628" lon="-3.33693">
        <ele>190.96</ele>
        <time>2013-05-07T15:27:53Z</time>
      </trkpt>
      <trkpt lat="48.56628" lon="-3.33699">
        <ele>190.48</ele>
        <time>2013-05-07T15:27:54Z</time>
      </trkpt>
      <trkpt lat="48.56628" lon="-3.33706">
        <ele>189.52</ele>
        <time>2013-05-07T15:27:55Z</time>
      </trkpt>
      <trkpt lat="48.56627" lon="-3.33714">
        <ele>189.04</ele>
        <time>2013-05-07T15:27:56Z</time>
      </trkpt>
      <trkpt lat="48.56618" lon="-3.3384">
        <ele>187.11</ele>
        <time>2013-05-07T15:28:08Z</time>
      </trkpt>
      <trkpt lat="48.56597" lon="-3.33967">
        <ele>183.75</ele>
        <time>2013-05-07T15:28:19Z</time>
      </trkpt>
      <trkpt lat="48.56594" lon="-3.33977">
        <ele>183.27</ele>
        <time>2013-05-07T15:28:20Z</time>
      </trkpt>
      <trkpt lat="48.56547" lon="-3.341">
        <ele>181.83</ele>
        <time>2013-05-07T15:28:33Z</time>
      </trkpt>
      <trkpt lat="48.56488" lon="-3.34255">
        <ele>181.83</ele>
        <time>2013-05-07T15:28:50Z</time>
      </trkpt>
      <trkpt lat="48.56428" lon="-3.34411">
        <ele>182.31</ele>
        <time>2013-05-07T15:29:08Z</time>
      </trkpt>
      <trkpt lat="48.56389" lon="-3.34513">
        <ele>178.94</ele>
        <time>2013-05-07T15:29:19Z</time>
      </trkpt>
      <trkpt lat="48.56332" lon="-3.34664">
        <ele>177.02</ele>
        <time>2013-05-07T15:29:34Z</time>
      </trkpt>
      <trkpt lat="48.5631" lon="-3.34725">
        <ele>174.14</ele>
        <time>2013-05-07T15:29:40Z</time>
      </trkpt>
      <trkpt lat="48.56277" lon="-3.34811">
        <ele>170.29</ele>
        <time>2013-05-07T15:29:47Z</time>
      </trkpt>
      <trkpt lat="48.5625" lon="-3.34883">
        <ele>167.41</ele>
        <time>2013-05-07T15:29:52Z</time>
      </trkpt>
      <trkpt lat="48.56244" lon="-3.34898">
        <ele>167.41</ele>
        <time>2013-05-07T15:29:53Z</time>
      </trkpt>
      <trkpt lat="48.56191" lon="-3.35039">
        <ele>165.96</ele>
        <time>2013-05-07T15:30:04Z</time>
      </trkpt>
      <trkpt lat="48.5612" lon="-3.35231">
        <ele>166.45</ele>
        <time>2013-05-07T15:30:23Z</time>
      </trkpt>
      <trkpt lat="48.5607" lon="-3.35363">
        <ele>166.93</ele>
        <time>2013-05-07T15:30:36Z</time>
      </trkpt>
      <trkpt lat="48.56048" lon="-3.35429">
        <ele>168.37</ele>
        <time>2013-05-07T15:30:44Z</time>
      </trkpt>
      <trkpt lat="48.56044" lon="-3.35437">
        <ele>168.85</ele>
        <time>2013-05-07T15:30:45Z</time>
      </trkpt>
      <trkpt lat="48.55998" lon="-3.35562">
        <ele>168.85</ele>
        <time>2013-05-07T15:31:00Z</time>
      </trkpt>
      <trkpt lat="48.55991" lon="-3.3558">
        <ele>168.37</ele>
        <time>2013-05-07T15:31:02Z</time>
      </trkpt>
      <trkpt lat="48.55987" lon="-3.35589">
        <ele>167.89</ele>
        <time>2013-05-07T15:31:03Z</time>
      </trkpt>
      <trkpt lat="48.55941" lon="-3.35712">
        <ele>170.77</ele>
        <time>2013-05-07T15:31:17Z</time>
      </trkpt>
      <trkpt lat="48.5592" lon="-3.35768">
        <ele>170.77</ele>
        <time>2013-05-07T15:31:24Z</time>
      </trkpt>
      <trkpt lat="48.55878" lon="-3.35878">
        <ele>172.21</ele>
        <time>2013-05-07T15:31:38Z</time>
      </trkpt>
      <trkpt lat="48.55834" lon="-3.35997">
        <ele>175.58</ele>
        <time>2013-05-07T15:31:53Z</time>
      </trkpt>
      <trkpt lat="48.55828" lon="-3.36014">
        <ele>172.21</ele>
        <time>2013-05-07T15:31:55Z</time>
      </trkpt>
      <trkpt lat="48.55764" lon="-3.36182">
        <ele>173.17</ele>
        <time>2013-05-07T15:32:14Z</time>
      </trkpt>
      <trkpt lat="48.55718" lon="-3.36307">
        <ele>170.29</ele>
        <time>2013-05-07T15:32:27Z</time>
      </trkpt>
      <trkpt lat="48.55701" lon="-3.36348">
        <ele>168.37</ele>
        <time>2013-05-07T15:32:31Z</time>
      </trkpt>
      <trkpt lat="48.5566" lon="-3.36453">
        <ele>165</ele>
        <time>2013-05-07T15:32:41Z</time>
      </trkpt>
      <trkpt lat="48.55594" lon="-3.36624">
        <ele>163.56</ele>
        <time>2013-05-07T15:32:58Z</time>
      </trkpt>
      <trkpt lat="48.55552" lon="-3.36732">
        <ele>162.12</ele>
        <time>2013-05-07T15:33:09Z</time>
      </trkpt>
      <trkpt lat="48.55548" lon="-3.36741">
        <ele>160.68</ele>
        <time>2013-05-07T15:33:10Z</time>
      </trkpt>
      <trkpt lat="48.55544" lon="-3.36751">
        <ele>160.2</ele>
        <time>2013-05-07T15:33:11Z</time>
      </trkpt>
      <trkpt lat="48.55505" lon="-3.36866">
        <ele>156.35</ele>
        <time>2013-05-07T15:33:21Z</time>
      </trkpt>
      <trkpt lat="48.55471" lon="-3.36954">
        <ele>152.99</ele>
        <time>2013-05-07T15:33:28Z</time>
      </trkpt>
      <trkpt lat="48.55407" lon="-3.37093">
        <ele>150.1</ele>
        <time>2013-05-07T15:33:41Z</time>
      </trkpt>
      <trkpt lat="48.55337" lon="-3.37177">
        <ele>150.58</ele>
        <time>2013-05-07T15:33:53Z</time>
      </trkpt>
      <trkpt lat="48.55239" lon="-3.3725">
        <ele>151.06</ele>
        <time>2013-05-07T15:34:10Z</time>
      </trkpt>
      <trkpt lat="48.55203" lon="-3.37287">
        <ele>150.1</ele>
        <time>2013-05-07T15:34:16Z</time>
      </trkpt>
      <trkpt lat="48.55198" lon="-3.37295">
        <ele>150.1</ele>
        <time>2013-05-07T15:34:17Z</time>
      </trkpt>
      <trkpt lat="48.55193" lon="-3.37304">
        <ele>150.1</ele>
        <time>2013-05-07T15:34:18Z</time>
      </trkpt>
      <trkpt lat="48.55188" lon="-3.37313">
        <ele>149.62</ele>
        <time>2013-05-07T15:34:19Z</time>
      </trkpt>
      <trkpt lat="48.55183" lon="-3.37323">
        <ele>149.14</ele>
        <time>2013-05-07T15:34:20Z</time>
      </trkpt>
      <trkpt lat="48.5518" lon="-3.37334">
        <ele>149.62</ele>
        <time>2013-05-07T15:34:21Z</time>
      </trkpt>
      <trkpt lat="48.55176" lon="-3.37345">
        <ele>149.14</ele>
        <time>2013-05-07T15:34:22Z</time>
      </trkpt>
      <trkpt lat="48.55174" lon="-3.37356">
        <ele>148.66</ele>
        <time>2013-05-07T15:34:23Z</time>
      </trkpt>
      <trkpt lat="48.55171" lon="-3.37367">
        <ele>149.14</ele>
        <time>2013-05-07T15:34:24Z</time>
      </trkpt>
      <trkpt lat="48.55169" lon="-3.37378">
        <ele>149.14</ele>
        <time>2013-05-07T15:34:25Z</time>
      </trkpt>
      <trkpt lat="48.55154" lon="-3.3756">
        <ele>146.26</ele>
        <time>2013-05-07T15:34:41Z</time>
      </trkpt>
      <trkpt lat="48.55141" lon="-3.37754">
        <ele>144.34</ele>
        <time>2013-05-07T15:34:58Z</time>
      </trkpt>
      <trkpt lat="48.55138" lon="-3.37776">
        <ele>143.85</ele>
        <time>2013-05-07T15:35:00Z</time>
      </trkpt>
      <trkpt lat="48.55119" lon="-3.37836">
        <ele>143.37</ele>
        <time>2013-05-07T15:35:06Z</time>
      </trkpt>
      <trkpt lat="48.55115" lon="-3.37844">
        <ele>143.85</ele>
        <time>2013-05-07T15:35:07Z</time>
      </trkpt>
      <trkpt lat="48.55095" lon="-3.37896">
        <ele>145.3</ele>
        <time>2013-05-07T15:35:14Z</time>
      </trkpt>
      <trkpt lat="48.55054" lon="-3.38008">
        <ele>145.78</ele>
        <time>2013-05-07T15:35:28Z</time>
      </trkpt>
      <trkpt lat="48.54998" lon="-3.38152">
        <ele>148.18</ele>
        <time>2013-05-07T15:35:45Z</time>
      </trkpt>
      <trkpt lat="48.54987" lon="-3.38178">
        <ele>148.66</ele>
        <time>2013-05-07T15:35:49Z</time>
      </trkpt>
      <trkpt lat="48.54947" lon="-3.38284">
        <ele>150.1</ele>
        <time>2013-05-07T15:36:04Z</time>
      </trkpt>
      <trkpt lat="48.54917" lon="-3.3835">
        <ele>150.58</ele>
        <time>2013-05-07T15:36:14Z</time>
      </trkpt>
      <trkpt lat="48.54905" lon="-3.38369">
        <ele>150.58</ele>
        <time>2013-05-07T15:36:17Z</time>
      </trkpt>
      <trkpt lat="48.54885" lon="-3.3839">
        <ele>150.58</ele>
        <time>2013-05-07T15:36:21Z</time>
      </trkpt>
      <trkpt lat="48.54806" lon="-3.38458">
        <ele>147.7</ele>
        <time>2013-05-07T15:36:34Z</time>
      </trkpt>
      <trkpt lat="48.5476" lon="-3.38527">
        <ele>144.82</ele>
        <time>2013-05-07T15:36:43Z</time>
      </trkpt>
      <trkpt lat="48.547" lon="-3.386">
        <ele>142.89</ele>
        <time>2013-05-07T15:36:53Z</time>
      </trkpt>
      <trkpt lat="48.54696" lon="-3.3861">
        <ele>142.89</ele>
        <time>2013-05-07T15:36:54Z</time>
      </trkpt>
      <trkpt lat="48.54691" lon="-3.3862">
        <ele>142.41</ele>
        <time>2013-05-07T15:36:55Z</time>
      </trkpt>
      <trkpt lat="48.54688" lon="-3.38631">
        <ele>140.97</ele>
        <time>2013-05-07T15:36:56Z</time>
      </trkpt>
      <trkpt lat="48.54684" lon="-3.38642">
        <ele>140.49</ele>
        <time>2013-05-07T15:36:57Z</time>
      </trkpt>
      <trkpt lat="48.54681" lon="-3.38654">
        <ele>140.49</ele>
        <time>2013-05-07T15:36:58Z</time>
      </trkpt>
      <trkpt lat="48.54669" lon="-3.38772">
        <ele>137.13</ele>
        <time>2013-05-07T15:37:08Z</time>
      </trkpt>
      <trkpt lat="48.54669" lon="-3.38784">
        <ele>137.13</ele>
        <time>2013-05-07T15:37:09Z</time>
      </trkpt>
      <trkpt lat="48.5467" lon="-3.38797">
        <ele>136.64</ele>
        <time>2013-05-07T15:37:10Z</time>
      </trkpt>
      <trkpt lat="48.5468" lon="-3.38878">
        <ele>134.72</ele>
        <time>2013-05-07T15:37:16Z</time>
      </trkpt>
      <trkpt lat="48.5468" lon="-3.38892">
        <ele>133.76</ele>
        <time>2013-05-07T15:37:17Z</time>
      </trkpt>
      <trkpt lat="48.54679" lon="-3.38906">
        <ele>134.24</ele>
        <time>2013-05-07T15:37:18Z</time>
      </trkpt>
      <trkpt lat="48.54678" lon="-3.38919">
        <ele>134.24</ele>
        <time>2013-05-07T15:37:19Z</time>
      </trkpt>
      <trkpt lat="48.54676" lon="-3.38932">
        <ele>134.24</ele>
        <time>2013-05-07T15:37:20Z</time>
      </trkpt>
      <trkpt lat="48.54673" lon="-3.38944">
        <ele>132.8</ele>
        <time>2013-05-07T15:37:21Z</time>
      </trkpt>
      <trkpt lat="48.5467" lon="-3.38956">
        <ele>132.32</ele>
        <time>2013-05-07T15:37:22Z</time>
      </trkpt>
      <trkpt lat="48.54667" lon="-3.38966">
        <ele>132.32</ele>
        <time>2013-05-07T15:37:23Z</time>
      </trkpt>
      <trkpt lat="48.54663" lon="-3.38976">
        <ele>131.36</ele>
        <time>2013-05-07T15:37:24Z</time>
      </trkpt>
      <trkpt lat="48.54658" lon="-3.38987">
        <ele>130.88</ele>
        <time>2013-05-07T15:37:25Z</time>
      </trkpt>
      <trkpt lat="48.54652" lon="-3.38996">
        <ele>130.88</ele>
        <time>2013-05-07T15:37:26Z</time>
      </trkpt>
      <trkpt lat="48.54621" lon="-3.39028">
        <ele>129.43</ele>
        <time>2013-05-07T15:37:30Z</time>
      </trkpt>
      <trkpt lat="48.54613" lon="-3.39039">
        <ele>129.43</ele>
        <time>2013-05-07T15:37:31Z</time>
      </trkpt>
      <trkpt lat="48.54534" lon="-3.39156">
        <ele>125.59</ele>
        <time>2013-05-07T15:37:42Z</time>
      </trkpt>
      <trkpt lat="48.54526" lon="-3.39164">
        <ele>126.07</ele>
        <time>2013-05-07T15:37:43Z</time>
      </trkpt>
      <trkpt lat="48.54477" lon="-3.39211">
        <ele>122.71</ele>
        <time>2013-05-07T15:37:49Z</time>
      </trkpt>
      <trkpt lat="48.54469" lon="-3.39218">
        <ele>122.71</ele>
        <time>2013-05-07T15:37:50Z</time>
      </trkpt>
      <trkpt lat="48.54392" lon="-3.39271">
        <ele>119.82</ele>
        <time>2013-05-07T15:37:59Z</time>
      </trkpt>
      <trkpt lat="48.54382" lon="-3.39272">
        <ele>119.82</ele>
        <time>2013-05-07T15:38:00Z</time>
      </trkpt>
      <trkpt lat="48.54372" lon="-3.39271">
        <ele>119.34</ele>
        <time>2013-05-07T15:38:01Z</time>
      </trkpt>
      <trkpt lat="48.54363" lon="-3.3927">
        <ele>118.86</ele>
        <time>2013-05-07T15:38:02Z</time>
      </trkpt>
      <trkpt lat="48.54354" lon="-3.39268">
        <ele>118.86</ele>
        <time>2013-05-07T15:38:03Z</time>
      </trkpt>
      <trkpt lat="48.54311" lon="-3.39249">
        <ele>115.98</ele>
        <time>2013-05-07T15:38:08Z</time>
      </trkpt>
      <trkpt lat="48.54286" lon="-3.39236">
        <ele>114.53</ele>
        <time>2013-05-07T15:38:11Z</time>
      </trkpt>
      <trkpt lat="48.54277" lon="-3.39233">
        <ele>114.53</ele>
        <time>2013-05-07T15:38:12Z</time>
      </trkpt>
      <trkpt lat="48.54268" lon="-3.39232">
        <ele>113.57</ele>
        <time>2013-05-07T15:38:13Z</time>
      </trkpt>
      <trkpt lat="48.54259" lon="-3.39232">
        <ele>113.57</ele>
        <time>2013-05-07T15:38:14Z</time>
      </trkpt>
      <trkpt lat="48.5425" lon="-3.39233">
        <ele>113.57</ele>
        <time>2013-05-07T15:38:15Z</time>
      </trkpt>
      <trkpt lat="48.54241" lon="-3.39236">
        <ele>112.61</ele>
        <time>2013-05-07T15:38:16Z</time>
      </trkpt>
      <trkpt lat="48.54231" lon="-3.39239">
        <ele>112.61</ele>
        <time>2013-05-07T15:38:17Z</time>
      </trkpt>
      <trkpt lat="48.54223" lon="-3.39244">
        <ele>112.13</ele>
        <time>2013-05-07T15:38:18Z</time>
      </trkpt>
      <trkpt lat="48.54216" lon="-3.39251">
        <ele>111.65</ele>
        <time>2013-05-07T15:38:19Z</time>
      </trkpt>
      <trkpt lat="48.54208" lon="-3.39258">
        <ele>111.17</ele>
        <time>2013-05-07T15:38:20Z</time>
      </trkpt>
      <trkpt lat="48.54202" lon="-3.39267">
        <ele>111.17</ele>
        <time>2013-05-07T15:38:21Z</time>
      </trkpt>
      <trkpt lat="48.54196" lon="-3.39277">
        <ele>110.69</ele>
        <time>2013-05-07T15:38:22Z</time>
      </trkpt>
      <trkpt lat="48.54192" lon="-3.39287">
        <ele>110.21</ele>
        <time>2013-05-07T15:38:23Z</time>
      </trkpt>
      <trkpt lat="48.54189" lon="-3.39298">
        <ele>110.21</ele>
        <time>2013-05-07T15:38:24Z</time>
      </trkpt>
      <trkpt lat="48.54186" lon="-3.39309">
        <ele>109.73</ele>
        <time>2013-05-07T15:38:25Z</time>
      </trkpt>
      <trkpt lat="48.54183" lon="-3.3932">
        <ele>109.25</ele>
        <time>2013-05-07T15:38:26Z</time>
      </trkpt>
      <trkpt lat="48.54181" lon="-3.39332">
        <ele>109.25</ele>
        <time>2013-05-07T15:38:27Z</time>
      </trkpt>
      <trkpt lat="48.54181" lon="-3.39344">
        <ele>108.77</ele>
        <time>2013-05-07T15:38:28Z</time>
      </trkpt>
      <trkpt lat="48.54181" lon="-3.39357">
        <ele>109.25</ele>
        <time>2013-05-07T15:38:29Z</time>
      </trkpt>
      <trkpt lat="48.54183" lon="-3.39369">
        <ele>108.77</ele>
        <time>2013-05-07T15:38:30Z</time>
      </trkpt>
      <trkpt lat="48.54186" lon="-3.39394">
        <ele>108.29</ele>
        <time>2013-05-07T15:38:32Z</time>
      </trkpt>
      <trkpt lat="48.54189" lon="-3.39407">
        <ele>107.81</ele>
        <time>2013-05-07T15:38:33Z</time>
      </trkpt>
      <trkpt lat="48.54197" lon="-3.39432">
        <ele>107.81</ele>
        <time>2013-05-07T15:38:35Z</time>
      </trkpt>
      <trkpt lat="48.54202" lon="-3.39443">
        <ele>107.81</ele>
        <time>2013-05-07T15:38:36Z</time>
      </trkpt>
      <trkpt lat="48.54207" lon="-3.39454">
        <ele>107.32</ele>
        <time>2013-05-07T15:38:37Z</time>
      </trkpt>
      <trkpt lat="48.54224" lon="-3.39485">
        <ele>105.4</ele>
        <time>2013-05-07T15:38:40Z</time>
      </trkpt>
      <trkpt lat="48.54275" lon="-3.39555">
        <ele>102.52</ele>
        <time>2013-05-07T15:38:48Z</time>
      </trkpt>
      <trkpt lat="48.54281" lon="-3.39565">
        <ele>102.04</ele>
        <time>2013-05-07T15:38:49Z</time>
      </trkpt>
      <trkpt lat="48.54287" lon="-3.39575">
        <ele>102.04</ele>
        <time>2013-05-07T15:38:50Z</time>
      </trkpt>
      <trkpt lat="48.5429" lon="-3.39587">
        <ele>101.56</ele>
        <time>2013-05-07T15:38:51Z</time>
      </trkpt>
      <trkpt lat="48.54297" lon="-3.39696">
        <ele>99.15</ele>
        <time>2013-05-07T15:38:59Z</time>
      </trkpt>
      <trkpt lat="48.54303" lon="-3.39721">
        <ele>99.15</ele>
        <time>2013-05-07T15:39:01Z</time>
      </trkpt>
      <trkpt lat="48.54311" lon="-3.39739">
        <ele>97.23</ele>
        <time>2013-05-07T15:39:03Z</time>
      </trkpt>
      <trkpt lat="48.54315" lon="-3.39747">
        <ele>97.23</ele>
        <time>2013-05-07T15:39:04Z</time>
      </trkpt>
      <trkpt lat="48.54319" lon="-3.39753">
        <ele>96.27</ele>
        <time>2013-05-07T15:39:05Z</time>
      </trkpt>
      <trkpt lat="48.54326" lon="-3.39767">
        <ele>95.79</ele>
        <time>2013-05-07T15:39:08Z</time>
      </trkpt>
      <trkpt lat="48.54325" lon="-3.39771">
        <ele>95.79</ele>
        <time>2013-05-07T15:39:09Z</time>
      </trkpt>
      <trkpt lat="48.54321" lon="-3.39775">
        <ele>96.27</ele>
        <time>2013-05-07T15:39:10Z</time>
      </trkpt>
      <trkpt lat="48.54316" lon="-3.39779">
        <ele>96.27</ele>
        <time>2013-05-07T15:39:11Z</time>
      </trkpt>
      <trkpt lat="48.5431" lon="-3.39781">
        <ele>96.27</ele>
        <time>2013-05-07T15:39:12Z</time>
      </trkpt>
      <trkpt lat="48.54283" lon="-3.39791">
        <ele>98.19</ele>
        <time>2013-05-07T15:39:18Z</time>
      </trkpt>
      <trkpt lat="48.54279" lon="-3.39794">
        <ele>98.19</ele>
        <time>2013-05-07T15:39:19Z</time>
      </trkpt>
      <trkpt lat="48.54275" lon="-3.39797">
        <ele>98.67</ele>
        <time>2013-05-07T15:39:20Z</time>
      </trkpt>
      <trkpt lat="48.54271" lon="-3.39799">
        <ele>98.67</ele>
        <time>2013-05-07T15:39:21Z</time>
      </trkpt>
      <trkpt lat="48.54267" lon="-3.398">
        <ele>99.15</ele>
        <time>2013-05-07T15:39:22Z</time>
      </trkpt>
      <trkpt lat="48.54264" lon="-3.39801">
        <ele>99.15</ele>
        <time>2013-05-07T15:39:23Z</time>
      </trkpt>
      <trkpt lat="48.54251" lon="-3.39801">
        <ele>99.63</ele>
        <time>2013-05-07T15:39:33Z</time>
      </trkpt>
      <trkpt lat="48.5425" lon="-3.39801">
        <ele>99.63</ele>
        <time>2013-05-07T15:39:35Z</time>
      </trkpt>
      <trkpt lat="48.54246" lon="-3.39806">
        <ele>101.56</ele>
        <time>2013-05-07T15:39:46Z</time>
      </trkpt>
      <trkpt lat="48.54242" lon="-3.39812">
        <ele>100.6</ele>
        <time>2013-05-07T15:40:16Z</time>
      </trkpt>
      <trkpt lat="48.54242" lon="-3.39812">
        <ele>100.11</ele>
        <time>2013-05-07T15:40:45Z</time>
      </trkpt>
      <trkpt lat="48.54241" lon="-3.39814">
        <ele>100.11</ele>
        <time>2013-05-07T15:41:01Z</time>
      </trkpt>
      <trkpt lat="48.54237" lon="-3.39818">
        <ele>100.11</ele>
        <time>2013-05-07T15:41:34Z</time>
      </trkpt>
      <trkpt lat="48.54236" lon="-3.39819">
        <ele>100.6</ele>
        <time>2013-05-07T15:42:05Z</time>
      </trkpt>
      <trkpt lat="48.54234" lon="-3.3982">
        <ele>100.6</ele>
        <time>2013-05-07T15:42:33Z</time>
      </trkpt>
      <trkpt lat="48.54234" lon="-3.39822">
        <ele>100.6</ele>
        <time>2013-05-07T15:43:03Z</time>
      </trkpt>
      <trkpt lat="48.54235" lon="-3.39823">
        <ele>101.08</ele>
        <time>2013-05-07T15:43:24Z</time>
      </trkpt>
      <trkpt lat="48.54235" lon="-3.39822">
        <ele>101.08</ele>
        <time>2013-05-07T15:43:30Z</time>
      </trkpt>
      <trkpt lat="48.54234" lon="-3.39822">
        <ele>101.08</ele>
        <time>2013-05-07T15:43:31Z</time>
      </trkpt>
      <trkpt lat="48.54232" lon="-3.39823">
        <ele>101.56</ele>
        <time>2013-05-07T15:43:32Z</time>
      </trkpt>
      <trkpt lat="48.5423" lon="-3.39824">
        <ele>101.56</ele>
        <time>2013-05-07T15:43:33Z</time>
      </trkpt>
      <trkpt lat="48.54228" lon="-3.39825">
        <ele>101.56</ele>
        <time>2013-05-07T15:43:34Z</time>
      </trkpt>
      <trkpt lat="48.54209" lon="-3.39834">
        <ele>103.48</ele>
        <time>2013-05-07T15:43:40Z</time>
      </trkpt>
      <trkpt lat="48.54193" lon="-3.39843">
        <ele>103.96</ele>
        <time>2013-05-07T15:43:44Z</time>
      </trkpt>
      <trkpt lat="48.54169" lon="-3.39848">
        <ele>104.92</ele>
        <time>2013-05-07T15:43:50Z</time>
      </trkpt>
      <trkpt lat="48.54135" lon="-3.39842">
        <ele>107.32</ele>
        <time>2013-05-07T15:44:01Z</time>
      </trkpt>
      <trkpt lat="48.54104" lon="-3.39847">
        <ele>110.21</ele>
        <time>2013-05-07T15:44:12Z</time>
      </trkpt>
      <trkpt lat="48.541" lon="-3.39896">
        <ele>112.13</ele>
        <time>2013-05-07T15:44:23Z</time>
      </trkpt>
      <trkpt lat="48.54116" lon="-3.39959">
        <ele>114.53</ele>
        <time>2013-05-07T15:44:37Z</time>
      </trkpt>
      <trkpt lat="48.54136" lon="-3.40019">
        <ele>117.42</ele>
        <time>2013-05-07T15:44:51Z</time>
      </trkpt>
      <trkpt lat="48.54151" lon="-3.40061">
        <ele>119.82</ele>
        <time>2013-05-07T15:45:01Z</time>
      </trkpt>
      <trkpt lat="48.54111" lon="-3.40108">
        <ele>121.74</ele>
        <time>2013-05-07T15:45:11Z</time>
      </trkpt>
      <trkpt lat="48.54076" lon="-3.40153">
        <ele>125.11</ele>
        <time>2013-05-07T15:45:23Z</time>
      </trkpt>
      <trkpt lat="48.5405" lon="-3.40227">
        <ele>127.51</ele>
        <time>2013-05-07T15:45:38Z</time>
      </trkpt>
      <trkpt lat="48.54036" lon="-3.40287">
        <ele>130.88</ele>
        <time>2013-05-07T15:45:50Z</time>
      </trkpt>
      <trkpt lat="48.54028" lon="-3.40371">
        <ele>131.84</ele>
        <time>2013-05-07T15:46:05Z</time>
      </trkpt>
      <trkpt lat="48.54032" lon="-3.40449">
        <ele>134.72</ele>
        <time>2013-05-07T15:46:19Z</time>
      </trkpt>
      <trkpt lat="48.54039" lon="-3.40528">
        <ele>137.13</ele>
        <time>2013-05-07T15:46:33Z</time>
      </trkpt>
      <trkpt lat="48.54022" lon="-3.40629">
        <ele>139.05</ele>
        <time>2013-05-07T15:46:49Z</time>
      </trkpt>
      <trkpt lat="48.54008" lon="-3.40709">
        <ele>142.41</ele>
        <time>2013-05-07T15:47:02Z</time>
      </trkpt>
      <trkpt lat="48.53991" lon="-3.40797">
        <ele>143.85</ele>
        <time>2013-05-07T15:47:17Z</time>
      </trkpt>
      <trkpt lat="48.53979" lon="-3.40881">
        <ele>145.78</ele>
        <time>2013-05-07T15:47:32Z</time>
      </trkpt>
      <trkpt lat="48.53966" lon="-3.40931">
        <ele>149.14</ele>
        <time>2013-05-07T15:47:40Z</time>
      </trkpt>
      <trkpt lat="48.53966" lon="-3.40937">
        <ele>149.14</ele>
        <time>2013-05-07T15:47:41Z</time>
      </trkpt>
      <trkpt lat="48.53956" lon="-3.41024">
        <ele>151.06</ele>
        <time>2013-05-07T15:47:55Z</time>
      </trkpt>
      <trkpt lat="48.53941" lon="-3.41123">
        <ele>153.95</ele>
        <time>2013-05-07T15:48:11Z</time>
      </trkpt>
      <trkpt lat="48.5394" lon="-3.4113">
        <ele>153.47</ele>
        <time>2013-05-07T15:48:12Z</time>
      </trkpt>
      <trkpt lat="48.53939" lon="-3.41137">
        <ele>153.95</ele>
        <time>2013-05-07T15:48:13Z</time>
      </trkpt>
      <trkpt lat="48.53937" lon="-3.41181">
        <ele>152.99</ele>
        <time>2013-05-07T15:48:18Z</time>
      </trkpt>
      <trkpt lat="48.53937" lon="-3.4119">
        <ele>152.51</ele>
        <time>2013-05-07T15:48:19Z</time>
      </trkpt>
      <trkpt lat="48.53937" lon="-3.41198">
        <ele>152.03</ele>
        <time>2013-05-07T15:48:20Z</time>
      </trkpt>
      <trkpt lat="48.53937" lon="-3.41207">
        <ele>151.54</ele>
        <time>2013-05-07T15:48:21Z</time>
      </trkpt>
      <trkpt lat="48.53938" lon="-3.41217">
        <ele>152.03</ele>
        <time>2013-05-07T15:48:22Z</time>
      </trkpt>
      <trkpt lat="48.5394" lon="-3.41227">
        <ele>151.06</ele>
        <time>2013-05-07T15:48:23Z</time>
      </trkpt>
      <trkpt lat="48.53941" lon="-3.41238">
        <ele>150.58</ele>
        <time>2013-05-07T15:48:24Z</time>
      </trkpt>
      <trkpt lat="48.5394" lon="-3.41249">
        <ele>150.58</ele>
        <time>2013-05-07T15:48:25Z</time>
      </trkpt>
      <trkpt lat="48.5394" lon="-3.4126">
        <ele>150.58</ele>
        <time>2013-05-07T15:48:26Z</time>
      </trkpt>
      <trkpt lat="48.53939" lon="-3.41272">
        <ele>150.1</ele>
        <time>2013-05-07T15:48:27Z</time>
      </trkpt>
      <trkpt lat="48.53937" lon="-3.41284">
        <ele>150.1</ele>
        <time>2013-05-07T15:48:28Z</time>
      </trkpt>
      <trkpt lat="48.53935" lon="-3.41294">
        <ele>150.58</ele>
        <time>2013-05-07T15:48:29Z</time>
      </trkpt>
      <trkpt lat="48.53932" lon="-3.41303">
        <ele>151.06</ele>
        <time>2013-05-07T15:48:30Z</time>
      </trkpt>
      <trkpt lat="48.53928" lon="-3.41312">
        <ele>152.03</ele>
        <time>2013-05-07T15:48:31Z</time>
      </trkpt>
      <trkpt lat="48.53925" lon="-3.4132">
        <ele>151.54</ele>
        <time>2013-05-07T15:48:32Z</time>
      </trkpt>
      <trkpt lat="48.53921" lon="-3.41328">
        <ele>151.06</ele>
        <time>2013-05-07T15:48:33Z</time>
      </trkpt>
      <trkpt lat="48.53909" lon="-3.4135">
        <ele>151.06</ele>
        <time>2013-05-07T15:48:36Z</time>
      </trkpt>
      <trkpt lat="48.53906" lon="-3.41359">
        <ele>151.06</ele>
        <time>2013-05-07T15:48:37Z</time>
      </trkpt>
      <trkpt lat="48.5389" lon="-3.41395">
        <ele>152.03</ele>
        <time>2013-05-07T15:48:42Z</time>
      </trkpt>
      <trkpt lat="48.53888" lon="-3.41402">
        <ele>152.03</ele>
        <time>2013-05-07T15:48:43Z</time>
      </trkpt>
      <trkpt lat="48.53887" lon="-3.41409">
        <ele>152.03</ele>
        <time>2013-05-07T15:48:44Z</time>
      </trkpt>
      <trkpt lat="48.53887" lon="-3.41416">
        <ele>152.51</ele>
        <time>2013-05-07T15:48:45Z</time>
      </trkpt>
      <trkpt lat="48.53886" lon="-3.41423">
        <ele>152.99</ele>
        <time>2013-05-07T15:48:46Z</time>
      </trkpt>
      <trkpt lat="48.53886" lon="-3.41484">
        <ele>156.35</ele>
        <time>2013-05-07T15:48:56Z</time>
      </trkpt>
      <trkpt lat="48.53895" lon="-3.41569">
        <ele>157.79</ele>
        <time>2013-05-07T15:49:10Z</time>
      </trkpt>
      <trkpt lat="48.53918" lon="-3.41685">
        <ele>160.2</ele>
        <time>2013-05-07T15:49:28Z</time>
      </trkpt>
      <trkpt lat="48.53937" lon="-3.41755">
        <ele>163.08</ele>
        <time>2013-05-07T15:49:41Z</time>
      </trkpt>
      <trkpt lat="48.53949" lon="-3.41819">
        <ele>166.45</ele>
        <time>2013-05-07T15:49:53Z</time>
      </trkpt>
      <trkpt lat="48.53957" lon="-3.41926">
        <ele>167.41</ele>
        <time>2013-05-07T15:50:10Z</time>
      </trkpt>
      <trkpt lat="48.53956" lon="-3.41935">
        <ele>166.93</ele>
        <time>2013-05-07T15:50:11Z</time>
      </trkpt>
      <trkpt lat="48.53955" lon="-3.41944">
        <ele>166.93</ele>
        <time>2013-05-07T15:50:12Z</time>
      </trkpt>
      <trkpt lat="48.53953" lon="-3.41952">
        <ele>167.41</ele>
        <time>2013-05-07T15:50:13Z</time>
      </trkpt>
      <trkpt lat="48.53951" lon="-3.41961">
        <ele>167.41</ele>
        <time>2013-05-07T15:50:14Z</time>
      </trkpt>
      <trkpt lat="48.53947" lon="-3.41968">
        <ele>166.93</ele>
        <time>2013-05-07T15:50:15Z</time>
      </trkpt>
      <trkpt lat="48.53944" lon="-3.41975">
        <ele>167.41</ele>
        <time>2013-05-07T15:50:16Z</time>
      </trkpt>
      <trkpt lat="48.53928" lon="-3.42006">
        <ele>166.93</ele>
        <time>2013-05-07T15:50:21Z</time>
      </trkpt>
      <trkpt lat="48.53883" lon="-3.42083">
        <ele>168.37</ele>
        <time>2013-05-07T15:50:36Z</time>
      </trkpt>
      <trkpt lat="48.53846" lon="-3.42143">
        <ele>170.77</ele>
        <time>2013-05-07T15:50:49Z</time>
      </trkpt>
      <trkpt lat="48.53799" lon="-3.4224">
        <ele>172.21</ele>
        <time>2013-05-07T15:51:07Z</time>
      </trkpt>
      <trkpt lat="48.5379" lon="-3.42265">
        <ele>171.25</ele>
        <time>2013-05-07T15:51:11Z</time>
      </trkpt>
      <trkpt lat="48.53777" lon="-3.42311">
        <ele>172.69</ele>
        <time>2013-05-07T15:51:18Z</time>
      </trkpt>
      <trkpt lat="48.53757" lon="-3.42394">
        <ele>171.25</ele>
        <time>2013-05-07T15:51:29Z</time>
      </trkpt>
      <trkpt lat="48.53752" lon="-3.42483">
        <ele>170.77</ele>
        <time>2013-05-07T15:51:41Z</time>
      </trkpt>
      <trkpt lat="48.53747" lon="-3.42583">
        <ele>173.66</ele>
        <time>2013-05-07T15:51:55Z</time>
      </trkpt>
      <trkpt lat="48.53739" lon="-3.42672">
        <ele>177.02</ele>
        <time>2013-05-07T15:52:09Z</time>
      </trkpt>
      <trkpt lat="48.53735" lon="-3.42788">
        <ele>180.38</ele>
        <time>2013-05-07T15:52:27Z</time>
      </trkpt>
      <trkpt lat="48.53735" lon="-3.42799">
        <ele>180.38</ele>
        <time>2013-05-07T15:52:29Z</time>
      </trkpt>
      <trkpt lat="48.53735" lon="-3.42805">
        <ele>180.87</ele>
        <time>2013-05-07T15:52:30Z</time>
      </trkpt>
      <trkpt lat="48.53731" lon="-3.42878">
        <ele>183.75</ele>
        <time>2013-05-07T15:52:43Z</time>
      </trkpt>
      <trkpt lat="48.53731" lon="-3.42954">
        <ele>186.63</ele>
        <time>2013-05-07T15:52:56Z</time>
      </trkpt>
      <trkpt lat="48.53744" lon="-3.43017">
        <ele>187.59</ele>
        <time>2013-05-07T15:53:06Z</time>
      </trkpt>
      <trkpt lat="48.53743" lon="-3.43063">
        <ele>188.56</ele>
        <time>2013-05-07T15:53:12Z</time>
      </trkpt>
      <trkpt lat="48.53733" lon="-3.4312">
        <ele>189.52</ele>
        <time>2013-05-07T15:53:20Z</time>
      </trkpt>
      <trkpt lat="48.53731" lon="-3.43127">
        <ele>190</ele>
        <time>2013-05-07T15:53:21Z</time>
      </trkpt>
      <trkpt lat="48.53729" lon="-3.43133">
        <ele>190</ele>
        <time>2013-05-07T15:53:22Z</time>
      </trkpt>
      <trkpt lat="48.53728" lon="-3.43139">
        <ele>190</ele>
        <time>2013-05-07T15:53:23Z</time>
      </trkpt>
      <trkpt lat="48.53726" lon="-3.43146">
        <ele>190</ele>
        <time>2013-05-07T15:53:24Z</time>
      </trkpt>
      <trkpt lat="48.53725" lon="-3.43152">
        <ele>190</ele>
        <time>2013-05-07T15:53:25Z</time>
      </trkpt>
      <trkpt lat="48.53723" lon="-3.43159">
        <ele>190</ele>
        <time>2013-05-07T15:53:26Z</time>
      </trkpt>
      <trkpt lat="48.53718" lon="-3.43193">
        <ele>190.48</ele>
        <time>2013-05-07T15:53:31Z</time>
      </trkpt>
      <trkpt lat="48.53719" lon="-3.432">
        <ele>190.48</ele>
        <time>2013-05-07T15:53:32Z</time>
      </trkpt>
      <trkpt lat="48.53722" lon="-3.4322">
        <ele>191.44</ele>
        <time>2013-05-07T15:53:35Z</time>
      </trkpt>
      <trkpt lat="48.5373" lon="-3.43259">
        <ele>193.36</ele>
        <time>2013-05-07T15:53:41Z</time>
      </trkpt>
      <trkpt lat="48.53724" lon="-3.4335">
        <ele>195.28</ele>
        <time>2013-05-07T15:53:54Z</time>
      </trkpt>
      <trkpt lat="48.53721" lon="-3.43364">
        <ele>195.77</ele>
        <time>2013-05-07T15:53:56Z</time>
      </trkpt>
      <trkpt lat="48.53719" lon="-3.43371">
        <ele>195.77</ele>
        <time>2013-05-07T15:53:57Z</time>
      </trkpt>
      <trkpt lat="48.53694" lon="-3.43465">
        <ele>192.88</ele>
        <time>2013-05-07T15:54:09Z</time>
      </trkpt>
      <trkpt lat="48.53682" lon="-3.43507">
        <ele>193.36</ele>
        <time>2013-05-07T15:54:14Z</time>
      </trkpt>
      <trkpt lat="48.53672" lon="-3.43529">
        <ele>192.88</ele>
        <time>2013-05-07T15:54:17Z</time>
      </trkpt>
      <trkpt lat="48.53665" lon="-3.43544">
        <ele>192.88</ele>
        <time>2013-05-07T15:54:19Z</time>
      </trkpt>
      <trkpt lat="48.53639" lon="-3.43614">
        <ele>192.88</ele>
        <time>2013-05-07T15:54:28Z</time>
      </trkpt>
      <trkpt lat="48.53638" lon="-3.43623">
        <ele>192.4</ele>
        <time>2013-05-07T15:54:29Z</time>
      </trkpt>
      <trkpt lat="48.5364" lon="-3.43631">
        <ele>191.92</ele>
        <time>2013-05-07T15:54:30Z</time>
      </trkpt>
      <trkpt lat="48.53644" lon="-3.43638">
        <ele>191.92</ele>
        <time>2013-05-07T15:54:31Z</time>
      </trkpt>
      <trkpt lat="48.53648" lon="-3.43644">
        <ele>191.92</ele>
        <time>2013-05-07T15:54:32Z</time>
      </trkpt>
      <trkpt lat="48.53652" lon="-3.43649">
        <ele>191.92</ele>
        <time>2013-05-07T15:54:33Z</time>
      </trkpt>
      <trkpt lat="48.53669" lon="-3.43665">
        <ele>192.4</ele>
        <time>2013-05-07T15:54:37Z</time>
      </trkpt>
      <trkpt lat="48.53673" lon="-3.43668">
        <ele>192.88</ele>
        <time>2013-05-07T15:54:38Z</time>
      </trkpt>
      <trkpt lat="48.53713" lon="-3.43727">
        <ele>192.4</ele>
        <time>2013-05-07T15:54:51Z</time>
      </trkpt>
      <trkpt lat="48.53729" lon="-3.4375">
        <ele>192.4</ele>
        <time>2013-05-07T15:54:55Z</time>
      </trkpt>
      <trkpt lat="48.53733" lon="-3.43756">
        <ele>191.92</ele>
        <time>2013-05-07T15:54:56Z</time>
      </trkpt>
      <trkpt lat="48.53737" lon="-3.43762">
        <ele>191.92</ele>
        <time>2013-05-07T15:54:57Z</time>
      </trkpt>
      <trkpt lat="48.53742" lon="-3.43769">
        <ele>191.92</ele>
        <time>2013-05-07T15:54:58Z</time>
      </trkpt>
      <trkpt lat="48.53747" lon="-3.43775">
        <ele>191.92</ele>
        <time>2013-05-07T15:54:59Z</time>
      </trkpt>
      <trkpt lat="48.53753" lon="-3.43782">
        <ele>191.44</ele>
        <time>2013-05-07T15:55:00Z</time>
      </trkpt>
      <trkpt lat="48.53806" lon="-3.43827">
        <ele>190.48</ele>
        <time>2013-05-07T15:55:08Z</time>
      </trkpt>
      <trkpt lat="48.53893" lon="-3.43909">
        <ele>189.52</ele>
        <time>2013-05-07T15:55:21Z</time>
      </trkpt>
      <trkpt lat="48.53991" lon="-3.43942">
        <ele>189.04</ele>
        <time>2013-05-07T15:55:34Z</time>
      </trkpt>
      <trkpt lat="48.54109" lon="-3.43983">
        <ele>190.48</ele>
        <time>2013-05-07T15:55:50Z</time>
      </trkpt>
      <trkpt lat="48.5414" lon="-3.44">
        <ele>189.52</ele>
        <time>2013-05-07T15:55:55Z</time>
      </trkpt>
      <trkpt lat="48.54147" lon="-3.44004">
        <ele>189.04</ele>
        <time>2013-05-07T15:55:56Z</time>
      </trkpt>
      <trkpt lat="48.54153" lon="-3.44008">
        <ele>189.04</ele>
        <time>2013-05-07T15:55:57Z</time>
      </trkpt>
      <trkpt lat="48.54159" lon="-3.44013">
        <ele>189.52</ele>
        <time>2013-05-07T15:55:58Z</time>
      </trkpt>
      <trkpt lat="48.54165" lon="-3.44018">
        <ele>188.56</ele>
        <time>2013-05-07T15:55:59Z</time>
      </trkpt>
      <trkpt lat="48.5417" lon="-3.44024">
        <ele>189.04</ele>
        <time>2013-05-07T15:56:00Z</time>
      </trkpt>
      <trkpt lat="48.54176" lon="-3.44031">
        <ele>189.52</ele>
        <time>2013-05-07T15:56:01Z</time>
      </trkpt>
      <trkpt lat="48.54181" lon="-3.44038">
        <ele>189.52</ele>
        <time>2013-05-07T15:56:02Z</time>
      </trkpt>
      <trkpt lat="48.54214" lon="-3.44086">
        <ele>188.56</ele>
        <time>2013-05-07T15:56:08Z</time>
      </trkpt>
      <trkpt lat="48.5422" lon="-3.44095">
        <ele>188.56</ele>
        <time>2013-05-07T15:56:09Z</time>
      </trkpt>
      <trkpt lat="48.54263" lon="-3.44134">
        <ele>187.59</ele>
        <time>2013-05-07T15:56:15Z</time>
      </trkpt>
      <trkpt lat="48.54271" lon="-3.44137">
        <ele>187.11</ele>
        <time>2013-05-07T15:56:16Z</time>
      </trkpt>
      <trkpt lat="48.54278" lon="-3.44138">
        <ele>186.63</ele>
        <time>2013-05-07T15:56:17Z</time>
      </trkpt>
      <trkpt lat="48.54286" lon="-3.44139">
        <ele>187.11</ele>
        <time>2013-05-07T15:56:18Z</time>
      </trkpt>
      <trkpt lat="48.54294" lon="-3.44139">
        <ele>186.63</ele>
        <time>2013-05-07T15:56:19Z</time>
      </trkpt>
      <trkpt lat="48.54301" lon="-3.44139">
        <ele>186.63</ele>
        <time>2013-05-07T15:56:20Z</time>
      </trkpt>
      <trkpt lat="48.54323" lon="-3.44138">
        <ele>187.11</ele>
        <time>2013-05-07T15:56:23Z</time>
      </trkpt>
      <trkpt lat="48.54343" lon="-3.44142">
        <ele>187.11</ele>
        <time>2013-05-07T15:56:26Z</time>
      </trkpt>
      <trkpt lat="48.54349" lon="-3.44145">
        <ele>187.11</ele>
        <time>2013-05-07T15:56:27Z</time>
      </trkpt>
      <trkpt lat="48.54355" lon="-3.44149">
        <ele>187.11</ele>
        <time>2013-05-07T15:56:28Z</time>
      </trkpt>
      <trkpt lat="48.54361" lon="-3.44151">
        <ele>186.63</ele>
        <time>2013-05-07T15:56:29Z</time>
      </trkpt>
      <trkpt lat="48.54368" lon="-3.44151">
        <ele>186.15</ele>
        <time>2013-05-07T15:56:30Z</time>
      </trkpt>
      <trkpt lat="48.54374" lon="-3.44148">
        <ele>186.15</ele>
        <time>2013-05-07T15:56:31Z</time>
      </trkpt>
      <trkpt lat="48.5438" lon="-3.44144">
        <ele>186.15</ele>
        <time>2013-05-07T15:56:32Z</time>
      </trkpt>
      <trkpt lat="48.54386" lon="-3.44141">
        <ele>186.63</ele>
        <time>2013-05-07T15:56:33Z</time>
      </trkpt>
      <trkpt lat="48.54392" lon="-3.44138">
        <ele>187.11</ele>
        <time>2013-05-07T15:56:34Z</time>
      </trkpt>
      <trkpt lat="48.54397" lon="-3.44135">
        <ele>187.11</ele>
        <time>2013-05-07T15:56:35Z</time>
      </trkpt>
      <trkpt lat="48.54502" lon="-3.44098">
        <ele>188.08</ele>
        <time>2013-05-07T15:56:51Z</time>
      </trkpt>
      <trkpt lat="48.54607" lon="-3.44085">
        <ele>188.08</ele>
        <time>2013-05-07T15:57:05Z</time>
      </trkpt>
      <trkpt lat="48.54728" lon="-3.44094">
        <ele>186.63</ele>
        <time>2013-05-07T15:57:20Z</time>
      </trkpt>
      <trkpt lat="48.54849" lon="-3.44101">
        <ele>185.67</ele>
        <time>2013-05-07T15:57:35Z</time>
      </trkpt>
      <trkpt lat="48.54952" lon="-3.44096">
        <ele>186.63</ele>
        <time>2013-05-07T15:57:49Z</time>
      </trkpt>
      <trkpt lat="48.55057" lon="-3.44104">
        <ele>186.15</ele>
        <time>2013-05-07T15:58:03Z</time>
      </trkpt>
      <trkpt lat="48.55127" lon="-3.44085">
        <ele>187.11</ele>
        <time>2013-05-07T15:58:13Z</time>
      </trkpt>
      <trkpt lat="48.55134" lon="-3.44085">
        <ele>187.11</ele>
        <time>2013-05-07T15:58:14Z</time>
      </trkpt>
      <trkpt lat="48.55141" lon="-3.44086">
        <ele>187.11</ele>
        <time>2013-05-07T15:58:15Z</time>
      </trkpt>
      <trkpt lat="48.55148" lon="-3.44088">
        <ele>187.11</ele>
        <time>2013-05-07T15:58:16Z</time>
      </trkpt>
      <trkpt lat="48.55154" lon="-3.44091">
        <ele>187.59</ele>
        <time>2013-05-07T15:58:17Z</time>
      </trkpt>
      <trkpt lat="48.55224" lon="-3.44133">
        <ele>189.04</ele>
        <time>2013-05-07T15:58:28Z</time>
      </trkpt>
      <trkpt lat="48.55231" lon="-3.44135">
        <ele>189.04</ele>
        <time>2013-05-07T15:58:29Z</time>
      </trkpt>
      <trkpt lat="48.55238" lon="-3.44137">
        <ele>189.52</ele>
        <time>2013-05-07T15:58:30Z</time>
      </trkpt>
      <trkpt lat="48.55265" lon="-3.44138">
        <ele>190</ele>
        <time>2013-05-07T15:58:34Z</time>
      </trkpt>
      <trkpt lat="48.55345" lon="-3.44121">
        <ele>191.44</ele>
        <time>2013-05-07T15:58:46Z</time>
      </trkpt>
      <trkpt lat="48.55399" lon="-3.44134">
        <ele>192.88</ele>
        <time>2013-05-07T15:58:54Z</time>
      </trkpt>
      <trkpt lat="48.55405" lon="-3.44134">
        <ele>192.88</ele>
        <time>2013-05-07T15:58:55Z</time>
      </trkpt>
      <trkpt lat="48.55495" lon="-3.44102">
        <ele>195.28</ele>
        <time>2013-05-07T15:59:09Z</time>
      </trkpt>
      <trkpt lat="48.55524" lon="-3.4408">
        <ele>197.21</ele>
        <time>2013-05-07T15:59:15Z</time>
      </trkpt>
      <trkpt lat="48.55527" lon="-3.44075">
        <ele>197.69</ele>
        <time>2013-05-07T15:59:16Z</time>
      </trkpt>
      <trkpt lat="48.55531" lon="-3.44071">
        <ele>197.69</ele>
        <time>2013-05-07T15:59:17Z</time>
      </trkpt>
      <trkpt lat="48.55535" lon="-3.44069">
        <ele>197.69</ele>
        <time>2013-05-07T15:59:18Z</time>
      </trkpt>
      <trkpt lat="48.55539" lon="-3.44071">
        <ele>197.21</ele>
        <time>2013-05-07T15:59:19Z</time>
      </trkpt>
      <trkpt lat="48.55543" lon="-3.44076">
        <ele>197.69</ele>
        <time>2013-05-07T15:59:20Z</time>
      </trkpt>
      <trkpt lat="48.55546" lon="-3.44083">
        <ele>197.69</ele>
        <time>2013-05-07T15:59:21Z</time>
      </trkpt>
      <trkpt lat="48.55547" lon="-3.44091">
        <ele>197.21</ele>
        <time>2013-05-07T15:59:22Z</time>
      </trkpt>
      <trkpt lat="48.55548" lon="-3.44099">
        <ele>197.21</ele>
        <time>2013-05-07T15:59:23Z</time>
      </trkpt>
      <trkpt lat="48.55563" lon="-3.4418">
        <ele>200.57</ele>
        <time>2013-05-07T15:59:33Z</time>
      </trkpt>
      <trkpt lat="48.55567" lon="-3.44204">
        <ele>200.09</ele>
        <time>2013-05-07T15:59:36Z</time>
      </trkpt>
      <trkpt lat="48.5558" lon="-3.44279">
        <ele>202.98</ele>
        <time>2013-05-07T15:59:46Z</time>
      </trkpt>
      <trkpt lat="48.55581" lon="-3.44286">
        <ele>202.98</ele>
        <time>2013-05-07T15:59:47Z</time>
      </trkpt>
      <trkpt lat="48.55595" lon="-3.44333">
        <ele>203.46</ele>
        <time>2013-05-07T15:59:54Z</time>
      </trkpt>
      <trkpt lat="48.556" lon="-3.44345">
        <ele>204.42</ele>
        <time>2013-05-07T15:59:56Z</time>
      </trkpt>
      <trkpt lat="48.55602" lon="-3.4435">
        <ele>204.9</ele>
        <time>2013-05-07T15:59:57Z</time>
      </trkpt>
      <trkpt lat="48.55605" lon="-3.44357">
        <ele>205.38</ele>
        <time>2013-05-07T15:59:58Z</time>
      </trkpt>
      <trkpt lat="48.55616" lon="-3.4438">
        <ele>205.38</ele>
        <time>2013-05-07T16:00:02Z</time>
      </trkpt>
      <trkpt lat="48.55622" lon="-3.44399">
        <ele>207.3</ele>
        <time>2013-05-07T16:00:05Z</time>
      </trkpt>
      <trkpt lat="48.55647" lon="-3.44478">
        <ele>208.74</ele>
        <time>2013-05-07T16:00:17Z</time>
      </trkpt>
      <trkpt lat="48.55689" lon="-3.44587">
        <ele>206.34</ele>
        <time>2013-05-07T16:00:31Z</time>
      </trkpt>
      <trkpt lat="48.55727" lon="-3.44729">
        <ele>204.9</ele>
        <time>2013-05-07T16:00:45Z</time>
      </trkpt>
      <trkpt lat="48.5573" lon="-3.4474">
        <ele>204.9</ele>
        <time>2013-05-07T16:00:46Z</time>
      </trkpt>
      <trkpt lat="48.55765" lon="-3.44847">
        <ele>203.94</ele>
        <time>2013-05-07T16:00:56Z</time>
      </trkpt>
      <trkpt lat="48.55819" lon="-3.44973">
        <ele>201.05</ele>
        <time>2013-05-07T16:01:07Z</time>
      </trkpt>
      <trkpt lat="48.55853" lon="-3.45024">
        <ele>198.65</ele>
        <time>2013-05-07T16:01:12Z</time>
      </trkpt>
      <trkpt lat="48.55926" lon="-3.451">
        <ele>195.28</ele>
        <time>2013-05-07T16:01:21Z</time>
      </trkpt>
      <trkpt lat="48.55967" lon="-3.45135">
        <ele>192.88</ele>
        <time>2013-05-07T16:01:25Z</time>
      </trkpt>
      <trkpt lat="48.56023" lon="-3.45175">
        <ele>189.52</ele>
        <time>2013-05-07T16:01:30Z</time>
      </trkpt>
      <trkpt lat="48.56057" lon="-3.45196">
        <ele>187.59</ele>
        <time>2013-05-07T16:01:33Z</time>
      </trkpt>
      <trkpt lat="48.56078" lon="-3.45214">
        <ele>187.11</ele>
        <time>2013-05-07T16:01:35Z</time>
      </trkpt>
      <trkpt lat="48.56088" lon="-3.45225">
        <ele>186.15</ele>
        <time>2013-05-07T16:01:36Z</time>
      </trkpt>
      <trkpt lat="48.56109" lon="-3.45249">
        <ele>184.71</ele>
        <time>2013-05-07T16:01:38Z</time>
      </trkpt>
      <trkpt lat="48.56119" lon="-3.45262">
        <ele>185.19</ele>
        <time>2013-05-07T16:01:39Z</time>
      </trkpt>
      <trkpt lat="48.56173" lon="-3.45335">
        <ele>183.27</ele>
        <time>2013-05-07T16:01:45Z</time>
      </trkpt>
      <trkpt lat="48.56216" lon="-3.45404">
        <ele>184.23</ele>
        <time>2013-05-07T16:01:52Z</time>
      </trkpt>
      <trkpt lat="48.56226" lon="-3.45422">
        <ele>184.71</ele>
        <time>2013-05-07T16:01:54Z</time>
      </trkpt>
      <trkpt lat="48.56238" lon="-3.45438">
        <ele>184.71</ele>
        <time>2013-05-07T16:01:56Z</time>
      </trkpt>
      <trkpt lat="48.56246" lon="-3.45443">
        <ele>183.75</ele>
        <time>2013-05-07T16:01:57Z</time>
      </trkpt>
      <trkpt lat="48.56255" lon="-3.45447">
        <ele>183.75</ele>
        <time>2013-05-07T16:01:58Z</time>
      </trkpt>
      <trkpt lat="48.56265" lon="-3.45447">
        <ele>183.27</ele>
        <time>2013-05-07T16:01:59Z</time>
      </trkpt>
      <trkpt lat="48.56275" lon="-3.45445">
        <ele>182.79</ele>
        <time>2013-05-07T16:02:00Z</time>
      </trkpt>
      <trkpt lat="48.56284" lon="-3.45442">
        <ele>182.79</ele>
        <time>2013-05-07T16:02:01Z</time>
      </trkpt>
      <trkpt lat="48.56311" lon="-3.45436">
        <ele>183.75</ele>
        <time>2013-05-07T16:02:04Z</time>
      </trkpt>
      <trkpt lat="48.56319" lon="-3.45436">
        <ele>183.27</ele>
        <time>2013-05-07T16:02:05Z</time>
      </trkpt>
      <trkpt lat="48.56327" lon="-3.45437">
        <ele>183.27</ele>
        <time>2013-05-07T16:02:06Z</time>
      </trkpt>
      <trkpt lat="48.56334" lon="-3.4544">
        <ele>183.27</ele>
        <time>2013-05-07T16:02:07Z</time>
      </trkpt>
      <trkpt lat="48.56341" lon="-3.45444">
        <ele>183.75</ele>
        <time>2013-05-07T16:02:08Z</time>
      </trkpt>
      <trkpt lat="48.56348" lon="-3.45448">
        <ele>184.23</ele>
        <time>2013-05-07T16:02:09Z</time>
      </trkpt>
      <trkpt lat="48.56379" lon="-3.45465">
        <ele>186.15</ele>
        <time>2013-05-07T16:02:14Z</time>
      </trkpt>
      <trkpt lat="48.56385" lon="-3.45467">
        <ele>186.63</ele>
        <time>2013-05-07T16:02:15Z</time>
      </trkpt>
      <trkpt lat="48.56398" lon="-3.45471">
        <ele>186.63</ele>
        <time>2013-05-07T16:02:17Z</time>
      </trkpt>
      <trkpt lat="48.56405" lon="-3.45471">
        <ele>186.63</ele>
        <time>2013-05-07T16:02:18Z</time>
      </trkpt>
      <trkpt lat="48.56412" lon="-3.45471">
        <ele>187.11</ele>
        <time>2013-05-07T16:02:19Z</time>
      </trkpt>
      <trkpt lat="48.56507" lon="-3.45492">
        <ele>188.56</ele>
        <time>2013-05-07T16:02:33Z</time>
      </trkpt>
      <trkpt lat="48.56513" lon="-3.45494">
        <ele>188.08</ele>
        <time>2013-05-07T16:02:34Z</time>
      </trkpt>
      <trkpt lat="48.5652" lon="-3.45497">
        <ele>188.56</ele>
        <time>2013-05-07T16:02:35Z</time>
      </trkpt>
      <trkpt lat="48.56526" lon="-3.45502">
        <ele>188.08</ele>
        <time>2013-05-07T16:02:36Z</time>
      </trkpt>
      <trkpt lat="48.56531" lon="-3.45508">
        <ele>187.11</ele>
        <time>2013-05-07T16:02:37Z</time>
      </trkpt>
      <trkpt lat="48.56536" lon="-3.45515">
        <ele>187.11</ele>
        <time>2013-05-07T16:02:38Z</time>
      </trkpt>
      <trkpt lat="48.56541" lon="-3.45523">
        <ele>186.15</ele>
        <time>2013-05-07T16:02:39Z</time>
      </trkpt>
      <trkpt lat="48.56547" lon="-3.45531">
        <ele>186.15</ele>
        <time>2013-05-07T16:02:40Z</time>
      </trkpt>
      <trkpt lat="48.56591" lon="-3.456">
        <ele>189.04</ele>
        <time>2013-05-07T16:02:48Z</time>
      </trkpt>
      <trkpt lat="48.56601" lon="-3.45613">
        <ele>189.52</ele>
        <time>2013-05-07T16:02:50Z</time>
      </trkpt>
      <trkpt lat="48.5663" lon="-3.45646">
        <ele>190.48</ele>
        <time>2013-05-07T16:02:56Z</time>
      </trkpt>
      <trkpt lat="48.56634" lon="-3.45651">
        <ele>190.96</ele>
        <time>2013-05-07T16:02:57Z</time>
      </trkpt>
      <trkpt lat="48.56639" lon="-3.45656">
        <ele>190.96</ele>
        <time>2013-05-07T16:02:58Z</time>
      </trkpt>
      <trkpt lat="48.56644" lon="-3.45662">
        <ele>190.96</ele>
        <time>2013-05-07T16:02:59Z</time>
      </trkpt>
      <trkpt lat="48.5665" lon="-3.45668">
        <ele>191.44</ele>
        <time>2013-05-07T16:03:00Z</time>
      </trkpt>
      <trkpt lat="48.56723" lon="-3.45768">
        <ele>190.96</ele>
        <time>2013-05-07T16:03:14Z</time>
      </trkpt>
      <trkpt lat="48.5674" lon="-3.4579">
        <ele>190.96</ele>
        <time>2013-05-07T16:03:17Z</time>
      </trkpt>
      <trkpt lat="48.56799" lon="-3.45863">
        <ele>192.88</ele>
        <time>2013-05-07T16:03:28Z</time>
      </trkpt>
      <trkpt lat="48.56881" lon="-3.45966">
        <ele>191.92</ele>
        <time>2013-05-07T16:03:43Z</time>
      </trkpt>
      <trkpt lat="48.56923" lon="-3.46005">
        <ele>193.36</ele>
        <time>2013-05-07T16:03:49Z</time>
      </trkpt>
      <trkpt lat="48.56937" lon="-3.46019">
        <ele>190.48</ele>
        <time>2013-05-07T16:03:51Z</time>
      </trkpt>
      <trkpt lat="48.57036" lon="-3.46105">
        <ele>190.96</ele>
        <time>2013-05-07T16:04:05Z</time>
      </trkpt>
      <trkpt lat="48.57156" lon="-3.46183">
        <ele>191.92</ele>
        <time>2013-05-07T16:04:22Z</time>
      </trkpt>
      <trkpt lat="48.5729" lon="-3.46229">
        <ele>191.44</ele>
        <time>2013-05-07T16:04:38Z</time>
      </trkpt>
      <trkpt lat="48.57399" lon="-3.46254">
        <ele>194.32</ele>
        <time>2013-05-07T16:04:52Z</time>
      </trkpt>
      <trkpt lat="48.57529" lon="-3.46284">
        <ele>197.21</ele>
        <time>2013-05-07T16:05:09Z</time>
      </trkpt>
      <trkpt lat="48.57648" lon="-3.46312">
        <ele>194.8</ele>
        <time>2013-05-07T16:05:23Z</time>
      </trkpt>
      <trkpt lat="48.57778" lon="-3.46334">
        <ele>194.32</ele>
        <time>2013-05-07T16:05:37Z</time>
      </trkpt>
      <trkpt lat="48.57787" lon="-3.46331">
        <ele>194.32</ele>
        <time>2013-05-07T16:05:38Z</time>
      </trkpt>
      <trkpt lat="48.57795" lon="-3.46328">
        <ele>194.32</ele>
        <time>2013-05-07T16:05:39Z</time>
      </trkpt>
      <trkpt lat="48.57804" lon="-3.46323">
        <ele>194.32</ele>
        <time>2013-05-07T16:05:40Z</time>
      </trkpt>
      <trkpt lat="48.57812" lon="-3.46317">
        <ele>194.32</ele>
        <time>2013-05-07T16:05:41Z</time>
      </trkpt>
      <trkpt lat="48.5782" lon="-3.4631">
        <ele>193.84</ele>
        <time>2013-05-07T16:05:42Z</time>
      </trkpt>
      <trkpt lat="48.57827" lon="-3.46302">
        <ele>193.84</ele>
        <time>2013-05-07T16:05:43Z</time>
      </trkpt>
      <trkpt lat="48.57834" lon="-3.46293">
        <ele>193.36</ele>
        <time>2013-05-07T16:05:44Z</time>
      </trkpt>
      <trkpt lat="48.57841" lon="-3.46283">
        <ele>193.36</ele>
        <time>2013-05-07T16:05:45Z</time>
      </trkpt>
      <trkpt lat="48.57847" lon="-3.46273">
        <ele>192.88</ele>
        <time>2013-05-07T16:05:46Z</time>
      </trkpt>
      <trkpt lat="48.57852" lon="-3.46261">
        <ele>192.4</ele>
        <time>2013-05-07T16:05:47Z</time>
      </trkpt>
      <trkpt lat="48.57881" lon="-3.462">
        <ele>190.96</ele>
        <time>2013-05-07T16:05:52Z</time>
      </trkpt>
      <trkpt lat="48.57918" lon="-3.46121">
        <ele>189.04</ele>
        <time>2013-05-07T16:05:58Z</time>
      </trkpt>
      <trkpt lat="48.57944" lon="-3.46066">
        <ele>187.11</ele>
        <time>2013-05-07T16:06:02Z</time>
      </trkpt>
      <trkpt lat="48.57995" lon="-3.45973">
        <ele>184.23</ele>
        <time>2013-05-07T16:06:09Z</time>
      </trkpt>
      <trkpt lat="48.58021" lon="-3.45937">
        <ele>182.79</ele>
        <time>2013-05-07T16:06:12Z</time>
      </trkpt>
      <trkpt lat="48.58126" lon="-3.45803">
        <ele>179.42</ele>
        <time>2013-05-07T16:06:24Z</time>
      </trkpt>
      <trkpt lat="48.58143" lon="-3.45781">
        <ele>178.94</ele>
        <time>2013-05-07T16:06:26Z</time>
      </trkpt>
      <trkpt lat="48.58167" lon="-3.45749">
        <ele>177.5</ele>
        <time>2013-05-07T16:06:29Z</time>
      </trkpt>
      <trkpt lat="48.58247" lon="-3.45648">
        <ele>177.5</ele>
        <time>2013-05-07T16:06:39Z</time>
      </trkpt>
      <trkpt lat="48.58289" lon="-3.45607">
        <ele>174.14</ele>
        <time>2013-05-07T16:06:44Z</time>
      </trkpt>
      <trkpt lat="48.58297" lon="-3.456">
        <ele>173.66</ele>
        <time>2013-05-07T16:06:45Z</time>
      </trkpt>
      <trkpt lat="48.58324" lon="-3.45575">
        <ele>171.73</ele>
        <time>2013-05-07T16:06:48Z</time>
      </trkpt>
      <trkpt lat="48.5838" lon="-3.45524">
        <ele>168.37</ele>
        <time>2013-05-07T16:06:54Z</time>
      </trkpt>
      <trkpt lat="48.58399" lon="-3.45504">
        <ele>167.41</ele>
        <time>2013-05-07T16:06:56Z</time>
      </trkpt>
      <trkpt lat="48.58458" lon="-3.45398">
        <ele>164.04</ele>
        <time>2013-05-07T16:07:04Z</time>
      </trkpt>
      <trkpt lat="48.58496" lon="-3.45274">
        <ele>160.68</ele>
        <time>2013-05-07T16:07:12Z</time>
      </trkpt>
      <trkpt lat="48.58555" lon="-3.45101">
        <ele>159.72</ele>
        <time>2013-05-07T16:07:25Z</time>
      </trkpt>
      <trkpt lat="48.58561" lon="-3.45091">
        <ele>159.24</ele>
        <time>2013-05-07T16:07:26Z</time>
      </trkpt>
      <trkpt lat="48.58568" lon="-3.45081">
        <ele>158.75</ele>
        <time>2013-05-07T16:07:27Z</time>
      </trkpt>
      <trkpt lat="48.58575" lon="-3.45072">
        <ele>158.27</ele>
        <time>2013-05-07T16:07:28Z</time>
      </trkpt>
      <trkpt lat="48.58583" lon="-3.45064">
        <ele>158.27</ele>
        <time>2013-05-07T16:07:29Z</time>
      </trkpt>
      <trkpt lat="48.58591" lon="-3.45056">
        <ele>157.79</ele>
        <time>2013-05-07T16:07:30Z</time>
      </trkpt>
      <trkpt lat="48.58599" lon="-3.4505">
        <ele>157.79</ele>
        <time>2013-05-07T16:07:31Z</time>
      </trkpt>
      <trkpt lat="48.58608" lon="-3.45044">
        <ele>158.27</ele>
        <time>2013-05-07T16:07:32Z</time>
      </trkpt>
      <trkpt lat="48.58616" lon="-3.4504">
        <ele>158.27</ele>
        <time>2013-05-07T16:07:33Z</time>
      </trkpt>
      <trkpt lat="48.58626" lon="-3.45037">
        <ele>157.79</ele>
        <time>2013-05-07T16:07:34Z</time>
      </trkpt>
      <trkpt lat="48.58741" lon="-3.45036">
        <ele>154.91</ele>
        <time>2013-05-07T16:07:45Z</time>
      </trkpt>
      <trkpt lat="48.58867" lon="-3.45036">
        <ele>152.03</ele>
        <time>2013-05-07T16:07:56Z</time>
      </trkpt>
      <trkpt lat="48.59007" lon="-3.45036">
        <ele>148.18</ele>
        <time>2013-05-07T16:08:08Z</time>
      </trkpt>
      <trkpt lat="48.59065" lon="-3.4505">
        <ele>146.74</ele>
        <time>2013-05-07T16:08:13Z</time>
      </trkpt>
      <trkpt lat="48.5919" lon="-3.45131">
        <ele>144.34</ele>
        <time>2013-05-07T16:08:24Z</time>
      </trkpt>
      <trkpt lat="48.59296" lon="-3.45185">
        <ele>140.97</ele>
        <time>2013-05-07T16:08:33Z</time>
      </trkpt>
      <trkpt lat="48.59309" lon="-3.45186">
        <ele>140.97</ele>
        <time>2013-05-07T16:08:34Z</time>
      </trkpt>
      <trkpt lat="48.5943" lon="-3.45172">
        <ele>140.49</ele>
        <time>2013-05-07T16:08:44Z</time>
      </trkpt>
      <trkpt lat="48.59482" lon="-3.45165">
        <ele>139.05</ele>
        <time>2013-05-07T16:08:49Z</time>
      </trkpt>
      <trkpt lat="48.59601" lon="-3.45188">
        <ele>138.57</ele>
        <time>2013-05-07T16:09:02Z</time>
      </trkpt>
      <trkpt lat="48.597" lon="-3.45196">
        <ele>139.53</ele>
        <time>2013-05-07T16:09:14Z</time>
      </trkpt>
      <trkpt lat="48.59723" lon="-3.45199">
        <ele>140.49</ele>
        <time>2013-05-07T16:09:17Z</time>
      </trkpt>
      <trkpt lat="48.5978" lon="-3.45235">
        <ele>140.49</ele>
        <time>2013-05-07T16:09:25Z</time>
      </trkpt>
      <trkpt lat="48.59786" lon="-3.45242">
        <ele>140.49</ele>
        <time>2013-05-07T16:09:26Z</time>
      </trkpt>
      <trkpt lat="48.59792" lon="-3.45249">
        <ele>140.97</ele>
        <time>2013-05-07T16:09:27Z</time>
      </trkpt>
      <trkpt lat="48.59833" lon="-3.45301">
        <ele>140.97</ele>
        <time>2013-05-07T16:09:34Z</time>
      </trkpt>
      <trkpt lat="48.59892" lon="-3.45373">
        <ele>137.61</ele>
        <time>2013-05-07T16:09:43Z</time>
      </trkpt>
      <trkpt lat="48.59907" lon="-3.45393">
        <ele>137.61</ele>
        <time>2013-05-07T16:09:45Z</time>
      </trkpt>
      <trkpt lat="48.59914" lon="-3.45403">
        <ele>137.13</ele>
        <time>2013-05-07T16:09:46Z</time>
      </trkpt>
      <trkpt lat="48.59985" lon="-3.45494">
        <ele>133.28</ele>
        <time>2013-05-07T16:09:55Z</time>
      </trkpt>
      <trkpt lat="48.59993" lon="-3.45505">
        <ele>132.8</ele>
        <time>2013-05-07T16:09:56Z</time>
      </trkpt>
      <trkpt lat="48.60095" lon="-3.45636">
        <ele>130.88</ele>
        <time>2013-05-07T16:10:09Z</time>
      </trkpt>
      <trkpt lat="48.60174" lon="-3.45736">
        <ele>130.88</ele>
        <time>2013-05-07T16:10:20Z</time>
      </trkpt>
      <trkpt lat="48.6022" lon="-3.45799">
        <ele>130.88</ele>
        <time>2013-05-07T16:10:27Z</time>
      </trkpt>
      <trkpt lat="48.60252" lon="-3.4584">
        <ele>130.4</ele>
        <time>2013-05-07T16:10:32Z</time>
      </trkpt>
      <trkpt lat="48.60269" lon="-3.45868">
        <ele>130.4</ele>
        <time>2013-05-07T16:10:35Z</time>
      </trkpt>
      <trkpt lat="48.60274" lon="-3.45878">
        <ele>131.36</ele>
        <time>2013-05-07T16:10:36Z</time>
      </trkpt>
      <trkpt lat="48.60299" lon="-3.45965">
        <ele>128.47</ele>
        <time>2013-05-07T16:10:43Z</time>
      </trkpt>
      <trkpt lat="48.60301" lon="-3.45978">
        <ele>127.99</ele>
        <time>2013-05-07T16:10:44Z</time>
      </trkpt>
      <trkpt lat="48.60297" lon="-3.46131">
        <ele>126.07</ele>
        <time>2013-05-07T16:10:56Z</time>
      </trkpt>
      <trkpt lat="48.60294" lon="-3.46177">
        <ele>125.59</ele>
        <time>2013-05-07T16:11:00Z</time>
      </trkpt>
      <trkpt lat="48.60296" lon="-3.46201">
        <ele>125.11</ele>
        <time>2013-05-07T16:11:02Z</time>
      </trkpt>
      <trkpt lat="48.60299" lon="-3.46214">
        <ele>125.11</ele>
        <time>2013-05-07T16:11:03Z</time>
      </trkpt>
      <trkpt lat="48.60302" lon="-3.46225">
        <ele>124.63</ele>
        <time>2013-05-07T16:11:04Z</time>
      </trkpt>
      <trkpt lat="48.60307" lon="-3.46236">
        <ele>124.15</ele>
        <time>2013-05-07T16:11:05Z</time>
      </trkpt>
      <trkpt lat="48.60312" lon="-3.46246">
        <ele>124.15</ele>
        <time>2013-05-07T16:11:06Z</time>
      </trkpt>
      <trkpt lat="48.60319" lon="-3.46256">
        <ele>123.67</ele>
        <time>2013-05-07T16:11:07Z</time>
      </trkpt>
      <trkpt lat="48.60326" lon="-3.46264">
        <ele>123.19</ele>
        <time>2013-05-07T16:11:08Z</time>
      </trkpt>
      <trkpt lat="48.60333" lon="-3.4627">
        <ele>123.19</ele>
        <time>2013-05-07T16:11:09Z</time>
      </trkpt>
      <trkpt lat="48.60342" lon="-3.46276">
        <ele>123.19</ele>
        <time>2013-05-07T16:11:10Z</time>
      </trkpt>
      <trkpt lat="48.6035" lon="-3.4628">
        <ele>123.19</ele>
        <time>2013-05-07T16:11:11Z</time>
      </trkpt>
      <trkpt lat="48.6045" lon="-3.46326">
        <ele>120.78</ele>
        <time>2013-05-07T16:11:22Z</time>
      </trkpt>
      <trkpt lat="48.60496" lon="-3.46375">
        <ele>120.3</ele>
        <time>2013-05-07T16:11:29Z</time>
      </trkpt>
      <trkpt lat="48.60503" lon="-3.4638">
        <ele>120.78</ele>
        <time>2013-05-07T16:11:30Z</time>
      </trkpt>
      <trkpt lat="48.6051" lon="-3.46382">
        <ele>121.26</ele>
        <time>2013-05-07T16:11:31Z</time>
      </trkpt>
      <trkpt lat="48.60517" lon="-3.46381">
        <ele>121.26</ele>
        <time>2013-05-07T16:11:32Z</time>
      </trkpt>
      <trkpt lat="48.60523" lon="-3.46379">
        <ele>121.74</ele>
        <time>2013-05-07T16:11:33Z</time>
      </trkpt>
      <trkpt lat="48.60529" lon="-3.46375">
        <ele>121.74</ele>
        <time>2013-05-07T16:11:34Z</time>
      </trkpt>
      <trkpt lat="48.60534" lon="-3.46371">
        <ele>122.22</ele>
        <time>2013-05-07T16:11:35Z</time>
      </trkpt>
      <trkpt lat="48.60538" lon="-3.46367">
        <ele>122.22</ele>
        <time>2013-05-07T16:11:36Z</time>
      </trkpt>
      <trkpt lat="48.60542" lon="-3.46363">
        <ele>122.22</ele>
        <time>2013-05-07T16:11:37Z</time>
      </trkpt>
      <trkpt lat="48.60546" lon="-3.46358">
        <ele>122.71</ele>
        <time>2013-05-07T16:11:38Z</time>
      </trkpt>
      <trkpt lat="48.60549" lon="-3.46352">
        <ele>122.71</ele>
        <time>2013-05-07T16:11:39Z</time>
      </trkpt>
      <trkpt lat="48.60552" lon="-3.46345">
        <ele>122.22</ele>
        <time>2013-05-07T16:11:40Z</time>
      </trkpt>
      <trkpt lat="48.60555" lon="-3.46338">
        <ele>122.22</ele>
        <time>2013-05-07T16:11:41Z</time>
      </trkpt>
      <trkpt lat="48.60558" lon="-3.46331">
        <ele>121.74</ele>
        <time>2013-05-07T16:11:42Z</time>
      </trkpt>
      <trkpt lat="48.60561" lon="-3.46325">
        <ele>121.74</ele>
        <time>2013-05-07T16:11:43Z</time>
      </trkpt>
      <trkpt lat="48.60566" lon="-3.46321">
        <ele>121.74</ele>
        <time>2013-05-07T16:11:44Z</time>
      </trkpt>
      <trkpt lat="48.6057" lon="-3.46317">
        <ele>121.74</ele>
        <time>2013-05-07T16:11:45Z</time>
      </trkpt>
      <trkpt lat="48.60575" lon="-3.46315">
        <ele>121.74</ele>
        <time>2013-05-07T16:11:46Z</time>
      </trkpt>
      <trkpt lat="48.6058" lon="-3.46314">
        <ele>121.26</ele>
        <time>2013-05-07T16:11:47Z</time>
      </trkpt>
      <trkpt lat="48.60585" lon="-3.46314">
        <ele>120.78</ele>
        <time>2013-05-07T16:11:48Z</time>
      </trkpt>
      <trkpt lat="48.60602" lon="-3.46314">
        <ele>121.74</ele>
        <time>2013-05-07T16:11:52Z</time>
      </trkpt>
      <trkpt lat="48.60613" lon="-3.46307">
        <ele>120.78</ele>
        <time>2013-05-07T16:12:00Z</time>
      </trkpt>
      <trkpt lat="48.60613" lon="-3.46306">
        <ele>121.26</ele>
        <time>2013-05-07T16:12:01Z</time>
      </trkpt>
      <trkpt lat="48.60614" lon="-3.46306">
        <ele>121.26</ele>
        <time>2013-05-07T16:12:02Z</time>
      </trkpt>
      <trkpt lat="48.60616" lon="-3.46306">
        <ele>121.26</ele>
        <time>2013-05-07T16:12:03Z</time>
      </trkpt>
      <trkpt lat="48.60619" lon="-3.46307">
        <ele>121.26</ele>
        <time>2013-05-07T16:12:04Z</time>
      </trkpt>
      <trkpt lat="48.60622" lon="-3.46309">
        <ele>120.78</ele>
        <time>2013-05-07T16:12:05Z</time>
      </trkpt>
      <trkpt lat="48.60625" lon="-3.46314">
        <ele>120.78</ele>
        <time>2013-05-07T16:12:06Z</time>
      </trkpt>
      <trkpt lat="48.60628" lon="-3.46318">
        <ele>120.78</ele>
        <time>2013-05-07T16:12:07Z</time>
      </trkpt>
      <trkpt lat="48.60639" lon="-3.46341">
        <ele>121.74</ele>
        <time>2013-05-07T16:12:11Z</time>
      </trkpt>
      <trkpt lat="48.60641" lon="-3.46348">
        <ele>121.74</ele>
        <time>2013-05-07T16:12:12Z</time>
      </trkpt>
      <trkpt lat="48.60643" lon="-3.46355">
        <ele>121.74</ele>
        <time>2013-05-07T16:12:13Z</time>
      </trkpt>
      <trkpt lat="48.60648" lon="-3.46377">
        <ele>121.74</ele>
        <time>2013-05-07T16:12:16Z</time>
      </trkpt>
      <trkpt lat="48.60648" lon="-3.46384">
        <ele>121.74</ele>
        <time>2013-05-07T16:12:17Z</time>
      </trkpt>
      <trkpt lat="48.60656" lon="-3.46479">
        <ele>124.63</ele>
        <time>2013-05-07T16:12:30Z</time>
      </trkpt>
      <trkpt lat="48.60669" lon="-3.4658">
        <ele>126.07</ele>
        <time>2013-05-07T16:12:43Z</time>
      </trkpt>
      <trkpt lat="48.60671" lon="-3.46595">
        <ele>126.55</ele>
        <time>2013-05-07T16:12:45Z</time>
      </trkpt>
      <trkpt lat="48.60681" lon="-3.46732">
        <ele>126.55</ele>
        <time>2013-05-07T16:13:02Z</time>
      </trkpt>
      <trkpt lat="48.60693" lon="-3.46812">
        <ele>124.63</ele>
        <time>2013-05-07T16:13:10Z</time>
      </trkpt>
      <trkpt lat="48.607" lon="-3.46854">
        <ele>125.59</ele>
        <time>2013-05-07T16:13:14Z</time>
      </trkpt>
      <trkpt lat="48.60703" lon="-3.46864">
        <ele>125.59</ele>
        <time>2013-05-07T16:13:15Z</time>
      </trkpt>
      <trkpt lat="48.60707" lon="-3.46874">
        <ele>125.11</ele>
        <time>2013-05-07T16:13:16Z</time>
      </trkpt>
      <trkpt lat="48.60711" lon="-3.46883">
        <ele>125.11</ele>
        <time>2013-05-07T16:13:17Z</time>
      </trkpt>
      <trkpt lat="48.60715" lon="-3.46891">
        <ele>124.63</ele>
        <time>2013-05-07T16:13:18Z</time>
      </trkpt>
      <trkpt lat="48.60719" lon="-3.46899">
        <ele>124.15</ele>
        <time>2013-05-07T16:13:19Z</time>
      </trkpt>
      <trkpt lat="48.60724" lon="-3.46905">
        <ele>124.15</ele>
        <time>2013-05-07T16:13:20Z</time>
      </trkpt>
      <trkpt lat="48.60729" lon="-3.46911">
        <ele>124.15</ele>
        <time>2013-05-07T16:13:21Z</time>
      </trkpt>
      <trkpt lat="48.60744" lon="-3.46929">
        <ele>123.19</ele>
        <time>2013-05-07T16:13:24Z</time>
      </trkpt>
      <trkpt lat="48.60782" lon="-3.4696">
        <ele>121.26</ele>
        <time>2013-05-07T16:13:30Z</time>
      </trkpt>
      <trkpt lat="48.60859" lon="-3.47014">
        <ele>117.9</ele>
        <time>2013-05-07T16:13:40Z</time>
      </trkpt>
      <trkpt lat="48.60893" lon="-3.4704">
        <ele>116.46</ele>
        <time>2013-05-07T16:13:44Z</time>
      </trkpt>
      <trkpt lat="48.60986" lon="-3.47113">
        <ele>116.46</ele>
        <time>2013-05-07T16:13:56Z</time>
      </trkpt>
      <trkpt lat="48.61002" lon="-3.47127">
        <ele>116.94</ele>
        <time>2013-05-07T16:13:59Z</time>
      </trkpt>
      <trkpt lat="48.61008" lon="-3.47132">
        <ele>117.42</ele>
        <time>2013-05-07T16:14:00Z</time>
      </trkpt>
      <trkpt lat="48.61023" lon="-3.47144">
        <ele>118.38</ele>
        <time>2013-05-07T16:14:03Z</time>
      </trkpt>
      <trkpt lat="48.61028" lon="-3.47147">
        <ele>118.86</ele>
        <time>2013-05-07T16:14:04Z</time>
      </trkpt>
      <trkpt lat="48.61036" lon="-3.47154">
        <ele>119.34</ele>
        <time>2013-05-07T16:14:06Z</time>
      </trkpt>
      <trkpt lat="48.61064" lon="-3.4717">
        <ele>120.78</ele>
        <time>2013-05-07T16:14:11Z</time>
      </trkpt>
      <trkpt lat="48.61119" lon="-3.47213">
        <ele>124.15</ele>
        <time>2013-05-07T16:14:23Z</time>
      </trkpt>
      <trkpt lat="48.61152" lon="-3.47236">
        <ele>125.59</ele>
        <time>2013-05-07T16:14:31Z</time>
      </trkpt>
      <trkpt lat="48.61163" lon="-3.47237">
        <ele>126.07</ele>
        <time>2013-05-07T16:14:33Z</time>
      </trkpt>
      <trkpt lat="48.61168" lon="-3.47236">
        <ele>126.55</ele>
        <time>2013-05-07T16:14:34Z</time>
      </trkpt>
      <trkpt lat="48.61172" lon="-3.47236">
        <ele>127.03</ele>
        <time>2013-05-07T16:14:35Z</time>
      </trkpt>
      <trkpt lat="48.61176" lon="-3.47236">
        <ele>127.03</ele>
        <time>2013-05-07T16:14:36Z</time>
      </trkpt>
      <trkpt lat="48.61179" lon="-3.47238">
        <ele>127.03</ele>
        <time>2013-05-07T16:14:37Z</time>
      </trkpt>
      <trkpt lat="48.61188" lon="-3.4725">
        <ele>127.03</ele>
        <time>2013-05-07T16:14:47Z</time>
      </trkpt>
      <trkpt lat="48.61184" lon="-3.47259">
        <ele>126.55</ele>
        <time>2013-05-07T16:15:16Z</time>
      </trkpt>
      <trkpt lat="48.61184" lon="-3.47261">
        <ele>127.03</ele>
        <time>2013-05-07T16:15:21Z</time>
      </trkpt>
      <trkpt lat="48.61188" lon="-3.47262">
        <ele>127.03</ele>
        <time>2013-05-07T16:15:24Z</time>
      </trkpt>
      <trkpt lat="48.61189" lon="-3.47262">
        <ele>127.51</ele>
        <time>2013-05-07T16:15:25Z</time>
      </trkpt>
      <trkpt lat="48.61192" lon="-3.47263">
        <ele>127.51</ele>
        <time>2013-05-07T16:15:26Z</time>
      </trkpt>
      <trkpt lat="48.61194" lon="-3.47264">
        <ele>127.99</ele>
        <time>2013-05-07T16:15:27Z</time>
      </trkpt>
      <trkpt lat="48.61197" lon="-3.47265">
        <ele>127.51</ele>
        <time>2013-05-07T16:15:28Z</time>
      </trkpt>
      <trkpt lat="48.61239" lon="-3.47269">
        <ele>128.47</ele>
        <time>2013-05-07T16:15:39Z</time>
      </trkpt>
      <trkpt lat="48.61249" lon="-3.47266">
        <ele>128.47</ele>
        <time>2013-05-07T16:15:41Z</time>
      </trkpt>
      <trkpt lat="48.61254" lon="-3.47264">
        <ele>128.47</ele>
        <time>2013-05-07T16:15:42Z</time>
      </trkpt>
      <trkpt lat="48.61271" lon="-3.47259">
        <ele>128.95</ele>
        <time>2013-05-07T16:15:45Z</time>
      </trkpt>
      <trkpt lat="48.61276" lon="-3.47258">
        <ele>128.47</ele>
        <time>2013-05-07T16:15:46Z</time>
      </trkpt>
      <trkpt lat="48.61282" lon="-3.47255">
        <ele>128.47</ele>
        <time>2013-05-07T16:15:47Z</time>
      </trkpt>
      <trkpt lat="48.61287" lon="-3.47251">
        <ele>128.47</ele>
        <time>2013-05-07T16:15:48Z</time>
      </trkpt>
      <trkpt lat="48.61292" lon="-3.47245">
        <ele>128.47</ele>
        <time>2013-05-07T16:15:49Z</time>
      </trkpt>
      <trkpt lat="48.61296" lon="-3.47241">
        <ele>128.47</ele>
        <time>2013-05-07T16:15:50Z</time>
      </trkpt>
      <trkpt lat="48.61345" lon="-3.47167">
        <ele>125.11</ele>
        <time>2013-05-07T16:15:58Z</time>
      </trkpt>
      <trkpt lat="48.61356" lon="-3.47146">
        <ele>124.15</ele>
        <time>2013-05-07T16:16:00Z</time>
      </trkpt>
      <trkpt lat="48.61415" lon="-3.47075">
        <ele>120.78</ele>
        <time>2013-05-07T16:16:08Z</time>
      </trkpt>
      <trkpt lat="48.61452" lon="-3.47041">
        <ele>118.38</ele>
        <time>2013-05-07T16:16:12Z</time>
      </trkpt>
      <trkpt lat="48.6149" lon="-3.47008">
        <ele>117.42</ele>
        <time>2013-05-07T16:16:16Z</time>
      </trkpt>
      <trkpt lat="48.61566" lon="-3.46942">
        <ele>119.82</ele>
        <time>2013-05-07T16:16:27Z</time>
      </trkpt>
      <trkpt lat="48.6164" lon="-3.46876">
        <ele>122.71</ele>
        <time>2013-05-07T16:16:41Z</time>
      </trkpt>
      <trkpt lat="48.61665" lon="-3.46852">
        <ele>123.67</ele>
        <time>2013-05-07T16:16:46Z</time>
      </trkpt>
      <trkpt lat="48.6167" lon="-3.46848">
        <ele>123.67</ele>
        <time>2013-05-07T16:16:47Z</time>
      </trkpt>
      <trkpt lat="48.61757" lon="-3.46793">
        <ele>125.11</ele>
        <time>2013-05-07T16:17:02Z</time>
      </trkpt>
      <trkpt lat="48.61774" lon="-3.46789">
        <ele>125.59</ele>
        <time>2013-05-07T16:17:05Z</time>
      </trkpt>
      <trkpt lat="48.6178" lon="-3.46788">
        <ele>125.59</ele>
        <time>2013-05-07T16:17:06Z</time>
      </trkpt>
      <trkpt lat="48.61786" lon="-3.46789">
        <ele>125.59</ele>
        <time>2013-05-07T16:17:07Z</time>
      </trkpt>
      <trkpt lat="48.61848" lon="-3.46808">
        <ele>127.51</ele>
        <time>2013-05-07T16:17:18Z</time>
      </trkpt>
      <trkpt lat="48.61853" lon="-3.46811">
        <ele>127.99</ele>
        <time>2013-05-07T16:17:19Z</time>
      </trkpt>
      <trkpt lat="48.61858" lon="-3.46813">
        <ele>128.47</ele>
        <time>2013-05-07T16:17:20Z</time>
      </trkpt>
      <trkpt lat="48.61863" lon="-3.46814">
        <ele>128.95</ele>
        <time>2013-05-07T16:17:21Z</time>
      </trkpt>
      <trkpt lat="48.61867" lon="-3.46815">
        <ele>129.43</ele>
        <time>2013-05-07T16:17:22Z</time>
      </trkpt>
      <trkpt lat="48.61887" lon="-3.46816">
        <ele>130.4</ele>
        <time>2013-05-07T16:17:26Z</time>
      </trkpt>
      <trkpt lat="48.61892" lon="-3.46814">
        <ele>130.4</ele>
        <time>2013-05-07T16:17:27Z</time>
      </trkpt>
      <trkpt lat="48.61906" lon="-3.46811">
        <ele>130.88</ele>
        <time>2013-05-07T16:17:30Z</time>
      </trkpt>
      <trkpt lat="48.61911" lon="-3.46809">
        <ele>131.36</ele>
        <time>2013-05-07T16:17:31Z</time>
      </trkpt>
      <trkpt lat="48.61915" lon="-3.46808">
        <ele>131.84</ele>
        <time>2013-05-07T16:17:32Z</time>
      </trkpt>
      <trkpt lat="48.62004" lon="-3.46793">
        <ele>133.28</ele>
        <time>2013-05-07T16:17:49Z</time>
      </trkpt>
      <trkpt lat="48.62097" lon="-3.46778">
        <ele>133.76</ele>
        <time>2013-05-07T16:18:04Z</time>
      </trkpt>
      <trkpt lat="48.62133" lon="-3.46765">
        <ele>134.24</ele>
        <time>2013-05-07T16:18:10Z</time>
      </trkpt>
      <trkpt lat="48.62233" lon="-3.46726">
        <ele>136.16</ele>
        <time>2013-05-07T16:18:27Z</time>
      </trkpt>
      <trkpt lat="48.62326" lon="-3.46702">
        <ele>139.05</ele>
        <time>2013-05-07T16:18:43Z</time>
      </trkpt>
      <trkpt lat="48.62409" lon="-3.46659">
        <ele>140.97</ele>
        <time>2013-05-07T16:18:58Z</time>
      </trkpt>
      <trkpt lat="48.6245" lon="-3.46643">
        <ele>140.97</ele>
        <time>2013-05-07T16:19:05Z</time>
      </trkpt>
      <trkpt lat="48.62529" lon="-3.46631">
        <ele>140.49</ele>
        <time>2013-05-07T16:19:17Z</time>
      </trkpt>
      <trkpt lat="48.6266" lon="-3.46609">
        <ele>139.53</ele>
        <time>2013-05-07T16:19:34Z</time>
      </trkpt>
      <trkpt lat="48.62779" lon="-3.46593">
        <ele>137.61</ele>
        <time>2013-05-07T16:19:49Z</time>
      </trkpt>
      <trkpt lat="48.62921" lon="-3.46552">
        <ele>135.68</ele>
        <time>2013-05-07T16:20:06Z</time>
      </trkpt>
      <trkpt lat="48.63037" lon="-3.46455">
        <ele>134.72</ele>
        <time>2013-05-07T16:20:21Z</time>
      </trkpt>
      <trkpt lat="48.63154" lon="-3.46333">
        <ele>133.28</ele>
        <time>2013-05-07T16:20:37Z</time>
      </trkpt>
      <trkpt lat="48.63298" lon="-3.4618">
        <ele>130.4</ele>
        <time>2013-05-07T16:20:57Z</time>
      </trkpt>
      <trkpt lat="48.63413" lon="-3.46057">
        <ele>128.47</ele>
        <time>2013-05-07T16:21:13Z</time>
      </trkpt>
      <trkpt lat="48.63552" lon="-3.45908">
        <ele>126.07</ele>
        <time>2013-05-07T16:21:32Z</time>
      </trkpt>
      <trkpt lat="48.63595" lon="-3.45862">
        <ele>124.63</ele>
        <time>2013-05-07T16:21:38Z</time>
      </trkpt>
      <trkpt lat="48.63722" lon="-3.45719">
        <ele>123.19</ele>
        <time>2013-05-07T16:21:55Z</time>
      </trkpt>
      <trkpt lat="48.63831" lon="-3.45559">
        <ele>121.26</ele>
        <time>2013-05-07T16:22:12Z</time>
      </trkpt>
      <trkpt lat="48.6394" lon="-3.45399">
        <ele>119.82</ele>
        <time>2013-05-07T16:22:29Z</time>
      </trkpt>
      <trkpt lat="48.64035" lon="-3.45258">
        <ele>117.42</ele>
        <time>2013-05-07T16:22:44Z</time>
      </trkpt>
      <trkpt lat="48.64148" lon="-3.45092">
        <ele>117.42</ele>
        <time>2013-05-07T16:23:02Z</time>
      </trkpt>
      <trkpt lat="48.64249" lon="-3.44943">
        <ele>119.34</ele>
        <time>2013-05-07T16:23:21Z</time>
      </trkpt>
      <trkpt lat="48.6435" lon="-3.44792">
        <ele>118.86</ele>
        <time>2013-05-07T16:23:41Z</time>
      </trkpt>
      <trkpt lat="48.64451" lon="-3.44667">
        <ele>118.86</ele>
        <time>2013-05-07T16:23:58Z</time>
      </trkpt>
      <trkpt lat="48.64571" lon="-3.44595">
        <ele>116.94</ele>
        <time>2013-05-07T16:24:13Z</time>
      </trkpt>
      <trkpt lat="48.64702" lon="-3.44582">
        <ele>115.98</ele>
        <time>2013-05-07T16:24:27Z</time>
      </trkpt>
      <trkpt lat="48.6473" lon="-3.44586">
        <ele>114.53</ele>
        <time>2013-05-07T16:24:30Z</time>
      </trkpt>
      <trkpt lat="48.64899" lon="-3.44625">
        <ele>113.09</ele>
        <time>2013-05-07T16:24:48Z</time>
      </trkpt>
      <trkpt lat="48.65055" lon="-3.44628">
        <ele>114.05</ele>
        <time>2013-05-07T16:25:05Z</time>
      </trkpt>
      <trkpt lat="48.65196" lon="-3.44593">
        <ele>114.05</ele>
        <time>2013-05-07T16:25:21Z</time>
      </trkpt>
      <trkpt lat="48.65356" lon="-3.44536">
        <ele>114.53</ele>
        <time>2013-05-07T16:25:39Z</time>
      </trkpt>
      <trkpt lat="48.65511" lon="-3.44468">
        <ele>112.61</ele>
        <time>2013-05-07T16:25:56Z</time>
      </trkpt>
      <trkpt lat="48.6566" lon="-3.4441">
        <ele>110.69</ele>
        <time>2013-05-07T16:26:12Z</time>
      </trkpt>
      <trkpt lat="48.65778" lon="-3.44364">
        <ele>108.29</ele>
        <time>2013-05-07T16:26:24Z</time>
      </trkpt>
      <trkpt lat="48.65923" lon="-3.4434">
        <ele>104.92</ele>
        <time>2013-05-07T16:26:38Z</time>
      </trkpt>
      <trkpt lat="48.66078" lon="-3.44368">
        <ele>102.52</ele>
        <time>2013-05-07T16:26:53Z</time>
      </trkpt>
      <trkpt lat="48.66206" lon="-3.44401">
        <ele>103.96</ele>
        <time>2013-05-07T16:27:08Z</time>
      </trkpt>
      <trkpt lat="48.66353" lon="-3.44437">
        <ele>105.88</ele>
        <time>2013-05-07T16:27:27Z</time>
      </trkpt>
      <trkpt lat="48.66484" lon="-3.4444">
        <ele>106.36</ele>
        <time>2013-05-07T16:27:43Z</time>
      </trkpt>
      <trkpt lat="48.66622" lon="-3.44439">
        <ele>106.36</ele>
        <time>2013-05-07T16:27:59Z</time>
      </trkpt>
      <trkpt lat="48.66791" lon="-3.44455">
        <ele>106.36</ele>
        <time>2013-05-07T16:28:17Z</time>
      </trkpt>
      <trkpt lat="48.66917" lon="-3.44469">
        <ele>103.48</ele>
        <time>2013-05-07T16:28:30Z</time>
      </trkpt>
      <trkpt lat="48.67015" lon="-3.4446">
        <ele>102.52</ele>
        <time>2013-05-07T16:28:40Z</time>
      </trkpt>
      <trkpt lat="48.67024" lon="-3.44457">
        <ele>103.48</ele>
        <time>2013-05-07T16:28:41Z</time>
      </trkpt>
      <trkpt lat="48.67152" lon="-3.4443">
        <ele>101.56</ele>
        <time>2013-05-07T16:28:55Z</time>
      </trkpt>
      <trkpt lat="48.67258" lon="-3.4444">
        <ele>103</ele>
        <time>2013-05-07T16:29:07Z</time>
      </trkpt>
      <trkpt lat="48.67357" lon="-3.4447">
        <ele>103.48</ele>
        <time>2013-05-07T16:29:19Z</time>
      </trkpt>
      <trkpt lat="48.67504" lon="-3.44501">
        <ele>102.52</ele>
        <time>2013-05-07T16:29:36Z</time>
      </trkpt>
      <trkpt lat="48.67612" lon="-3.44489">
        <ele>103.48</ele>
        <time>2013-05-07T16:29:49Z</time>
      </trkpt>
      <trkpt lat="48.67715" lon="-3.44452">
        <ele>103.96</ele>
        <time>2013-05-07T16:30:01Z</time>
      </trkpt>
      <trkpt lat="48.67825" lon="-3.44381">
        <ele>102.52</ele>
        <time>2013-05-07T16:30:14Z</time>
      </trkpt>
      <trkpt lat="48.67843" lon="-3.44374">
        <ele>102.52</ele>
        <time>2013-05-07T16:30:16Z</time>
      </trkpt>
      <trkpt lat="48.67957" lon="-3.44369">
        <ele>102.04</ele>
        <time>2013-05-07T16:30:28Z</time>
      </trkpt>
      <trkpt lat="48.68087" lon="-3.44407">
        <ele>100.6</ele>
        <time>2013-05-07T16:30:41Z</time>
      </trkpt>
      <trkpt lat="48.68167" lon="-3.44427">
        <ele>98.67</ele>
        <time>2013-05-07T16:30:49Z</time>
      </trkpt>
      <trkpt lat="48.68336" lon="-3.44479">
        <ele>98.67</ele>
        <time>2013-05-07T16:31:06Z</time>
      </trkpt>
      <trkpt lat="48.6848" lon="-3.44504">
        <ele>98.19</ele>
        <time>2013-05-07T16:31:21Z</time>
      </trkpt>
      <trkpt lat="48.6861" lon="-3.44539">
        <ele>97.71</ele>
        <time>2013-05-07T16:31:34Z</time>
      </trkpt>
      <trkpt lat="48.68753" lon="-3.44574">
        <ele>97.23</ele>
        <time>2013-05-07T16:31:48Z</time>
      </trkpt>
      <trkpt lat="48.68878" lon="-3.44569">
        <ele>96.75</ele>
        <time>2013-05-07T16:32:01Z</time>
      </trkpt>
      <trkpt lat="48.69019" lon="-3.44539">
        <ele>99.63</ele>
        <time>2013-05-07T16:32:17Z</time>
      </trkpt>
      <trkpt lat="48.69083" lon="-3.44524">
        <ele>101.08</ele>
        <time>2013-05-07T16:32:25Z</time>
      </trkpt>
      <trkpt lat="48.6918" lon="-3.44493">
        <ele>102.04</ele>
        <time>2013-05-07T16:32:37Z</time>
      </trkpt>
      <trkpt lat="48.69292" lon="-3.44464">
        <ele>102.04</ele>
        <time>2013-05-07T16:32:50Z</time>
      </trkpt>
      <trkpt lat="48.69388" lon="-3.44495">
        <ele>103</ele>
        <time>2013-05-07T16:33:02Z</time>
      </trkpt>
      <trkpt lat="48.69457" lon="-3.44527">
        <ele>102.52</ele>
        <time>2013-05-07T16:33:11Z</time>
      </trkpt>
      <trkpt lat="48.69533" lon="-3.44587">
        <ele>98.19</ele>
        <time>2013-05-07T16:33:20Z</time>
      </trkpt>
      <trkpt lat="48.69543" lon="-3.44594">
        <ele>98.19</ele>
        <time>2013-05-07T16:33:21Z</time>
      </trkpt>
      <trkpt lat="48.69657" lon="-3.4467">
        <ele>95.31</ele>
        <time>2013-05-07T16:33:33Z</time>
      </trkpt>
      <trkpt lat="48.69786" lon="-3.44732">
        <ele>94.35</ele>
        <time>2013-05-07T16:33:46Z</time>
      </trkpt>
      <trkpt lat="48.69916" lon="-3.44768">
        <ele>91.94</ele>
        <time>2013-05-07T16:33:59Z</time>
      </trkpt>
      <trkpt lat="48.69926" lon="-3.44772">
        <ele>90.98</ele>
        <time>2013-05-07T16:34:00Z</time>
      </trkpt>
      <trkpt lat="48.70032" lon="-3.44783">
        <ele>89.54</ele>
        <time>2013-05-07T16:34:11Z</time>
      </trkpt>
      <trkpt lat="48.70051" lon="-3.44785">
        <ele>88.58</ele>
        <time>2013-05-07T16:34:13Z</time>
      </trkpt>
      <trkpt lat="48.70161" lon="-3.44808">
        <ele>88.58</ele>
        <time>2013-05-07T16:34:25Z</time>
      </trkpt>
      <trkpt lat="48.70288" lon="-3.44815">
        <ele>88.58</ele>
        <time>2013-05-07T16:34:39Z</time>
      </trkpt>
      <trkpt lat="48.70322" lon="-3.44821">
        <ele>88.1</ele>
        <time>2013-05-07T16:34:43Z</time>
      </trkpt>
      <trkpt lat="48.7033" lon="-3.44823">
        <ele>88.1</ele>
        <time>2013-05-07T16:34:44Z</time>
      </trkpt>
      <trkpt lat="48.70403" lon="-3.44842">
        <ele>89.06</ele>
        <time>2013-05-07T16:34:53Z</time>
      </trkpt>
      <trkpt lat="48.70411" lon="-3.4484">
        <ele>89.06</ele>
        <time>2013-05-07T16:34:54Z</time>
      </trkpt>
      <trkpt lat="48.70493" lon="-3.44808">
        <ele>90.02</ele>
        <time>2013-05-07T16:35:05Z</time>
      </trkpt>
      <trkpt lat="48.70509" lon="-3.44806">
        <ele>90.02</ele>
        <time>2013-05-07T16:35:07Z</time>
      </trkpt>
      <trkpt lat="48.70517" lon="-3.44806">
        <ele>89.54</ele>
        <time>2013-05-07T16:35:08Z</time>
      </trkpt>
      <trkpt lat="48.70565" lon="-3.44811">
        <ele>90.02</ele>
        <time>2013-05-07T16:35:14Z</time>
      </trkpt>
      <trkpt lat="48.70639" lon="-3.44792">
        <ele>88.58</ele>
        <time>2013-05-07T16:35:23Z</time>
      </trkpt>
      <trkpt lat="48.70702" lon="-3.44796">
        <ele>84.73</ele>
        <time>2013-05-07T16:35:29Z</time>
      </trkpt>
      <trkpt lat="48.70759" lon="-3.44817">
        <ele>81.37</ele>
        <time>2013-05-07T16:35:34Z</time>
      </trkpt>
      <trkpt lat="48.70795" lon="-3.44837">
        <ele>79.93</ele>
        <time>2013-05-07T16:35:37Z</time>
      </trkpt>
      <trkpt lat="48.70904" lon="-3.44909">
        <ele>76.56</ele>
        <time>2013-05-07T16:35:47Z</time>
      </trkpt>
      <trkpt lat="48.70981" lon="-3.44965">
        <ele>73.2</ele>
        <time>2013-05-07T16:35:55Z</time>
      </trkpt>
      <trkpt lat="48.70991" lon="-3.4497">
        <ele>73.2</ele>
        <time>2013-05-07T16:35:56Z</time>
      </trkpt>
      <trkpt lat="48.71023" lon="-3.44982">
        <ele>72.72</ele>
        <time>2013-05-07T16:35:59Z</time>
      </trkpt>
      <trkpt lat="48.71033" lon="-3.44983">
        <ele>72.72</ele>
        <time>2013-05-07T16:36:00Z</time>
      </trkpt>
      <trkpt lat="48.71177" lon="-3.45001">
        <ele>73.68</ele>
        <time>2013-05-07T16:36:14Z</time>
      </trkpt>
      <trkpt lat="48.71301" lon="-3.45051">
        <ele>72.72</ele>
        <time>2013-05-07T16:36:28Z</time>
      </trkpt>
      <trkpt lat="48.71422" lon="-3.45128">
        <ele>72.24</ele>
        <time>2013-05-07T16:36:42Z</time>
      </trkpt>
      <trkpt lat="48.71531" lon="-3.45208">
        <ele>71.76</ele>
        <time>2013-05-07T16:36:55Z</time>
      </trkpt>
      <trkpt lat="48.71556" lon="-3.45228">
        <ele>71.76</ele>
        <time>2013-05-07T16:36:58Z</time>
      </trkpt>
      <trkpt lat="48.71564" lon="-3.45237">
        <ele>71.27</ele>
        <time>2013-05-07T16:36:59Z</time>
      </trkpt>
      <trkpt lat="48.7157" lon="-3.45247">
        <ele>71.76</ele>
        <time>2013-05-07T16:37:00Z</time>
      </trkpt>
      <trkpt lat="48.71576" lon="-3.45259">
        <ele>71.76</ele>
        <time>2013-05-07T16:37:01Z</time>
      </trkpt>
      <trkpt lat="48.71582" lon="-3.45272">
        <ele>72.24</ele>
        <time>2013-05-07T16:37:02Z</time>
      </trkpt>
      <trkpt lat="48.71587" lon="-3.45284">
        <ele>71.27</ele>
        <time>2013-05-07T16:37:03Z</time>
      </trkpt>
      <trkpt lat="48.71617" lon="-3.45367">
        <ele>68.39</ele>
        <time>2013-05-07T16:37:09Z</time>
      </trkpt>
      <trkpt lat="48.71676" lon="-3.45517">
        <ele>65.51</ele>
        <time>2013-05-07T16:37:20Z</time>
      </trkpt>
      <trkpt lat="48.71712" lon="-3.45599">
        <ele>64.55</ele>
        <time>2013-05-07T16:37:26Z</time>
      </trkpt>
      <trkpt lat="48.7172" lon="-3.45611">
        <ele>64.55</ele>
        <time>2013-05-07T16:37:27Z</time>
      </trkpt>
      <trkpt lat="48.71729" lon="-3.45621">
        <ele>63.1</ele>
        <time>2013-05-07T16:37:28Z</time>
      </trkpt>
      <trkpt lat="48.71821" lon="-3.45713">
        <ele>59.74</ele>
        <time>2013-05-07T16:37:37Z</time>
      </trkpt>
      <trkpt lat="48.71892" lon="-3.45785">
        <ele>56.86</ele>
        <time>2013-05-07T16:37:44Z</time>
      </trkpt>
      <trkpt lat="48.7192" lon="-3.45819">
        <ele>53.97</ele>
        <time>2013-05-07T16:37:47Z</time>
      </trkpt>
      <trkpt lat="48.71927" lon="-3.45833">
        <ele>54.45</ele>
        <time>2013-05-07T16:37:48Z</time>
      </trkpt>
      <trkpt lat="48.71933" lon="-3.45849">
        <ele>53.97</ele>
        <time>2013-05-07T16:37:49Z</time>
      </trkpt>
      <trkpt lat="48.71937" lon="-3.45866">
        <ele>53.49</ele>
        <time>2013-05-07T16:37:50Z</time>
      </trkpt>
      <trkpt lat="48.71941" lon="-3.45884">
        <ele>53.49</ele>
        <time>2013-05-07T16:37:51Z</time>
      </trkpt>
      <trkpt lat="48.71955" lon="-3.45938">
        <ele>52.05</ele>
        <time>2013-05-07T16:37:54Z</time>
      </trkpt>
      <trkpt lat="48.71961" lon="-3.45956">
        <ele>51.57</ele>
        <time>2013-05-07T16:37:55Z</time>
      </trkpt>
      <trkpt lat="48.71968" lon="-3.45971">
        <ele>51.57</ele>
        <time>2013-05-07T16:37:56Z</time>
      </trkpt>
      <trkpt lat="48.71977" lon="-3.45984">
        <ele>50.61</ele>
        <time>2013-05-07T16:37:57Z</time>
      </trkpt>
      <trkpt lat="48.71987" lon="-3.45995">
        <ele>50.13</ele>
        <time>2013-05-07T16:37:58Z</time>
      </trkpt>
      <trkpt lat="48.71998" lon="-3.46003">
        <ele>49.16</ele>
        <time>2013-05-07T16:37:59Z</time>
      </trkpt>
      <trkpt lat="48.72009" lon="-3.46009">
        <ele>49.16</ele>
        <time>2013-05-07T16:38:00Z</time>
      </trkpt>
      <trkpt lat="48.72021" lon="-3.46012">
        <ele>49.16</ele>
        <time>2013-05-07T16:38:01Z</time>
      </trkpt>
      <trkpt lat="48.72033" lon="-3.46013">
        <ele>48.2</ele>
        <time>2013-05-07T16:38:02Z</time>
      </trkpt>
      <trkpt lat="48.72044" lon="-3.46011">
        <ele>48.2</ele>
        <time>2013-05-07T16:38:03Z</time>
      </trkpt>
      <trkpt lat="48.72056" lon="-3.46007">
        <ele>46.76</ele>
        <time>2013-05-07T16:38:04Z</time>
      </trkpt>
      <trkpt lat="48.72068" lon="-3.46">
        <ele>46.76</ele>
        <time>2013-05-07T16:38:05Z</time>
      </trkpt>
      <trkpt lat="48.72079" lon="-3.45992">
        <ele>46.28</ele>
        <time>2013-05-07T16:38:06Z</time>
      </trkpt>
      <trkpt lat="48.7209" lon="-3.45984">
        <ele>45.8</ele>
        <time>2013-05-07T16:38:07Z</time>
      </trkpt>
      <trkpt lat="48.72136" lon="-3.45952">
        <ele>44.36</ele>
        <time>2013-05-07T16:38:11Z</time>
      </trkpt>
      <trkpt lat="48.72148" lon="-3.45947">
        <ele>43.88</ele>
        <time>2013-05-07T16:38:12Z</time>
      </trkpt>
      <trkpt lat="48.7216" lon="-3.45946">
        <ele>43.4</ele>
        <time>2013-05-07T16:38:13Z</time>
      </trkpt>
      <trkpt lat="48.72173" lon="-3.45948">
        <ele>42.92</ele>
        <time>2013-05-07T16:38:14Z</time>
      </trkpt>
      <trkpt lat="48.72185" lon="-3.45953">
        <ele>42.92</ele>
        <time>2013-05-07T16:38:15Z</time>
      </trkpt>
      <trkpt lat="48.72197" lon="-3.4596">
        <ele>42.44</ele>
        <time>2013-05-07T16:38:16Z</time>
      </trkpt>
      <trkpt lat="48.7227" lon="-3.45994">
        <ele>38.59</ele>
        <time>2013-05-07T16:38:22Z</time>
      </trkpt>
      <trkpt lat="48.72293" lon="-3.46001">
        <ele>37.15</ele>
        <time>2013-05-07T16:38:24Z</time>
      </trkpt>
      <trkpt lat="48.72305" lon="-3.46002">
        <ele>37.15</ele>
        <time>2013-05-07T16:38:25Z</time>
      </trkpt>
      <trkpt lat="48.72317" lon="-3.46002">
        <ele>36.19</ele>
        <time>2013-05-07T16:38:26Z</time>
      </trkpt>
      <trkpt lat="48.72341" lon="-3.45997">
        <ele>35.71</ele>
        <time>2013-05-07T16:38:28Z</time>
      </trkpt>
      <trkpt lat="48.72375" lon="-3.45987">
        <ele>33.78</ele>
        <time>2013-05-07T16:38:31Z</time>
      </trkpt>
      <trkpt lat="48.72408" lon="-3.45985">
        <ele>32.34</ele>
        <time>2013-05-07T16:38:34Z</time>
      </trkpt>
      <trkpt lat="48.72418" lon="-3.45988">
        <ele>32.34</ele>
        <time>2013-05-07T16:38:35Z</time>
      </trkpt>
      <trkpt lat="48.72428" lon="-3.45993">
        <ele>31.86</ele>
        <time>2013-05-07T16:38:36Z</time>
      </trkpt>
      <trkpt lat="48.7246" lon="-3.4601">
        <ele>30.42</ele>
        <time>2013-05-07T16:38:39Z</time>
      </trkpt>
      <trkpt lat="48.72528" lon="-3.46031">
        <ele>28.02</ele>
        <time>2013-05-07T16:38:45Z</time>
      </trkpt>
      <trkpt lat="48.72539" lon="-3.46031">
        <ele>27.53</ele>
        <time>2013-05-07T16:38:46Z</time>
      </trkpt>
      <trkpt lat="48.72637" lon="-3.46009">
        <ele>23.69</ele>
        <time>2013-05-07T16:38:54Z</time>
      </trkpt>
      <trkpt lat="48.72649" lon="-3.46006">
        <ele>23.21</ele>
        <time>2013-05-07T16:38:55Z</time>
      </trkpt>
      <trkpt lat="48.727" lon="-3.45994">
        <ele>19.36</ele>
        <time>2013-05-07T16:39:00Z</time>
      </trkpt>
      <trkpt lat="48.72746" lon="-3.45985">
        <ele>16.96</ele>
        <time>2013-05-07T16:39:08Z</time>
      </trkpt>
      <trkpt lat="48.72761" lon="-3.45979">
        <ele>16.48</ele>
        <time>2013-05-07T16:39:12Z</time>
      </trkpt>
      <trkpt lat="48.72765" lon="-3.45976">
        <ele>16</ele>
        <time>2013-05-07T16:39:13Z</time>
      </trkpt>
      <trkpt lat="48.72768" lon="-3.45973">
        <ele>16</ele>
        <time>2013-05-07T16:39:14Z</time>
      </trkpt>
      <trkpt lat="48.72773" lon="-3.45972">
        <ele>16.48</ele>
        <time>2013-05-07T16:39:15Z</time>
      </trkpt>
      <trkpt lat="48.72778" lon="-3.45973">
        <ele>16.48</ele>
        <time>2013-05-07T16:39:16Z</time>
      </trkpt>
      <trkpt lat="48.72783" lon="-3.45974">
        <ele>16.48</ele>
        <time>2013-05-07T16:39:17Z</time>
      </trkpt>
      <trkpt lat="48.72788" lon="-3.45973">
        <ele>16.48</ele>
        <time>2013-05-07T16:39:18Z</time>
      </trkpt>
      <trkpt lat="48.72794" lon="-3.45971">
        <ele>16</ele>
        <time>2013-05-07T16:39:19Z</time>
      </trkpt>
      <trkpt lat="48.72862" lon="-3.45951">
        <ele>16.96</ele>
        <time>2013-05-07T16:39:30Z</time>
      </trkpt>
      <trkpt lat="48.72869" lon="-3.45952">
        <ele>17.44</ele>
        <time>2013-05-07T16:39:31Z</time>
      </trkpt>
      <trkpt lat="48.72874" lon="-3.45955">
        <ele>17.44</ele>
        <time>2013-05-07T16:39:32Z</time>
      </trkpt>
      <trkpt lat="48.72879" lon="-3.4596">
        <ele>17.44</ele>
        <time>2013-05-07T16:39:33Z</time>
      </trkpt>
      <trkpt lat="48.72883" lon="-3.45966">
        <ele>17.44</ele>
        <time>2013-05-07T16:39:34Z</time>
      </trkpt>
      <trkpt lat="48.72886" lon="-3.45972">
        <ele>17.44</ele>
        <time>2013-05-07T16:39:35Z</time>
      </trkpt>
      <trkpt lat="48.7289" lon="-3.45978">
        <ele>17.44</ele>
        <time>2013-05-07T16:39:36Z</time>
      </trkpt>
      <trkpt lat="48.72894" lon="-3.45982">
        <ele>17.44</ele>
        <time>2013-05-07T16:39:37Z</time>
      </trkpt>
      <trkpt lat="48.72899" lon="-3.45986">
        <ele>16.96</ele>
        <time>2013-05-07T16:39:38Z</time>
      </trkpt>
      <trkpt lat="48.72921" lon="-3.46003">
        <ele>17.44</ele>
        <time>2013-05-07T16:39:42Z</time>
      </trkpt>
      <trkpt lat="48.72928" lon="-3.46007">
        <ele>17.44</ele>
        <time>2013-05-07T16:39:43Z</time>
      </trkpt>
      <trkpt lat="48.72986" lon="-3.46038">
        <ele>16.96</ele>
        <time>2013-05-07T16:39:52Z</time>
      </trkpt>
      <trkpt lat="48.72993" lon="-3.46039">
        <ele>17.92</ele>
        <time>2013-05-07T16:39:53Z</time>
      </trkpt>
      <trkpt lat="48.72999" lon="-3.46038">
        <ele>17.44</ele>
        <time>2013-05-07T16:39:54Z</time>
      </trkpt>
      <trkpt lat="48.73005" lon="-3.46037">
        <ele>17.44</ele>
        <time>2013-05-07T16:39:55Z</time>
      </trkpt>
      <trkpt lat="48.73011" lon="-3.46035">
        <ele>17.44</ele>
        <time>2013-05-07T16:39:56Z</time>
      </trkpt>
      <trkpt lat="48.73017" lon="-3.46032">
        <ele>17.44</ele>
        <time>2013-05-07T16:39:57Z</time>
      </trkpt>
      <trkpt lat="48.73038" lon="-3.4602">
        <ele>17.44</ele>
        <time>2013-05-07T16:40:01Z</time>
      </trkpt>
      <trkpt lat="48.73042" lon="-3.46015">
        <ele>17.92</ele>
        <time>2013-05-07T16:40:02Z</time>
      </trkpt>
      <trkpt lat="48.73045" lon="-3.4601">
        <ele>17.92</ele>
        <time>2013-05-07T16:40:03Z</time>
      </trkpt>
      <trkpt lat="48.73068" lon="-3.45982">
        <ele>18.4</ele>
        <time>2013-05-07T16:40:11Z</time>
      </trkpt>
      <trkpt lat="48.73072" lon="-3.45979">
        <ele>17.44</ele>
        <time>2013-05-07T16:40:12Z</time>
      </trkpt>
      <trkpt lat="48.73077" lon="-3.45978">
        <ele>17.44</ele>
        <time>2013-05-07T16:40:13Z</time>
      </trkpt>
      <trkpt lat="48.73081" lon="-3.45979">
        <ele>17.44</ele>
        <time>2013-05-07T16:40:14Z</time>
      </trkpt>
      <trkpt lat="48.73086" lon="-3.4598">
        <ele>17.44</ele>
        <time>2013-05-07T16:40:15Z</time>
      </trkpt>
      <trkpt lat="48.7309" lon="-3.45983">
        <ele>17.44</ele>
        <time>2013-05-07T16:40:16Z</time>
      </trkpt>
      <trkpt lat="48.73095" lon="-3.45986">
        <ele>17.44</ele>
        <time>2013-05-07T16:40:17Z</time>
      </trkpt>
      <trkpt lat="48.73098" lon="-3.4599">
        <ele>16.96</ele>
        <time>2013-05-07T16:40:18Z</time>
      </trkpt>
      <trkpt lat="48.73119" lon="-3.46019">
        <ele>16.48</ele>
        <time>2013-05-07T16:40:26Z</time>
      </trkpt>
      <trkpt lat="48.73123" lon="-3.46023">
        <ele>16.48</ele>
        <time>2013-05-07T16:40:27Z</time>
      </trkpt>
      <trkpt lat="48.73126" lon="-3.46028">
        <ele>16</ele>
        <time>2013-05-07T16:40:28Z</time>
      </trkpt>
      <trkpt lat="48.73172" lon="-3.46095">
        <ele>16.48</ele>
        <time>2013-05-07T16:40:41Z</time>
      </trkpt>
      <trkpt lat="48.732" lon="-3.46142">
        <ele>16.96</ele>
        <time>2013-05-07T16:40:52Z</time>
      </trkpt>
      <trkpt lat="48.73212" lon="-3.46157">
        <ele>17.44</ele>
        <time>2013-05-07T16:40:58Z</time>
      </trkpt>
      <trkpt lat="48.73215" lon="-3.46157">
        <ele>17.92</ele>
        <time>2013-05-07T16:40:59Z</time>
      </trkpt>
      <trkpt lat="48.73227" lon="-3.46148">
        <ele>18.88</ele>
        <time>2013-05-07T16:41:03Z</time>
      </trkpt>
      <trkpt lat="48.73229" lon="-3.46144">
        <ele>18.88</ele>
        <time>2013-05-07T16:41:04Z</time>
      </trkpt>
      <trkpt lat="48.73237" lon="-3.46129">
        <ele>19.84</ele>
        <time>2013-05-07T16:41:07Z</time>
      </trkpt>
      <trkpt lat="48.73253" lon="-3.46077">
        <ele>22.73</ele>
        <time>2013-05-07T16:41:17Z</time>
      </trkpt>
      <trkpt lat="48.73277" lon="-3.46024">
        <ele>26.09</ele>
        <time>2013-05-07T16:41:29Z</time>
      </trkpt>
      <trkpt lat="48.73291" lon="-3.45971">
        <ele>26.57</ele>
        <time>2013-05-07T16:41:39Z</time>
      </trkpt>
      <trkpt lat="48.73295" lon="-3.45965">
        <ele>26.09</ele>
        <time>2013-05-07T16:41:40Z</time>
      </trkpt>
      <trkpt lat="48.733" lon="-3.45961">
        <ele>26.09</ele>
        <time>2013-05-07T16:41:41Z</time>
      </trkpt>
      <trkpt lat="48.73306" lon="-3.45957">
        <ele>25.61</ele>
        <time>2013-05-07T16:41:42Z</time>
      </trkpt>
      <trkpt lat="48.73313" lon="-3.45954">
        <ele>25.13</ele>
        <time>2013-05-07T16:41:43Z</time>
      </trkpt>
      <trkpt lat="48.73321" lon="-3.45951">
        <ele>24.65</ele>
        <time>2013-05-07T16:41:44Z</time>
      </trkpt>
      <trkpt lat="48.73329" lon="-3.45949">
        <ele>24.65</ele>
        <time>2013-05-07T16:41:45Z</time>
      </trkpt>
      <trkpt lat="48.73347" lon="-3.45943">
        <ele>23.21</ele>
        <time>2013-05-07T16:41:47Z</time>
      </trkpt>
      <trkpt lat="48.73407" lon="-3.4592">
        <ele>22.25</ele>
        <time>2013-05-07T16:41:55Z</time>
      </trkpt>
      <trkpt lat="48.73424" lon="-3.45907">
        <ele>22.73</ele>
        <time>2013-05-07T16:41:58Z</time>
      </trkpt>
      <trkpt lat="48.73434" lon="-3.45897">
        <ele>22.73</ele>
        <time>2013-05-07T16:42:00Z</time>
      </trkpt>
      <trkpt lat="48.73438" lon="-3.4589">
        <ele>22.73</ele>
        <time>2013-05-07T16:42:01Z</time>
      </trkpt>
      <trkpt lat="48.73441" lon="-3.45883">
        <ele>22.73</ele>
        <time>2013-05-07T16:42:02Z</time>
      </trkpt>
      <trkpt lat="48.73446" lon="-3.45878">
        <ele>23.21</ele>
        <time>2013-05-07T16:42:03Z</time>
      </trkpt>
      <trkpt lat="48.73449" lon="-3.45872">
        <ele>23.21</ele>
        <time>2013-05-07T16:42:04Z</time>
      </trkpt>
      <trkpt lat="48.73452" lon="-3.45865">
        <ele>23.21</ele>
        <time>2013-05-07T16:42:05Z</time>
      </trkpt>
      <trkpt lat="48.73455" lon="-3.45858">
        <ele>23.69</ele>
        <time>2013-05-07T16:42:06Z</time>
      </trkpt>
      <trkpt lat="48.73458" lon="-3.45849">
        <ele>23.69</ele>
        <time>2013-05-07T16:42:07Z</time>
      </trkpt>
      <trkpt lat="48.7346" lon="-3.45841">
        <ele>23.69</ele>
        <time>2013-05-07T16:42:08Z</time>
      </trkpt>
      <trkpt lat="48.73461" lon="-3.45832">
        <ele>23.69</ele>
        <time>2013-05-07T16:42:09Z</time>
      </trkpt>
      <trkpt lat="48.73461" lon="-3.45822">
        <ele>24.17</ele>
        <time>2013-05-07T16:42:10Z</time>
      </trkpt>
      <trkpt lat="48.7346" lon="-3.45813">
        <ele>24.65</ele>
        <time>2013-05-07T16:42:11Z</time>
      </trkpt>
      <trkpt lat="48.73459" lon="-3.45805">
        <ele>24.65</ele>
        <time>2013-05-07T16:42:12Z</time>
      </trkpt>
      <trkpt lat="48.73457" lon="-3.45797">
        <ele>24.65</ele>
        <time>2013-05-07T16:42:13Z</time>
      </trkpt>
      <trkpt lat="48.73456" lon="-3.45788">
        <ele>25.13</ele>
        <time>2013-05-07T16:42:14Z</time>
      </trkpt>
      <trkpt lat="48.73443" lon="-3.45746">
        <ele>25.61</ele>
        <time>2013-05-07T16:42:20Z</time>
      </trkpt>
      <trkpt lat="48.73442" lon="-3.45739">
        <ele>25.61</ele>
        <time>2013-05-07T16:42:21Z</time>
      </trkpt>
      <trkpt lat="48.73442" lon="-3.45731">
        <ele>25.61</ele>
        <time>2013-05-07T16:42:22Z</time>
      </trkpt>
      <trkpt lat="48.73442" lon="-3.45724">
        <ele>25.61</ele>
        <time>2013-05-07T16:42:23Z</time>
      </trkpt>
      <trkpt lat="48.73443" lon="-3.45717">
        <ele>25.61</ele>
        <time>2013-05-07T16:42:24Z</time>
      </trkpt>
      <trkpt lat="48.73445" lon="-3.45707">
        <ele>25.61</ele>
        <time>2013-05-07T16:42:25Z</time>
      </trkpt>
      <trkpt lat="48.73449" lon="-3.45698">
        <ele>25.61</ele>
        <time>2013-05-07T16:42:26Z</time>
      </trkpt>
      <trkpt lat="48.73453" lon="-3.45691">
        <ele>25.61</ele>
        <time>2013-05-07T16:42:27Z</time>
      </trkpt>
      <trkpt lat="48.73467" lon="-3.45657">
        <ele>26.09</ele>
        <time>2013-05-07T16:42:32Z</time>
      </trkpt>
      <trkpt lat="48.7347" lon="-3.45649">
        <ele>26.09</ele>
        <time>2013-05-07T16:42:33Z</time>
      </trkpt>
      <trkpt lat="48.73472" lon="-3.4564">
        <ele>25.61</ele>
        <time>2013-05-07T16:42:34Z</time>
      </trkpt>
      <trkpt lat="48.73489" lon="-3.45568">
        <ele>25.61</ele>
        <time>2013-05-07T16:42:43Z</time>
      </trkpt>
      <trkpt lat="48.7351" lon="-3.45529">
        <ele>26.57</ele>
        <time>2013-05-07T16:42:50Z</time>
      </trkpt>
      <trkpt lat="48.73515" lon="-3.45528">
        <ele>26.57</ele>
        <time>2013-05-07T16:42:51Z</time>
      </trkpt>
      <trkpt lat="48.73524" lon="-3.45527">
        <ele>26.09</ele>
        <time>2013-05-07T16:42:53Z</time>
      </trkpt>
      <trkpt lat="48.73528" lon="-3.45528">
        <ele>26.57</ele>
        <time>2013-05-07T16:42:54Z</time>
      </trkpt>
      <trkpt lat="48.73532" lon="-3.45528">
        <ele>26.57</ele>
        <time>2013-05-07T16:42:55Z</time>
      </trkpt>
      <trkpt lat="48.73537" lon="-3.45527">
        <ele>26.57</ele>
        <time>2013-05-07T16:42:56Z</time>
      </trkpt>
      <trkpt lat="48.73542" lon="-3.45525">
        <ele>26.57</ele>
        <time>2013-05-07T16:42:57Z</time>
      </trkpt>
      <trkpt lat="48.73554" lon="-3.4552">
        <ele>27.53</ele>
        <time>2013-05-07T16:43:00Z</time>
      </trkpt>
      <trkpt lat="48.73558" lon="-3.45518">
        <ele>28.02</ele>
        <time>2013-05-07T16:43:01Z</time>
      </trkpt>
      <trkpt lat="48.7357" lon="-3.45514">
        <ele>28.5</ele>
        <time>2013-05-07T16:43:04Z</time>
      </trkpt>
      <trkpt lat="48.73608" lon="-3.45504">
        <ele>29.94</ele>
        <time>2013-05-07T16:43:12Z</time>
      </trkpt>
      <trkpt lat="48.73613" lon="-3.45504">
        <ele>29.94</ele>
        <time>2013-05-07T16:43:13Z</time>
      </trkpt>
      <trkpt lat="48.73648" lon="-3.45513">
        <ele>32.34</ele>
        <time>2013-05-07T16:43:22Z</time>
      </trkpt>
      <trkpt lat="48.73687" lon="-3.4552">
        <ele>35.23</ele>
        <time>2013-05-07T16:43:31Z</time>
      </trkpt>
      <trkpt lat="48.73691" lon="-3.4552">
        <ele>35.23</ele>
        <time>2013-05-07T16:43:32Z</time>
      </trkpt>
      <trkpt lat="48.73733" lon="-3.45508">
        <ele>38.11</ele>
        <time>2013-05-07T16:43:44Z</time>
      </trkpt>
      <trkpt lat="48.73782" lon="-3.45494">
        <ele>41.47</ele>
        <time>2013-05-07T16:43:58Z</time>
      </trkpt>
      <trkpt lat="48.7383" lon="-3.4549">
        <ele>42.92</ele>
        <time>2013-05-07T16:44:12Z</time>
      </trkpt>
      <trkpt lat="48.73888" lon="-3.45484">
        <ele>45.8</ele>
        <time>2013-05-07T16:44:28Z</time>
      </trkpt>
      <trkpt lat="48.73946" lon="-3.45512">
        <ele>48.68</ele>
        <time>2013-05-07T16:44:44Z</time>
      </trkpt>
      <trkpt lat="48.7399" lon="-3.45528">
        <ele>50.61</ele>
        <time>2013-05-07T16:44:57Z</time>
      </trkpt>
      <trkpt lat="48.74035" lon="-3.45537">
        <ele>53.01</ele>
        <time>2013-05-07T16:45:10Z</time>
      </trkpt>
      <trkpt lat="48.74088" lon="-3.45562">
        <ele>55.41</ele>
        <time>2013-05-07T16:45:25Z</time>
      </trkpt>
      <trkpt lat="48.74132" lon="-3.45565">
        <ele>58.3</ele>
        <time>2013-05-07T16:45:37Z</time>
      </trkpt>
      <trkpt lat="48.74174" lon="-3.45563">
        <ele>61.18</ele>
        <time>2013-05-07T16:45:48Z</time>
      </trkpt>
      <trkpt lat="48.74234" lon="-3.4556">
        <ele>64.07</ele>
        <time>2013-05-07T16:46:03Z</time>
      </trkpt>
      <trkpt lat="48.74279" lon="-3.4554">
        <ele>67.43</ele>
        <time>2013-05-07T16:46:15Z</time>
      </trkpt>
      <trkpt lat="48.74325" lon="-3.45502">
        <ele>70.31</ele>
        <time>2013-05-07T16:46:29Z</time>
      </trkpt>
      <trkpt lat="48.74361" lon="-3.45469">
        <ele>72.72</ele>
        <time>2013-05-07T16:46:40Z</time>
      </trkpt>
      <trkpt lat="48.74399" lon="-3.45422">
        <ele>75.6</ele>
        <time>2013-05-07T16:46:53Z</time>
      </trkpt>
      <trkpt lat="48.74399" lon="-3.45348">
        <ele>78</ele>
        <time>2013-05-07T16:47:07Z</time>
      </trkpt>
      <trkpt lat="48.74398" lon="-3.45286">
        <ele>79.93</ele>
        <time>2013-05-07T16:47:22Z</time>
      </trkpt>
      <trkpt lat="48.744" lon="-3.45274">
        <ele>79.93</ele>
        <time>2013-05-07T16:47:35Z</time>
      </trkpt>
      <trkpt lat="48.744" lon="-3.45273">
        <ele>79.93</ele>
        <time>2013-05-07T16:47:37Z</time>
      </trkpt>
      <trkpt lat="48.74402" lon="-3.45263">
        <ele>80.41</ele>
        <time>2013-05-07T16:47:40Z</time>
      </trkpt>
      <trkpt lat="48.74405" lon="-3.45259">
        <ele>80.41</ele>
        <time>2013-05-07T16:47:41Z</time>
      </trkpt>
      <trkpt lat="48.74408" lon="-3.45257">
        <ele>80.41</ele>
        <time>2013-05-07T16:47:42Z</time>
      </trkpt>
      <trkpt lat="48.74412" lon="-3.45256">
        <ele>79.93</ele>
        <time>2013-05-07T16:47:43Z</time>
      </trkpt>
      <trkpt lat="48.74416" lon="-3.45258">
        <ele>79.93</ele>
        <time>2013-05-07T16:47:44Z</time>
      </trkpt>
      <trkpt lat="48.7442" lon="-3.45261">
        <ele>79.93</ele>
        <time>2013-05-07T16:47:45Z</time>
      </trkpt>
      <trkpt lat="48.74424" lon="-3.45266">
        <ele>79.93</ele>
        <time>2013-05-07T16:47:46Z</time>
      </trkpt>
      <trkpt lat="48.74432" lon="-3.45275">
        <ele>78.97</ele>
        <time>2013-05-07T16:47:48Z</time>
      </trkpt>
      <trkpt lat="48.74488" lon="-3.4534">
        <ele>75.6</ele>
        <time>2013-05-07T16:47:57Z</time>
      </trkpt>
      <trkpt lat="48.74503" lon="-3.4536">
        <ele>74.64</ele>
        <time>2013-05-07T16:47:59Z</time>
      </trkpt>
      <trkpt lat="48.74541" lon="-3.45419">
        <ele>71.27</ele>
        <time>2013-05-07T16:48:04Z</time>
      </trkpt>
      <trkpt lat="48.74572" lon="-3.45483">
        <ele>72.24</ele>
        <time>2013-05-07T16:48:10Z</time>
      </trkpt>
      <trkpt lat="48.74597" lon="-3.45511">
        <ele>74.16</ele>
        <time>2013-05-07T16:48:17Z</time>
      </trkpt>
      <trkpt lat="48.746" lon="-3.45509">
        <ele>74.64</ele>
        <time>2013-05-07T16:48:18Z</time>
      </trkpt>
      <trkpt lat="48.74602" lon="-3.45505">
        <ele>75.12</ele>
        <time>2013-05-07T16:48:19Z</time>
      </trkpt>
      <trkpt lat="48.74604" lon="-3.455">
        <ele>75.12</ele>
        <time>2013-05-07T16:48:20Z</time>
      </trkpt>
      <trkpt lat="48.74606" lon="-3.45495">
        <ele>75.6</ele>
        <time>2013-05-07T16:48:21Z</time>
      </trkpt>
      <trkpt lat="48.74608" lon="-3.45491">
        <ele>76.08</ele>
        <time>2013-05-07T16:48:22Z</time>
      </trkpt>
      <trkpt lat="48.7461" lon="-3.45486">
        <ele>76.08</ele>
        <time>2013-05-07T16:48:23Z</time>
      </trkpt>
      <trkpt lat="48.74622" lon="-3.45465">
        <ele>78</ele>
        <time>2013-05-07T16:48:28Z</time>
      </trkpt>
      <trkpt lat="48.74625" lon="-3.45465">
        <ele>78.48</ele>
        <time>2013-05-07T16:48:29Z</time>
      </trkpt>
      <trkpt lat="48.74627" lon="-3.45469">
        <ele>78.97</ele>
        <time>2013-05-07T16:48:30Z</time>
      </trkpt>
      <trkpt lat="48.7463" lon="-3.45473">
        <ele>78.97</ele>
        <time>2013-05-07T16:48:31Z</time>
      </trkpt>
      <trkpt lat="48.74633" lon="-3.45476">
        <ele>79.45</ele>
        <time>2013-05-07T16:48:32Z</time>
      </trkpt>
      <trkpt lat="48.74636" lon="-3.45479">
        <ele>79.93</ele>
        <time>2013-05-07T16:48:33Z</time>
      </trkpt>
      <trkpt lat="48.74639" lon="-3.45481">
        <ele>80.41</ele>
        <time>2013-05-07T16:48:34Z</time>
      </trkpt>
      <trkpt lat="48.74643" lon="-3.45484">
        <ele>80.41</ele>
        <time>2013-05-07T16:48:35Z</time>
      </trkpt>
      <trkpt lat="48.74646" lon="-3.45488">
        <ele>80.89</ele>
        <time>2013-05-07T16:48:36Z</time>
      </trkpt>
      <trkpt lat="48.74649" lon="-3.45491">
        <ele>80.89</ele>
        <time>2013-05-07T16:48:37Z</time>
      </trkpt>
      <trkpt lat="48.74685" lon="-3.45517">
        <ele>82.33</ele>
        <time>2013-05-07T16:48:50Z</time>
      </trkpt>
      <trkpt lat="48.74693" lon="-3.45497">
        <ele>83.77</ele>
        <time>2013-05-07T16:48:58Z</time>
      </trkpt>
      <trkpt lat="48.74697" lon="-3.45502">
        <ele>83.29</ele>
        <time>2013-05-07T16:49:11Z</time>
      </trkpt>
      <trkpt lat="48.74697" lon="-3.45504">
        <ele>83.29</ele>
        <time>2013-05-07T16:49:31Z</time>
      </trkpt>
      <trkpt lat="48.74697" lon="-3.45503">
        <ele>83.29</ele>
        <time>2013-05-07T16:49:44Z</time>
      </trkpt>
      <trkpt lat="48.747" lon="-3.45497">
        <ele>83.29</ele>
        <time>2013-05-07T16:50:03Z</time>
      </trkpt>
      <trkpt lat="48.74703" lon="-3.455">
        <ele>83.77</ele>
        <time>2013-05-07T16:50:23Z</time>
      </trkpt>
      <trkpt lat="48.74698" lon="-3.45499">
        <ele>83.77</ele>
        <time>2013-05-07T16:50:43Z</time>
      </trkpt>
      <trkpt lat="48.74685" lon="-3.45511">
        <ele>83.77</ele>
        <time>2013-05-07T16:51:02Z</time>
      </trkpt>
      <trkpt lat="48.74686" lon="-3.45508">
        <ele>83.77</ele>
        <time>2013-05-07T16:51:24Z</time>
      </trkpt>
    </trkseg>
  </trk>
</gpx>